[[{"header":{"parameterUnit":"m.s-1","parameterCategory":1,"la1":31.0,"la2":29.5877,"lo1":-88.7671,"lo2":-86.6584,"dy":0.0162,"dx":0.0185,"nx":115,"ny":88,"refTime":"2023-09-26T12:00:00:Z","depth":0,"parameterNumber":2,"parameterNumberName":"U-component_of_WINDS"},"data":[0.0,0.0,0.0,0.0,0.0,0.0,0.0,0.0,0.0,0.0,0.0,0.0,0.0,0.0,0.0,0.0,0.0,0.0,0.0,0.0,0.0,0.0,0.0,0.0,0.0,0.0,0.0,0.0,0.0,0.0,0.0,0.0,0.0,0.0,0.0,0.0,0.0,0.0,0.0,0.0,0.0,0.0,0.0,0.0,0.0,0.0,0.0,0.0,0.0,0.0,0.0,0.0,0.0,0.0,0.0,0.0,0.0,0.0,0.0,0.0,0.0,0.0,0.0,0.0,0.0,0.0,0.0,0.0,0.0,0.0,0.0,0.0,0.0,0.0,0.0,0.0,0.0,0.0,0.0,0.0,0.0,0.0,0.0,0.0,0.0,0.0,0.0,0.0,0.0,0.0,0.0,0.0,0.0,0.0,0.0,0.0,0.0,0.0,0.0,0.0,0.0,0.0,0.0,0.0,0.0,0.0,0.0,0.0,0.0,0.0,0.0,0.0,0.0,0.0,0.0,0.0,0.0,0.0,0.0,0.0,0.0,0.0,0.0,0.0,0.0,0.0,0.0,0.0,0.0,0.0,0.0,0.0,0.0,0.0,0.0,0.0,0.0,0.0,0.0,0.0,0.0,0.0,0.0,0.0,0.0,0.0,0.0,0.0,0.0,0.0,0.0,0.0,0.0,0.0,0.0,0.0,0.0,0.0,0.0,0.0,0.0,0.0,0.0,0.0,0.0,0.0,0.0,0.0,0.0,0.0,0.0,0.0,0.0,0.0,0.0,0.0,0.0,0.0,0.0,0.0,0.0,0.0,0.0,0.0,0.0,0.0,0.0,0.0,0.0,0.0,0.0,0.0,0.0,0.0,0.0,0.0,0.0,0.0,0.0,0.0,0.0,0.0,0.0,0.0,0.0,0.0,0.0,0.0,0.0,0.0,0.0,0.0,0.0,0.0,0.0,0.0,0.0,0.0,0.0,0.0,0.0,0.0,0.0,0.0,0.0,0.0,0.0,0.0,0.0,0.0,0.0,0.0,0.0,0.0,0.0,0.0,0.0,0.0,0.0,0.0,0.0,0.0,0.0,0.0,0.0,0.0,0.0,0.0,0.0,0.0,0.0,0.0,0.0,0.0,0.0,0.0,0.0,0.0,0.0,0.0,0.0,0.0,0.0,0.0,0.0,0.0,0.0,0.0,0.0,0.0,0.0,0.0,0.0,0.0,0.0,0.0,0.0,0.0,0.0,0.0,0.0,0.0,0.0,0.0,0.0,0.0,0.0,0.0,0.0,0.0,0.0,0.0,0.0,0.0,0.0,0.0,0.0,0.0,0.0,0.0,0.0,0.0,0.0,0.0,0.0,0.0,0.0,0.0,0.0,0.0,0.0,0.0,0.0,0.0,0.0,0.0,0.0,0.0,0.0,0.0,0.0,0.0,0.0,0.0,0.0,0.0,0.0,0.0,0.0,0.0,0.0,0.0,0.0,0.0,0.0,0.0,0.0,0.0,0.0,0.0,0.0,0.0,0.0,0.0,0.0,0.0,0.0,0.0,0.0,0.0,0.0,0.0,0.0,0.0,0.0,0.0,0.0,0.0,0.0,0.0,0.0,0.0,0.0,0.0,0.0,0.0,0.0,0.0,0.0,0.0,0.0,0.0,0.0,0.0,0.0,0.0,0.0,0.0,0.0,0.0,0.0,0.0,0.0,0.0,0.0,0.0,0.0,0.0,0.0,0.0,0.0,0.0,0.0,0.0,0.0,0.0,0.0,0.0,0.0,0.0,0.0,0.0,0.0,0.0,0.0,0.0,0.0,0.0,0.0,0.0,0.0,0.0,0.0,0.0,0.0,0.0,0.0,0.0,0.0,0.0,0.0,0.0,0.0,0.0,0.0,0.0,0.0,0.0,0.0,0.0,0.0,0.0,0.0,0.0,0.0,0.0,0.0,0.0,0.0,0.0,0.0,0.0,0.0,0.0,0.0,0.0,0.0,0.0,0.0,0.0,0.0,0.0,0.0,0.0,0.0,0.0,0.0,0.0,0.0,0.0,0.0,0.0,0.0,0.0,0.0,0.0,0.0,0.0,0.0,0.0,0.0,0.0,0.0,0.0,0.0,0.0,0.0,0.0,0.0,0.0,0.0,0.0,0.0,0.0,0.0,0.0,0.0,0.0,0.0,0.0,0.0,0.0,0.0,0.0,0.0,0.0,0.0,0.0,0.0,0.0,0.0,0.0,0.0,0.0,0.0,0.0,0.0,0.0,0.0,0.0,0.0,0.0,0.0,0.0,0.0,0.0,0.0,0.0,0.0,0.0,0.0,0.0,0.0,0.0,0.0,0.0,0.0,0.0,0.0,0.0,0.0,0.0,0.0,0.0,0.0,0.0,0.0,0.0,0.0,0.0,0.0,0.0,0.0,0.0,0.0,0.0,0.0,0.0,0.0,0.0,0.0,0.0,0.0,0.0,0.0,0.0,0.0,0.0,0.0,0.0,0.0,0.0,0.0,0.0,0.0,0.0,0.0,0.0,0.0,0.0,0.0,0.0,0.0,0.0,0.0,0.0,0.0,0.0,0.0,0.0,0.0,0.0,0.0,0.0,0.0,0.0,0.0,0.0,0.0,0.0,0.0,0.0,0.0,0.0,0.0,0.0,0.0,0.0,0.0,0.0,0.0,0.0,0.0,0.0,0.0,0.0,0.0,0.0,0.0,0.0,0.0,0.0,0.0,0.0,0.0,0.0,0.0,0.0,0.0,0.0,0.0,0.0,0.0,0.0,0.0,0.0,0.0,0.0,0.0,0.0,0.0,0.0,0.0,0.0,0.0,0.0,0.0,0.0,0.0,0.0,0.0,0.0,0.0,0.0,0.0,0.0,0.0,0.0,0.0,0.0,0.0,0.0,0.0,0.0,0.0,0.0,0.0,0.0,0.0,0.0,0.0,0.0,0.0,0.0,0.0,0.0,0.0,0.0,0.0,0.0,0.0,0.0,0.0,0.0,0.0,0.0,0.0,0.0,0.0,0.0,0.0,0.0,0.0,0.0,0.0,0.0,0.0,0.0,0.0,0.0,0.0,0.0,0.0,0.0,0.0,0.0,0.0,0.0,0.0,0.0,0.0,0.0,0.0,0.0,0.0,0.0,0.0,0.0,0.0,0.0,0.0,0.0,0.0,0.0,0.0,0.0,0.0,0.0,0.0,0.0,0.0,0.0,0.0,0.0,0.0,0.0,0.0,0.0,0.0,0.0,0.0,0.0,0.0,0.0,0.0,0.0,0.0,0.0,0.0,0.0,0.0,0.0,0.0,0.0,0.0,0.0,0.0,0.0,0.0,0.0,0.0,0.0,0.0,0.0,0.0,0.0,0.0,0.0,0.0,0.0,0.0,0.0,0.0,0.0,0.0,0.0,0.0,0.0,0.0,0.0,0.0,0.0,0.0,0.0,0.0,0.0,0.0,0.0,0.0,0.0,0.0,0.0,0.0,0.0,0.0,0.0,0.0,0.0,0.0,0.0,0.0,0.0,0.0,0.0,0.0,0.0,0.0,0.0,0.0,0.0,0.0,0.0,0.0,0.0,0.0,0.0,0.0,0.0,0.0,0.0,0.0,0.0,0.0,0.0,0.0,0.0,0.0,0.0,0.0,0.0,0.0,0.0,0.0,0.0,0.0,0.0,0.0,0.0,0.0,0.0,0.0,0.0,0.0,0.0,0.0,0.0,0.0,0.0,0.0,0.0,0.0,0.0,0.0,0.0,0.0,0.0,0.0,0.0,0.0,0.0,0.0,0.0,0.0,0.0,0.0,0.0,0.0,0.0,0.0,0.0,0.0,0.0,0.0,0.0,0.0,0.0,0.0,0.0,0.0,0.0,0.0,0.0,0.0,0.0,0.0,0.0,0.0,0.0,0.0,0.0,0.0,0.0,0.0,0.0,0.0,0.0,0.0,0.0,0.0,0.0,0.0,0.0,0.0,0.0,0.0,0.0,0.0,0.0,0.0,0.0,0.0,0.0,0.0,0.0,0.0,0.0,0.0,0.0,0.0,0.0,0.0,0.0,0.0,0.0,0.0,0.0,0.0,0.0,0.0,0.0,0.0,0.0,0.0,0.0,0.0,0.0,0.0,0.0,0.0,0.0,0.0,0.0,0.0,0.0,0.0,0.0,0.0,0.0,0.0,0.0,0.0,0.0,0.0,0.0,0.0,0.0,0.0,0.0,0.0,0.0,0.0,0.0,0.0,0.0,0.0,0.0,0.0,0.0,0.0,0.0,0.0,0.0,0.0,0.0,0.0,0.0,1.4891,0.0,0.0,0.0,0.0,0.0,0.0,0.0,0.0,0.0,0.0,0.0,0.0,0.0,0.0,0.0,0.0,0.0,0.0,0.0,0.0,0.0,0.0,0.0,0.0,0.0,0.0,0.0,0.0,0.0,0.0,0.0,0.0,0.0,0.0,0.0,0.0,0.0,0.0,0.0,0.0,0.0,0.0,0.0,0.0,0.0,0.0,0.0,0.0,0.0,0.0,0.0,0.0,0.0,0.0,0.0,0.0,0.0,0.0,0.0,0.0,0.0,0.0,0.0,0.0,0.0,0.0,0.0,0.0,0.0,0.0,0.0,0.0,0.0,0.0,0.0,0.0,0.0,0.0,0.0,0.0,0.0,0.0,0.0,0.0,0.0,0.0,0.0,0.0,0.0,0.0,0.0,0.0,0.0,0.0,0.0,0.0,0.0,0.0,0.0,0.0,0.0,0.0,0.0,0.0,0.0,0.0,0.0,0.0,0.0,0.0,1.5856,1.607,1.5615,1.5484,1.5746,0.0,0.0,0.0,0.0,0.0,0.0,0.0,0.0,0.0,0.0,0.0,0.0,0.0,0.0,0.0,0.0,0.0,0.0,0.0,0.0,0.0,0.0,0.0,0.0,0.0,0.0,0.0,0.0,0.0,0.0,0.0,0.0,0.0,0.0,0.0,0.0,0.0,0.0,0.0,0.0,0.0,0.0,0.0,0.0,0.0,0.0,0.0,0.0,0.0,0.0,0.0,0.0,0.0,0.0,0.0,0.0,0.0,0.0,0.0,0.0,0.0,0.0,0.0,0.0,0.0,0.0,0.0,0.0,0.0,0.0,0.0,0.0,0.0,0.0,0.0,0.0,0.0,0.0,0.0,0.0,0.0,0.0,0.0,0.0,0.0,0.0,0.0,0.0,0.0,0.0,0.0,0.0,0.0,0.0,0.0,0.0,0.0,0.0,0.0,0.0,0.0,0.0,0.0,0.0,0.0,0.0,0.0,0.0,0.0,0.0,0.0,0.0,1.6504,1.627,1.6492,0.0,0.0,0.0,0.0,0.0,0.0,0.0,0.0,0.0,0.0,0.0,0.0,0.0,0.0,0.0,0.0,0.0,0.0,0.0,0.0,0.0,0.0,0.0,0.0,0.0,0.0,0.0,0.0,0.0,0.0,0.0,0.0,0.0,0.0,0.0,0.0,0.0,0.0,0.0,0.0,0.0,0.0,0.0,0.0,0.0,0.0,0.0,0.0,0.0,0.0,0.0,0.0,0.0,0.0,0.0,0.0,0.0,0.0,0.0,0.0,0.0,0.0,0.0,0.0,0.0,0.0,0.0,0.0,0.0,0.0,0.0,0.0,0.0,0.0,0.0,0.0,0.0,0.0,0.0,0.0,0.0,0.0,0.0,0.0,0.0,0.0,0.0,0.0,0.0,0.0,0.0,0.0,0.0,0.0,0.0,0.0,0.0,0.0,0.0,0.0,0.0,0.0,0.0,0.0,0.0,0.0,0.0,0.0,0.0,0.0,1.7172,1.7626,1.7564,0.0,1.6965,0.0,0.0,0.0,0.0,0.0,0.0,0.0,0.0,0.0,0.0,0.0,0.0,0.0,0.0,0.0,0.0,0.0,0.0,0.0,0.0,0.0,0.0,0.0,0.0,0.0,0.0,0.0,0.0,0.0,0.0,0.0,0.0,0.0,0.0,0.0,0.0,0.0,0.0,0.0,0.0,0.0,0.0,0.0,0.0,0.0,0.0,0.0,0.0,0.0,0.0,0.0,0.0,0.0,0.0,0.0,0.0,0.0,0.0,0.0,0.0,0.0,0.0,0.0,0.0,0.0,0.0,0.0,0.0,0.0,0.0,0.0,0.0,0.0,0.0,0.0,0.0,0.0,0.0,0.0,0.0,0.0,0.0,0.0,0.0,0.0,0.0,0.0,0.0,0.0,0.0,0.0,0.0,0.0,0.0,0.0,0.0,0.0,0.0,0.0,0.0,0.0,0.0,0.0,0.0,0.0,0.0,0.0,0.0,0.0,0.0,1.7482,1.8522,1.8526,1.8035,0.0,0.0,0.0,0.0,0.0,0.0,0.0,0.0,0.0,0.0,0.0,0.0,0.0,0.0,0.0,0.0,0.0,0.0,0.0,0.0,0.0,0.0,0.0,0.0,0.0,0.0,0.0,0.0,0.0,0.0,0.0,0.0,0.0,0.0,0.0,0.0,0.0,0.0,0.0,0.0,0.0,0.0,0.0,0.0,0.0,0.0,0.0,0.0,0.0,0.0,0.0,0.0,0.0,0.0,0.0,0.0,0.0,0.0,0.0,0.0,0.0,0.0,0.0,0.0,0.0,0.0,0.0,0.0,0.0,0.0,0.0,0.0,0.0,0.0,0.0,0.0,0.0,0.0,0.0,0.0,0.0,0.0,0.0,0.0,0.0,0.0,0.0,0.0,0.0,0.0,0.0,0.0,0.0,0.0,0.0,0.0,0.0,0.0,0.0,0.0,0.0,0.0,0.0,0.0,0.0,0.0,0.0,0.0,0.0,0.0,1.744,1.8133,1.9202,1.9305,1.8646,1.7239,0.0,0.0,0.0,0.0,0.0,0.0,0.0,0.0,0.0,0.0,0.0,0.0,0.0,0.0,0.0,0.0,0.0,0.0,0.0,0.0,0.0,0.0,0.0,0.0,0.0,0.0,0.0,0.0,0.0,0.0,0.0,0.0,0.0,0.0,0.0,0.0,0.0,0.0,0.0,0.0,0.0,0.0,0.0,0.0,0.0,0.0,0.0,0.0,0.0,0.0,0.0,0.0,0.0,0.0,0.0,0.0,0.0,0.0,0.0,0.0,0.0,0.0,0.0,0.0,0.0,0.0,0.0,0.0,0.0,0.0,0.0,0.0,0.0,0.0,0.0,0.0,0.0,0.0,0.0,0.0,0.0,0.0,0.0,0.0,0.0,0.0,0.0,0.0,0.0,0.0,0.0,0.0,0.0,0.0,0.0,0.0,0.0,0.0,0.0,0.0,0.0,0.0,0.0,0.0,0.0,0.0,0.0,0.0,1.7668,1.8526,1.9264,1.9741,1.9782,1.9123,0.0,0.0,0.0,0.0,0.0,0.0,0.0,0.0,0.0,0.0,0.0,0.0,0.0,0.0,0.0,0.0,0.0,0.0,0.0,0.0,0.0,0.0,0.0,0.0,0.0,0.0,0.0,0.0,0.0,0.0,0.0,0.0,0.0,0.0,0.0,0.0,0.0,0.0,0.0,0.0,0.0,0.0,0.0,0.0,0.0,0.0,0.0,0.0,0.0,0.0,0.0,0.0,0.0,0.0,0.0,0.0,0.0,0.0,0.0,0.0,0.0,0.0,0.0,0.0,0.0,0.0,0.0,0.0,0.0,0.0,0.0,0.0,0.0,0.0,0.0,0.0,0.0,0.0,0.0,0.0,0.0,0.0,0.0,0.0,0.0,0.0,0.0,0.0,0.0,0.0,0.0,0.0,0.0,0.0,0.0,0.0,0.0,0.0,0.0,0.0,0.0,0.0,0.0,0.0,0.0,0.0,0.0,0.0,0.0,1.7714,1.9151,2.0017,2.0182,2.0182,1.9541,0.0,0.0,0.0,0.0,0.0,0.0,0.0,0.0,0.0,0.0,0.0,0.0,0.0,0.0,0.0,0.0,0.0,0.0,0.0,0.0,0.0,0.0,0.0,0.0,0.0,0.0,0.0,0.0,0.0,0.0,0.0,0.0,0.0,0.0,0.0,0.0,0.0,0.0,0.0,0.0,0.0,0.0,0.0,0.0,0.0,0.0,0.0,0.0,0.0,0.0,0.0,0.0,0.0,0.0,0.0,0.0,0.0,0.0,0.0,0.0,0.0,0.0,0.0,0.0,0.0,0.0,0.0,0.0,0.0,0.0,0.0,0.0,0.0,0.0,0.0,0.0,0.0,0.0,0.0,0.0,0.0,0.0,0.0,0.0,0.0,0.0,0.0,0.0,0.0,0.0,0.0,0.0,0.0,0.0,0.0,0.0,0.0,0.0,0.0,0.0,0.0,0.0,0.0,0.0,0.0,0.0,0.0,0.0,0.0,1.8577,0.0,2.0602,2.064,2.0457,1.9751,0.0,0.0,0.0,0.0,0.0,0.0,0.0,0.0,0.0,0.0,0.0,0.0,0.0,0.0,0.0,0.0,0.0,0.0,0.0,0.0,0.0,0.0,0.0,0.0,0.0,0.0,0.0,0.0,0.0,0.0,0.0,0.0,0.0,0.0,0.0,0.0,0.0,0.0,0.0,0.0,0.0,0.0,0.0,0.0,0.0,0.0,0.0,0.0,0.0,0.0,0.0,0.0,0.0,0.0,0.0,0.0,0.0,0.0,0.0,0.0,0.0,0.0,0.0,0.0,0.0,0.0,0.0,0.0,0.0,0.0,0.0,0.0,0.0,0.0,0.0,0.0,0.0,0.0,0.0,0.0,0.0,0.0,0.0,0.0,0.0,0.0,0.0,0.0,0.0,0.0,0.0,0.0,0.0,0.0,0.0,0.0,0.0,0.0,0.0,0.0,0.0,0.0,0.0,0.0,0.0,0.0,0.0,0.0,1.8597,2.031,2.0847,2.1116,2.1114,2.0703,1.981,0.0,0.0,0.0,0.0,0.0,0.0,0.0,0.0,0.0,0.0,0.0,0.0,0.0,0.0,0.0,0.0,0.0,0.0,0.0,0.0,0.0,0.0,0.0,0.0,0.0,0.0,0.0,0.0,0.0,0.0,0.0,0.0,0.0,0.0,0.0,0.0,0.0,0.0,0.0,0.0,0.0,0.0,0.0,0.0,0.0,0.0,0.0,0.0,0.0,0.0,0.0,0.0,0.0,0.0,0.0,0.0,0.0,0.0,0.0,0.0,0.0,0.0,0.0,0.0,0.0,0.0,0.0,0.0,0.0,0.0,0.0,0.0,0.0,0.0,0.0,0.0,0.0,0.0,0.0,0.0,0.0,0.0,0.0,0.0,0.0,0.0,0.0,0.0,0.0,0.0,0.0,0.0,0.0,0.0,0.0,0.0,0.0,0.0,0.0,0.0,0.0,0.0,0.0,0.0,0.0,0.0,0.0,0.0,0.0,2.0847,2.1344,2.1756,2.2025,2.1611,2.0721,0.0,0.0,0.0,0.0,0.0,0.0,0.0,0.0,0.0,0.0,0.0,0.0,0.0,0.0,0.0,0.0,0.0,0.0,0.0,0.0,0.0,0.0,0.0,0.0,0.0,0.0,0.0,0.0,0.0,0.0,0.0,0.0,0.0,0.0,0.0,0.0,0.0,0.0,0.0,0.0,0.0,0.0,0.0,0.0,0.0,0.0,0.0,0.0,0.0,0.0,0.0,0.0,0.0,0.0,0.0,0.0,0.0,0.0,0.0,0.0,0.0,0.0,0.0,0.0,0.0,0.0,0.0,0.0,0.0,0.0,0.0,0.0,0.0,0.0,0.0,0.0,0.0,0.0,0.0,0.0,0.0,0.0,0.0,0.0,0.0,0.0,0.0,0.0,0.0,0.0,0.0,0.0,0.0,0.0,0.0,0.0,0.0,0.0,0.0,0.0,0.0,0.0,0.0,0.0,0.0,0.0,0.0,0.0,0.0,2.1817,2.2222,2.2569,2.2877,2.2182,2.1181,1.9848,0.0,0.0,0.0,0.0,0.0,0.0,0.0,0.0,0.0,0.0,0.0,0.0,0.0,0.0,0.0,0.0,0.0,0.0,0.0,0.0,0.0,0.0,0.0,0.0,0.0,0.0,0.0,0.0,0.0,0.0,0.0,0.0,0.0,0.0,0.0,0.0,0.0,0.0,0.0,0.0,0.0,0.0,0.0,0.0,0.0,0.0,0.0,0.0,0.0,0.0,0.0,0.0,0.0,0.0,0.0,0.0,0.0,0.0,0.0,0.0,0.0,0.0,0.0,0.0,0.0,0.0,0.0,0.0,0.0,0.0,0.0,0.0,0.0,0.0,0.0,0.0,0.0,0.0,0.0,0.0,0.0,0.0,0.0,0.0,0.0,0.0,0.0,0.0,0.0,0.0,0.0,0.0,0.0,0.0,0.0,0.0,0.0,0.0,0.0,0.0,0.0,0.0,0.0,0.0,0.0,0.0,0.0,0.0,2.3234,2.3546,2.3694,2.3593,2.2534,2.1308,0.0,0.0,0.0,0.0,0.0,0.0,0.0,0.0,0.0,0.0,0.0,0.0,0.0,0.0,0.0,0.0,0.0,0.0,0.0,0.0,0.0,0.0,0.0,0.0,0.0,0.0,0.0,0.0,0.0,0.0,0.0,0.0,0.0,0.0,0.0,0.0,0.0,0.0,0.0,0.0,0.0,0.0,0.0,0.0,0.0,0.0,0.0,0.0,0.0,0.0,0.0,0.0,0.0,0.0,0.0,0.0,0.0,0.0,0.0,0.0,0.0,0.0,0.0,0.0,0.0,0.0,0.0,0.0,0.0,0.0,0.0,0.0,0.0,0.0,0.0,0.0,0.0,0.0,0.0,0.0,0.0,0.0,0.0,0.0,0.0,0.0,0.0,0.0,0.0,0.0,0.0,0.0,0.0,0.0,0.0,0.0,0.0,0.0,0.0,0.0,0.0,0.0,0.0,0.0,0.0,0.0,0.0,0.0,0.0,2.5042,2.5948,2.5852,2.4708,2.4038,2.2953,0.0,0.0,0.0,0.0,0.0,0.0,0.0,0.0,0.0,0.0,0.0,0.0,0.0,0.0,0.0,0.0,0.0,0.0,0.0,0.0,0.0,0.0,0.0,0.0,0.0,0.0,0.0,0.0,0.0,0.0,0.0,0.0,0.0,0.0,0.0,0.0,0.0,0.0,0.0,0.0,0.0,0.0,0.0,0.0,0.0,0.0,0.0,0.0,0.0,0.0,0.0,0.0,0.0,0.0,0.0,0.0,0.0,0.0,0.0,0.0,0.0,0.0,0.0,0.0,0.0,0.0,0.0,0.0,0.0,0.0,0.0,0.0,0.0,0.0,0.0,0.0,0.0,0.0,0.0,0.0,0.0,0.0,0.0,0.0,0.0,0.0,0.0,0.0,0.0,0.0,0.0,0.0,0.0,0.0,0.0,0.0,0.0,0.0,0.0,0.0,0.0,0.0,0.0,0.0,0.0,0.0,0.0,0.0,2.3959,2.5827,2.6869,2.7046,2.6328,2.5433,2.4068,0.0,0.0,0.0,0.0,0.0,0.0,0.0,0.0,0.0,0.0,0.0,0.0,0.0,0.0,0.0,0.0,0.0,0.0,0.0,0.0,0.0,0.0,0.0,0.0,0.0,0.0,0.0,0.0,0.0,0.0,0.0,0.0,0.0,0.0,0.0,0.0,0.0,0.0,0.0,0.0,0.0,0.0,0.0,0.0,0.0,0.0,0.0,0.0,0.0,0.0,0.0,0.0,0.0,0.0,0.0,0.0,0.0,0.0,0.0,0.0,0.0,0.0,0.0,0.0,0.0,0.0,0.0,0.0,0.0,0.0,0.0,0.0,0.0,0.0,0.0,0.0,0.0,0.0,0.0,0.0,0.0,0.0,0.0,0.0,0.0,0.0,0.0,0.0,0.0,0.0,0.0,0.0,0.0,0.0,0.0,0.0,0.0,0.0,0.0,0.0,0.0,0.0,0.0,0.0,0.0,0.0,0.0,0.0,2.4152,2.6078,2.7123,2.783,2.8133,2.6628,2.4832,0.0,0.0,0.0,0.0,0.0,0.0,0.0,0.0,0.0,0.0,0.0,0.0,0.0,0.0,0.0,0.0,0.0,0.0,0.0,0.0,0.0,0.0,0.0,0.0,0.0,0.0,0.0,0.0,0.0,0.0,0.0,0.0,0.0,0.0,0.0,0.0,0.0,0.0,0.0,0.0,0.0,0.0,0.0,0.0,0.0,0.0,0.0,0.0,0.0,0.0,0.0,0.0,0.0,0.0,0.0,0.0,0.0,0.0,0.0,0.0,0.0,0.0,0.0,0.0,0.0,0.0,0.0,0.0,0.0,0.0,0.0,0.0,0.0,0.0,0.0,0.0,0.0,0.0,0.0,0.0,0.0,0.0,0.0,0.0,0.0,0.0,0.0,0.0,0.0,0.0,0.0,0.0,0.0,0.0,0.0,0.0,0.0,0.0,0.0,0.0,0.0,0.0,0.0,0.0,0.0,0.0,0.0,0.0,2.549,2.7514,2.8748,2.94,2.9476,2.7443,2.5621,0.0,0.0,0.0,0.0,0.0,0.0,0.0,0.0,0.0,0.0,0.0,0.0,0.0,0.0,0.0,0.0,0.0,0.0,0.0,0.0,0.0,0.0,0.0,0.0,0.0,0.0,0.0,0.0,0.0,0.0,0.0,0.0,0.0,0.0,0.0,0.0,0.0,0.0,0.0,0.0,0.0,0.0,0.0,0.0,0.0,0.0,0.0,0.0,2.0286,0.0,0.0,0.0,0.0,0.0,0.0,0.0,0.0,0.0,0.0,0.0,0.0,0.0,0.0,0.0,0.0,0.0,0.0,0.0,0.0,0.0,0.0,0.0,0.0,0.0,0.0,0.0,0.0,0.0,0.0,0.0,0.0,0.0,0.0,0.0,0.0,0.0,0.0,0.0,0.0,0.0,0.0,0.0,0.0,0.0,0.0,0.0,0.0,0.0,0.0,0.0,0.0,0.0,0.0,0.0,0.0,0.0,0.0,0.0,2.5809,2.8023,2.8996,2.9572,2.9684,2.8154,2.6553,0.0,0.0,0.0,0.0,0.0,0.0,0.0,0.0,0.0,0.0,0.0,0.0,0.0,0.0,0.0,0.0,0.0,0.0,0.0,0.0,0.0,0.0,0.0,0.0,0.0,0.0,0.0,0.0,0.0,0.0,0.0,0.0,0.0,0.0,0.0,0.0,0.0,0.0,0.0,0.0,0.0,0.0,0.0,0.0,0.0,0.0,0.0,0.0,0.0,0.0,0.0,0.0,0.0,0.0,0.0,0.0,0.0,0.0,0.0,0.0,0.0,0.0,0.0,0.0,0.0,0.0,0.0,0.0,0.0,0.0,0.0,0.0,0.0,0.0,0.0,0.0,0.0,0.0,0.0,0.0,0.0,0.0,0.0,0.0,0.0,0.0,0.0,0.0,0.0,0.0,0.0,0.0,0.0,0.0,0.0,0.0,0.0,0.0,0.0,0.0,0.0,0.0,0.0,0.0,0.0,0.0,0.0,2.3831,2.5748,2.8085,2.8726,2.9203,2.9575,2.87,2.7332,2.5424,0.0,0.0,0.0,0.0,0.0,0.0,0.0,0.0,0.0,0.0,0.0,0.0,0.0,0.0,0.0,0.0,0.0,0.0,0.0,0.0,0.0,0.0,0.0,0.0,0.0,0.0,0.0,0.0,0.0,0.0,0.0,0.0,0.0,0.0,0.0,0.0,0.0,0.0,1.8547,2.0493,0.0,0.0,0.0,0.0,0.0,0.0,0.0,0.0,2.1445,0.0,0.0,0.0,0.0,0.0,0.0,0.0,0.0,0.0,0.0,0.0,0.0,0.0,0.0,0.0,0.0,0.0,0.0,0.0,0.0,0.0,0.0,0.0,0.0,0.0,0.0,0.0,0.0,0.0,0.0,0.0,0.0,0.0,0.0,0.0,0.0,0.0,0.0,0.0,0.0,0.0,0.0,0.0,0.0,0.0,0.0,0.0,0.0,0.0,0.0,0.0,0.0,0.0,0.0,0.0,0.0,2.2231,2.4056,2.5996,2.7979,2.8771,2.9341,2.9656,2.8871,2.757,2.5699,0.0,0.0,0.0,0.0,0.0,0.0,0.0,0.0,0.0,0.0,0.0,0.0,0.0,0.0,0.0,0.0,0.0,0.0,0.0,0.0,0.0,0.0,0.0,0.0,0.0,0.0,0.0,0.0,0.0,0.0,0.0,0.0,0.0,0.0,0.0,0.0,0.0,0.0,0.0,2.1073,2.2108,0.0,0.0,0.0,0.0,0.0,0.0,0.0,0.0,2.2686,0.0,0.0,0.0,0.0,0.0,0.0,0.0,0.0,0.0,0.0,0.0,0.0,0.0,0.0,0.0,0.0,0.0,0.0,0.0,0.0,0.0,0.0,0.0,0.0,0.0,0.0,0.0,0.0,0.0,0.0,0.0,0.0,0.0,0.0,0.0,0.0,0.0,0.0,0.0,0.0,0.0,0.0,0.0,0.0,0.0,0.0,0.0,0.0,0.0,0.0,0.0,0.0,0.0,0.0,0.0,2.196,2.3842,2.58,2.7709,2.8535,2.9096,2.9422,2.8595,2.7306,0.0,0.0,0.0,0.0,0.0,0.0,0.0,0.0,0.0,0.0,0.0,0.0,0.0,0.0,0.0,0.0,0.0,0.0,0.0,0.0,0.0,0.0,0.0,0.0,0.0,0.0,0.0,0.0,0.0,0.0,0.0,0.0,0.0,0.0,0.0,0.0,0.0,0.0,0.0,0.0,2.2606,2.3557,2.4467,0.0,0.0,0.0,0.0,0.0,0.0,2.3867,2.3722,0.0,0.0,0.0,0.0,0.0,0.0,0.0,0.0,0.0,0.0,0.0,0.0,0.0,0.0,0.0,0.0,0.0,0.0,0.0,0.0,0.0,0.0,0.0,0.0,0.0,0.0,0.0,0.0,0.0,0.0,0.0,0.0,0.0,0.0,0.0,0.0,0.0,0.0,0.0,0.0,0.0,0.0,0.0,0.0,0.0,0.0,0.0,0.0,0.0,0.0,0.0,0.0,0.0,0.0,0.0,2.1658,2.3505,2.5399,2.7302,2.8044,2.8595,2.8954,2.8085,2.6824,0.0,0.0,0.0,0.0,0.0,0.0,0.0,0.0,0.0,0.0,0.0,0.0,0.0,0.0,0.0,0.0,0.0,0.0,0.0,0.0,0.0,0.0,0.0,0.0,0.0,0.0,0.0,0.0,0.0,0.0,0.0,0.0,0.0,0.0,0.0,0.0,0.0,0.0,0.0,0.0,0.0,2.4918,2.5807,2.5677,0.0,0.0,0.0,0.0,2.4891,2.4809,0.0,0.0,0.0,0.0,0.0,0.0,0.0,0.0,0.0,0.0,0.0,0.0,0.0,0.0,0.0,0.0,0.0,0.0,0.0,0.0,0.0,0.0,0.0,0.0,0.0,0.0,0.0,0.0,0.0,0.0,0.0,0.0,0.0,0.0,0.0,0.0,0.0,0.0,0.0,0.0,0.0,0.0,0.0,0.0,0.0,0.0,0.0,0.0,0.0,0.0,0.0,0.0,0.0,0.0,0.0,0.0,2.1533,2.3145,2.4874,2.6618,2.7116,2.7649,2.82,2.715,2.6057,0.0,0.0,0.0,0.0,0.0,0.0,0.0,0.0,0.0,0.0,0.0,0.0,0.0,0.0,0.0,0.0,0.0,0.0,0.0,0.0,0.0,0.0,0.0,0.0,0.0,0.0,0.0,0.0,0.0,0.0,0.0,0.0,0.0,0.0,0.0,0.0,0.0,0.0,0.0,0.0,0.0,2.5104,2.6046,2.6222,2.6255,0.0,0.0,2.6198,2.6174,2.5876,0.0,0.0,0.0,0.0,0.0,0.0,0.0,0.0,0.0,0.0,0.0,0.0,0.0,0.0,0.0,0.0,0.0,0.0,0.0,0.0,0.0,0.0,0.0,0.0,0.0,0.0,0.0,0.0,0.0,0.0,0.0,0.0,0.0,0.0,0.0,0.0,0.0,0.0,0.0,0.0,0.0,0.0,0.0,0.0,0.0,0.0,0.0,0.0,0.0,0.0,0.0,0.0,0.0,0.0,0.0,1.985,2.1528,2.2717,2.4315,2.6313,2.6549,2.695,2.7585,2.6817,2.576,0.0,0.0,0.0,0.0,0.0,0.0,0.0,0.0,0.0,0.0,0.0,0.0,0.0,0.0,0.0,0.0,0.0,0.0,0.0,0.0,0.0,0.0,0.0,0.0,0.0,0.0,0.0,0.0,0.0,0.0,0.0,0.0,0.0,0.0,0.0,0.0,0.0,0.0,0.0,0.0,0.0,0.0,2.6964,2.7346,0.0,0.0,0.0,2.7934,2.7934,0.0,0.0,0.0,0.0,0.0,0.0,0.0,0.0,0.0,0.0,0.0,0.0,0.0,0.0,0.0,0.0,0.0,0.0,0.0,0.0,0.0,0.0,0.0,0.0,0.0,0.0,0.0,0.0,0.0,0.0,0.0,0.0,0.0,0.0,0.0,0.0,0.0,0.0,0.0,0.0,0.0,0.0,0.0,0.0,0.0,0.0,0.0,0.0,0.0,0.0,0.0,0.0,0.0,0.0,0.0,0.0,0.0,2.1482,2.2446,2.3903,2.5817,2.6008,2.6328,2.687,2.6286,0.0,0.0,0.0,0.0,0.0,0.0,0.0,0.0,0.0,0.0,0.0,0.0,0.0,0.0,0.0,0.0,0.0,0.0,0.0,0.0,0.0,0.0,0.0,0.0,0.0,0.0,0.0,1.7077,0.0,0.0,0.0,0.0,0.0,0.0,0.0,0.0,0.0,0.0,0.0,0.0,0.0,0.0,2.6539,2.7858,2.8448,2.8907,0.0,0.0,2.9392,2.9372,2.8787,2.8175,0.0,0.0,0.0,0.0,0.0,0.0,0.0,0.0,0.0,0.0,0.0,0.0,0.0,0.0,0.0,0.0,0.0,0.0,0.0,0.0,0.0,0.0,0.0,0.0,0.0,0.0,0.0,0.0,0.0,0.0,0.0,0.0,0.0,0.0,0.0,0.0,0.0,0.0,0.0,0.0,0.0,0.0,0.0,0.0,0.0,0.0,0.0,0.0,0.0,0.0,0.0,0.0,0.0,0.0,0.0,2.1275,2.242,2.3698,2.5128,2.5493,2.5835,2.6168,2.5166,2.4467,0.0,0.0,0.0,0.0,0.0,0.0,0.0,0.0,0.0,0.0,0.0,0.0,0.0,0.0,0.0,0.0,0.0,0.0,0.0,0.0,0.0,0.0,0.0,0.0,0.0,0.0,0.0,0.0,0.0,0.0,0.0,0.0,0.0,0.0,0.0,0.0,0.0,0.0,0.0,0.0,0.0,2.7264,2.8476,2.925,2.9803,0.0,0.0,3.0115,3.0115,2.9098,2.8402,2.8555,0.0,0.0,0.0,0.0,0.0,0.0,0.0,0.0,0.0,0.0,0.0,0.0,0.0,0.0,0.0,0.0,0.0,0.0,0.0,0.0,0.0,0.0,0.0,0.0,0.0,0.0,0.0,0.0,0.0,0.0,0.0,0.0,0.0,0.0,0.0,0.0,0.0,0.0,0.0,0.0,0.0,0.0,0.0,0.0,0.0,0.0,0.0,0.0,0.0,0.0,0.0,0.0,0.0,2.0014,2.1575,2.2523,2.3703,2.5029,2.5229,2.5441,2.5767,2.5155,2.4504,0.0,0.0,0.0,0.0,0.0,0.0,0.0,0.0,0.0,0.0,0.0,0.0,0.0,0.0,0.0,0.0,0.0,0.0,0.0,0.0,0.0,0.0,0.0,0.0,0.0,0.0,0.0,0.0,1.9547,1.9755,2.0311,0.0,0.0,0.0,0.0,0.0,0.0,0.0,0.0,0.0,0.0,2.7642,2.8844,2.9719,0.0,0.0,3.0751,3.0685,3.0417,2.9767,2.9029,2.8372,2.7514,0.0,0.0,0.0,0.0,0.0,0.0,0.0,0.0,0.0,0.0,0.0,0.0,0.0,0.0,0.0,0.0,0.0,0.0,0.0,0.0,0.0,0.0,0.0,0.0,0.0,0.0,0.0,0.0,0.0,0.0,0.0,0.0,0.0,0.0,0.0,0.0,0.0,0.0,0.0,0.0,0.0,0.0,0.0,0.0,0.0,0.0,0.0,0.0,0.0,0.0,0.0,0.0,2.0213,2.1694,2.2574,2.3595,2.4769,2.4991,2.5231,2.5405,2.5093,2.4501,0.0,0.0,0.0,0.0,0.0,0.0,0.0,0.0,0.0,0.0,0.0,0.0,0.0,0.0,0.0,0.0,0.0,0.0,0.0,0.0,0.0,0.0,0.0,0.0,0.0,0.0,0.0,0.0,2.0408,2.0613,2.0874,0.0,0.0,0.0,0.0,0.0,0.0,0.0,0.0,0.0,0.0,2.7903,2.8959,2.9852,3.0561,3.0922,3.099,3.0878,3.0578,3.0028,2.9298,2.8436,0.0,0.0,0.0,0.0,0.0,0.0,0.0,0.0,0.0,0.0,0.0,0.0,0.0,0.0,0.0,0.0,0.0,0.0,0.0,0.0,0.0,0.0,0.0,0.0,0.0,0.0,0.0,0.0,0.0,0.0,1.7594,0.0,0.0,0.0,0.0,0.0,0.0,0.0,0.0,0.0,0.0,0.0,0.0,0.0,0.0,0.0,0.0,0.0,0.0,0.0,0.0,0.0,0.0,2.0311,2.1483,2.2586,2.3432,2.4136,2.4749,2.5078,2.5117,2.4794,2.4363,2.3905,0.0,0.0,0.0,0.0,0.0,0.0,0.0,0.0,0.0,0.0,0.0,0.0,0.0,0.0,0.0,0.0,0.0,0.0,0.0,0.0,0.0,0.0,0.0,0.0,0.0,0.0,2.1106,2.173,2.2003,0.0,0.0,0.0,0.0,0.0,0.0,0.0,0.0,0.0,0.0,2.6931,2.8059,2.8801,2.9694,3.0375,3.0628,3.0691,3.0673,3.0654,2.9684,2.8927,0.0,0.0,0.0,0.0,0.0,0.0,0.0,0.0,0.0,0.0,0.0,0.0,0.0,0.0,0.0,0.0,0.0,0.0,0.0,0.0,0.0,0.0,0.0,0.0,0.0,0.0,0.0,2.041,2.0033,0.0,0.0,0.0,0.0,0.0,0.0,0.0,0.0,0.0,0.0,0.0,2.2037,2.2063,0.0,0.0,0.0,0.0,0.0,0.0,0.0,0.0,0.0,0.0,0.0,0.0,2.1042,2.1594,2.3006,2.3998,2.4426,2.4866,2.5107,2.5066,2.473,2.4222,2.3607,0.0,0.0,0.0,0.0,0.0,0.0,0.0,0.0,0.0,0.0,0.0,0.0,0.0,0.0,0.0,0.0,0.0,0.0,0.0,0.0,0.0,0.0,0.0,0.0,0.0,2.0838,0.0,0.0,0.0,0.0,0.0,0.0,0.0,0.0,0.0,0.0,0.0,2.5121,2.6079,2.7056,2.7926,2.8661,2.9261,2.968,0.0,0.0,0.0,0.0,0.0,0.0,0.0,0.0,0.0,0.0,0.0,0.0,0.0,0.0,2.616,2.5931,2.5959,2.5993,2.5993,0.0,0.0,0.0,0.0,0.0,0.0,0.0,0.0,0.0,0.0,0.0,0.0,0.0,0.0,2.2266,0.0,2.1155,0.0,0.0,0.0,0.0,0.0,0.0,0.0,0.0,2.2346,2.2863,2.3629,2.3419,2.3425,0.0,2.3314,2.2282,0.0,0.0,0.0,0.0,0.0,0.0,0.0,0.0,2.1472,2.1975,2.3271,2.4195,2.4734,2.4983,2.5143,2.5241,2.4758,2.4324,2.397,2.3776,2.3375,0.0,0.0,0.0,0.0,0.0,0.0,0.0,0.0,0.0,0.0,0.0,0.0,0.0,0.0,0.0,0.0,0.0,0.0,0.0,0.0,0.0,0.0,0.0,2.1395,0.0,0.0,0.0,0.0,0.0,0.0,0.0,0.0,0.0,2.3886,2.4678,2.5492,2.6161,2.7055,2.7809,2.8304,0.0,0.0,0.0,0.0,0.0,0.0,0.0,2.834,2.7838,2.7495,2.7234,2.6985,2.7046,2.714,2.714,0.0,0.0,2.6675,2.6669,2.6747,2.6747,2.7182,2.7526,2.7526,2.7901,2.8349,0.0,0.0,0.0,0.0,0.0,0.0,0.0,0.0,2.4479,2.4148,0.0,2.2933,0.0,0.0,0.0,0.0,0.0,2.1979,0.0,0.0,2.3324,2.384,2.4564,2.4576,2.4539,2.4539,2.4235,2.3688,2.2973,2.1593,0.0,0.0,0.0,0.0,0.0,0.0,2.1648,2.2617,2.332,2.4115,2.5071,2.5115,2.5276,2.5476,2.4864,2.4658,2.4919,2.4286,2.387,2.3695,2.2891,0.0,0.0,0.0,0.0,0.0,0.0,0.0,0.0,0.0,0.0,0.0,0.0,0.0,0.0,0.0,0.0,0.0,0.0,0.0,0.0,2.1911,0.0,0.0,0.0,0.0,0.0,0.0,0.0,0.0,0.0,0.0,2.4614,2.5364,2.5929,2.6003,0.0,0.0,0.0,0.0,2.8854,2.9149,2.9215,2.9215,2.9198,2.863,2.8166,2.8166,0.0,0.0,2.7032,2.7348,2.7598,2.7631,2.7881,2.7931,2.7084,2.7234,2.7435,2.7455,2.8009,2.8472,2.8556,2.9104,2.9658,2.9911,0.0,0.0,0.0,0.0,2.6579,2.6499,2.6404,2.6633,2.6167,2.5166,2.4665,0.0,0.0,0.0,0.0,0.0,0.0,2.4077,2.4754,2.4859,2.5298,2.5983,2.5731,2.5725,2.5972,2.5619,2.4987,2.4164,2.3716,2.2564,2.0746,0.0,0.0,0.0,0.0,2.2676,2.2995,2.4092,2.491,2.5374,2.5622,2.5681,2.55,2.5119,2.4853,2.4641,2.4673,2.4406,2.3873,2.3519,0.0,0.0,0.0,0.0,0.0,0.0,0.0,0.0,0.0,0.0,0.0,0.0,0.0,0.0,0.0,0.0,0.0,0.0,0.0,2.209,2.2254,2.2403,0.0,0.0,0.0,0.0,0.0,0.0,0.0,0.0,0.0,2.5548,2.5816,2.5993,0.0,0.0,2.7009,2.7233,2.7476,2.7639,2.7698,2.7713,0.0,0.0,2.7551,2.7512,2.771,2.7775,2.7762,2.7797,2.7868,2.7954,2.7938,2.8044,2.8045,2.7843,2.7846,2.8063,2.8295,2.8727,2.9144,2.9394,2.9848,3.022,3.2456,3.042,2.8763,2.8197,2.839,2.8334,2.8127,2.7906,2.8315,2.7843,2.6692,2.6155,2.5546,2.4854,2.4327,0.0,0.0,0.0,2.5341,2.59,2.6048,2.6476,2.7115,2.6773,2.6718,2.6933,2.6569,2.5957,2.5148,2.503,2.4265,2.2961,0.0,0.0,2.1743,2.2912,2.3573,2.3752,2.4715,2.5461,2.5866,2.5939,2.5822,2.55,2.524,2.5011,2.4734,2.4787,2.458,2.4003,2.377,2.3157,0.0,0.0,0.0,0.0,0.0,0.0,0.0,0.0,0.0,0.0,0.0,2.0366,2.0643,0.0,0.0,0.0,2.1869,2.2325,2.2545,2.2659,0.0,0.0,0.0,0.0,0.0,0.0,0.0,2.5014,2.5549,2.5973,2.6179,2.6525,2.6694,2.6485,2.677,2.7129,2.7407,0.0,2.7728,2.7865,2.7895,2.7895,2.7895,2.7736,2.7668,2.7683,2.7892,2.8012,2.8027,2.8174,2.8233,2.8285,2.838,2.8505,2.8505,2.8533,2.8544,2.8675,2.9209,2.9777,3.0134,3.0631,3.1046,3.4488,3.3532,3.1219,3.0192,3.0103,2.985,2.953,2.9224,2.959,2.9202,2.8183,2.7521,2.7022,2.6543,2.5876,0.0,2.5581,2.5975,2.6326,2.6645,2.6928,2.7397,2.7948,2.7681,2.751,2.7533,2.7203,2.6749,2.6135,2.5842,2.5505,2.5173,2.3969,2.3193,2.2886,2.3735,2.4349,2.4675,2.5286,2.588,2.6515,2.6158,2.5836,2.5544,2.5276,2.5073,2.5077,2.48,2.4449,2.4145,2.3737,2.3209,2.2502,0.0,0.0,0.0,0.0,0.0,0.0,0.0,0.0,0.0,0.0,0.0,0.0,0.0,0.0,0.0,2.2346,0.0,2.2846,2.3155,0.0,0.0,0.0,2.4434,2.4464,2.4804,2.5172,2.5522,0.0,0.0,2.6598,2.7397,2.7754,2.7203,2.7421,2.7725,2.7962,2.8243,2.8653,2.8843,2.8934,2.8987,2.8791,2.8574,2.8304,2.7995,2.797,2.8022,2.8075,2.8331,2.8581,2.8596,2.8913,2.9169,2.9169,2.9154,2.9063,2.8796,2.9536,3.0393,3.0741,3.1307,3.182,3.4697,3.3874,3.2953,3.1993,3.0988,3.0936,3.0513,2.9902,3.0249,2.9912,2.9127,2.8786,2.81,2.7244,2.7092,2.7015,2.7011,2.7361,2.7578,2.7631,2.7666,2.776,2.7945,2.7847,2.7794,2.7794,2.7721,2.751,2.7144,2.7093,2.672,2.6164,2.5842,2.5286,2.4558,2.4949,2.5227,2.5266,2.5944,2.6471,2.6837,2.631,2.5974,2.5866,2.5379,2.509,2.5069,2.4788,2.4563,2.4479,2.3917,2.3393,2.2963,2.2553,0.0,0.0,0.0,0.0,0.0,0.0,0.0,0.0,0.0,2.1295,2.1818,0.0,2.2571,0.0,2.2768,2.3253,2.339,2.3655,0.0,0.0,2.444,2.4858,2.4856,2.5637,2.6206,2.6261,2.6849,2.7254,2.7268,2.7651,2.7989,2.8025,2.7909,2.7843,2.793,2.7982,2.8087,2.8213,2.8243,2.8175,2.8257,2.8344,2.8391,2.8291,2.8467,2.8666,2.8666,2.8964,2.9189,2.9203,2.9473,2.9661,2.9685,2.973,2.9685,2.9621,2.9895,3.0354,3.0884,3.118,3.1369,3.4861,3.388,3.3422,3.2723,3.1818,3.1551,3.1207,3.0761,3.0807,3.048,2.9907,2.946,2.8806,2.8111,2.8096,2.8111,2.8141,2.8497,2.8606,2.862,2.8729,2.8798,2.8798,2.8651,2.8593,2.854,2.8262,2.8043,2.7905,2.7759,2.7458,2.7108,2.7108,2.6845,2.6354,2.6091,2.5924,2.5939,2.6457,2.6808,2.6969,2.65,2.6129,2.5982,2.5535,2.5232,2.5086,2.4653,2.4378,2.4381,2.3726,2.3293,2.3112,2.2702,2.2345,0.0,0.0,0.0,0.0,0.0,0.0,0.0,0.0,0.0,0.0,0.0,2.3163,2.3025,2.3424,2.3794,2.3987,2.4304,2.4528,2.4647,2.5277,2.5722,2.5658,2.6461,2.6984,2.6955,2.7511,2.7969,2.8104,2.8388,2.871,2.9032,2.8915,2.8657,2.8417,2.8321,2.8335,2.8359,2.8335,2.8335,2.8335,2.852,2.8598,2.8666,2.89,2.9105,2.912,2.9408,2.9628,2.9643,2.9789,2.9906,2.9906,2.9906,2.9936,3.0079,3.0154,3.0425,3.0967,3.1204,3.1371,3.4886,3.3762,3.3377,3.2933,3.25,3.1938,3.1679,3.1619,3.129,3.0962,3.0509,2.9851,2.9354,2.9056,2.9017,2.9017,2.9032,2.935,2.9481,2.9456,2.9774,2.9906,2.9892,2.9613,2.9442,2.9452,2.8827,2.8511,2.8511,2.8189,2.8014,2.797,2.797,2.7955,2.7882,2.7078,2.6691,2.6691,2.6925,2.7056,2.7042,2.6691,2.6369,2.6076,2.569,2.5403,2.5159,2.4529,2.4177,2.4148,2.3562,2.3212,2.3228,2.2886,2.2717,0.0,2.2427,0.0,0.0,0.0,0.0,0.0,0.0,0.0,0.0,2.3354,2.3718,2.4112,2.4252,2.4374,2.4624,2.5029,2.5372,2.5621,2.6287,2.6668,2.6687,2.7167,2.7548,2.7643,2.8125,2.8608,2.89,2.9276,2.9584,2.9789,2.9804,2.9599,2.9134,2.9017,2.9017,2.9056,2.8973,2.89,2.8842,2.8856,2.8886,2.8959,2.9164,2.9383,2.9467,2.9745,2.9965,2.998,3.0024,3.0053,3.0024,3.0038,3.0141,3.0405,3.046,3.0568,3.0885,3.1186,3.1619,3.4709,3.3901,3.3812,3.3353,3.272,3.2321,3.2025,3.1775,3.1716,3.1307,3.0739,3.0624,3.0232,2.9731,2.9716,2.9716,2.9716,2.9789,2.9804,2.9818,2.9877,2.9906,2.9892,2.9833,2.9818,2.9789,2.9423,2.9193,2.9193,2.8871,2.8593,2.8306,2.8306,2.8174,2.7926,0.0,0.0,0.0,2.7481,2.743,2.7401,2.6808,2.6471,2.6398,2.5792,0.0,2.5383,2.4851,2.4499,2.4499,2.4122,0.0,0.0,0.0,0.0,0.0,0.0,0.0,0.0,0.0,0.0,0.0,2.4308,2.399,2.3825,2.4094,2.4445,2.4865,2.51,2.5251,2.5291,2.5853,2.627,2.6308,2.6894,2.7313,2.7328,2.7614,2.7928,2.8189,2.8578,2.893,2.9266,2.9613,2.9833,2.9921,2.9906,2.9862,2.9745,2.9701,2.9701,2.9701,2.9481,2.9232,2.893,2.8915,2.9032,2.9208,2.9364,2.9525,2.9774,3.0082,3.0287,3.0302,3.0466,3.0627,3.0627,3.0642,3.0627,3.0715,3.0729,3.0729,3.0812,3.0895,3.0966,3.4592,0.0,3.3619,3.3323,0.0,3.2661,3.2471,3.2251,3.1929,3.1607,3.13,3.13,3.1124,3.0803,3.0656,3.0624,3.061,3.0407,3.0334,3.0334,3.0334,3.0334,3.0334,3.0214,3.0141,3.0126,2.9818,2.9657,2.9643,2.9481,2.9247,2.89,2.89,2.8739,2.8394,2.8379,2.8233,2.7911,2.7751,2.7627,2.7503,2.7196,2.6837,2.65,2.6179,0.0,0.0,0.0,0.0,0.0,0.0,0.0,0.0,2.4517,0.0,2.4583,2.4565,2.454,2.454,2.454,2.4749,2.5193,2.5385,2.5278,2.4791,2.4878,2.5155,2.5495,2.5829,2.6076,2.6252,2.6705,2.7042,2.7181,2.751,2.7759,2.7949,2.8227,2.8549,2.8856,2.9178,2.954,2.9862,3.0024,3.0214,3.032,3.0334,3.0334,3.0305,3.0097,2.9906,2.9892,2.9789,2.9613,2.9412,2.9408,2.9412,2.9628,2.9789,2.995,3.0111,3.0419,3.0583,3.0598,3.0715,3.0776,3.0776,3.0776,3.0776,3.0776,3.0776,3.0776,3.0776,3.0776,3.0776,3.4463,3.3757,3.3479,3.3333,3.326,3.3056,3.291,3.2852,0.0,0.0,0.0,3.1885,3.1841,3.1783,3.152,3.1402,3.1388,3.1124,3.0964,3.0905,3.0863,3.0834,3.0803,3.0595,3.0478,3.0463,3.0141,2.9994,2.998,2.9936,2.976,2.9525,2.9511,2.9364,2.9076,2.91,2.8812,2.8277,2.8087,2.7868,2.7656,2.7598,2.7276,2.6691,2.6617,2.631,2.5725,2.5403,2.5144,2.4847,2.4851,2.4866,2.4866,2.5115,2.5261,2.5261,2.5261,2.5261,2.5261,2.5305,2.5511,2.5807,2.6427,2.6457,2.5719,2.5778,2.5988,2.6252,2.6574,2.6866,2.7144,2.7452,2.7744,2.797,2.8043,2.8218,2.8525,2.8812,2.909,2.9427,2.9774,3.0082,3.0317,3.0434,3.0566,3.0744,3.0773,3.0776,3.0759,3.0393,3.0097,3.0038,3.0009,2.998,2.9906,2.9862,2.9921,2.998,3.0199,3.0405,3.0507,3.0642,3.0761,3.0746,3.0776,3.0776,3.0776,3.0776,3.0776,3.0776,3.0776,3.0776,3.0776,3.0776,3.0776,3.4493,3.4093,3.411,3.3919,3.3611,3.3612,3.3391,3.3144,3.2778,3.2529,3.2222,3.2222,3.2061,3.1798,3.1754,3.1739,3.1724,3.1681,3.152,3.1242,3.1242,3.1095,3.079,3.0773,3.0759,3.0688,3.0463,3.0331,3.0302,3.0053,2.9877,2.9848,2.9833,2.9804,2.9774,2.9774,2.9731,2.9613,2.8783,2.8306,2.8262,2.7984,2.7715,2.7349,2.7071,2.6749,2.6369,2.6047,2.5857,2.5813,2.5813,2.5813,2.5813,2.5836,2.5886,2.5886,2.5886,2.5886,2.5866,2.6149,2.6559,2.7181,2.7539,2.7327,2.6486,2.6881,2.7254,2.7276,2.7488,2.7721,2.7794,2.8057,2.8277,2.835,2.8608,2.8886,2.9178,2.9295,2.9496,2.9804,3.0126,3.0331,3.0419,3.0583,3.0703,3.0761,3.0692,3.0734,3.0678,3.0717,3.0583,3.039,3.0317,3.0214,3.0038,2.9906,3.0012,3.0287,3.032,3.0384,3.0561,3.0649,3.0692,3.079,3.0692,3.0734,3.0734,3.0776,3.0692,3.0692,3.0692,3.0692,3.0692,3.0692,3.0776,3.4622,3.4461,3.43,3.4124,3.3932,3.3802,3.3596,3.3435,3.3158,3.2851,3.2559,3.2588,3.2515,3.231,3.2134,3.2061,3.2046,3.1871,3.171,3.1578,3.1578,3.149,3.1359,3.1359,3.1256,3.1039,3.0949,3.0773,3.0612,3.0451,3.0331,3.017,2.9994,2.9906,2.9906,2.9906,2.9906,2.9892,2.9251,2.8856,2.8681,2.8335,2.8014,2.7744,2.7546,2.7364,2.7042,2.6896,2.6735,2.6544,2.6705,2.6808,2.6822,2.6969,2.7035,2.702,2.7035,2.702,2.7035,2.7166,2.7385,2.7678,2.7999,2.7999,2.7546,2.7656,2.773,2.7744,2.7984,2.8174,2.8189,2.8467,2.8754,2.893,2.9076,2.9281,2.9643,2.9848,3.0009,3.017,3.0448,3.0598,3.0598,3.0536,3.0457,3.0457,3.029,3.0109,3.0109,3.0109,3.0232,3.0517,3.0639,3.0554,3.0407,3.0188,3.0178,3.0267,3.0074,3.0007,3.0094,3.0109,3.0109,3.0123,3.0123,3.0109,3.0109,3.0109,3.0109,3.0067,3.0109,3.0109,3.0109,3.029,3.054,3.4768,3.468,3.4432,3.4329,3.43,3.3932,3.3786,3.3802,3.345,3.3172,3.2983,3.2881,3.2808,3.2778,3.25,3.2398,3.2368,3.2134,3.1973,3.1915,3.1915,3.1871,3.1798,3.1798,3.1666,3.1446,3.1417,3.1285,3.1024,3.0936,3.0773,3.0507,3.0203,3.0071,3.0126,3.0126,3.0086,3.0097,2.9764,2.9452,2.9003,2.8769,2.8423,2.8057,2.8028,2.7882,2.7613,2.7583,2.7466,2.7247,2.7452,2.7621,2.7598,2.778,2.7911,2.7911,2.7911,2.7941,2.7976,2.8028,2.8057,2.8131,2.8364,2.8496,2.8481,2.835,2.8189,2.8174,2.8364,2.8525,2.8627,2.8856,2.9134,2.9442,2.9406,2.9457,2.9818,2.9999,3.0146,3.0219,3.0381,3.0484,3.0457,3.0248,3.0054,2.9998,2.9747,2.9537,2.9537,2.9537,2.9816,3.0234,3.0484,3.0428,3.0484,3.022,3.0011,3.0039,2.9774,2.9593,2.9565,2.9523,2.9537,2.9579,2.9579,2.9565,2.9537,2.9537,2.9565,2.9607,2.9607,2.9565,2.9607,2.983,3.0206,3.5006,3.4724,3.4666,3.4666,3.4607,3.4254,3.4183,3.4093,3.3832,3.3625,3.3583,3.3027,3.2837,3.2808,3.2778,3.2749,3.2749,3.2734,3.2558,3.2251,3.2237,3.209,3.1841,3.1812,3.1783,3.1754,3.1754,3.1724,3.1637,3.1388,3.1068,3.0817,3.0744,3.0729,3.0729,3.0729,3.0729,3.0729,3.0463,2.9994,2.9369,2.931,2.9003,2.8379,2.8364,2.8204,2.7926,2.7868,2.7868,2.7838,2.7853,2.7882,2.7882,2.7911,2.7926,2.7926,2.7926,2.8043,2.8321,2.835,2.8481,2.8769,2.8803,2.8832,2.8847,2.909,2.912,2.8861,2.8788,2.8949,2.9251,2.927,2.9391,2.9643,2.9419,2.9346,2.9592,2.9376,2.9241,2.9537,2.9704,2.9649,2.9691,2.9649,2.9565,2.9495,2.9439,2.9356,2.9356,2.9356,2.9356,2.9565,2.9607,2.9649,2.9649,2.9607,2.9579,2.9565,2.9523,2.9398,2.9356,2.9411,2.9495,2.9272,2.9398,2.9356,2.9411,2.9495,2.9453,2.9314,2.9356,2.9481,2.9481,2.9523,2.9816,3.5137,3.5006,3.4783,3.471,3.468,3.4563,3.4505,3.4475,3.4107,3.3976,3.3917,3.3539,3.3232,3.3041,3.2851,3.2808,3.2808,3.2808,3.2749,3.2573,3.2617,3.2544,3.2427,3.2412,3.228,3.2105,3.2076,3.1988,3.1812,3.1666,3.152,3.1417,3.1402,3.1315,3.1124,3.1068,3.1022,3.079,3.07,3.0407,3.0024,2.9804,2.9584,2.931,2.9281,2.912,2.8842,2.8798,2.871,2.852,2.8467,2.8467,2.8505,2.8505,2.8505,2.8467,2.8274,2.8062,2.7958,2.809,2.8261,2.8414,2.8585,2.8659,2.8659,2.8787,2.8828,2.8728,2.8899,2.905,2.891,2.8899,2.8972,2.9298,2.9206,2.921,2.9548,2.9424,2.9355,2.9509,2.9537,2.9495,2.9439,2.9272,2.902,2.881,2.8726,2.8768,2.8726,2.8726,2.8726,2.8726,2.8726,2.8978,2.9314,2.9244,2.9118,2.9076,2.8852,2.8726,2.8768,2.8726,2.874,2.8768,2.881,2.8768,2.8684,2.8726,2.8726,2.8768,2.8768,2.881,2.902,2.9076,2.9411,3.5357,3.5167,3.4827,3.471,3.471,3.471,3.471,3.468,3.4446,3.4251,3.4083,3.3778,3.341,3.3059,3.2817,3.2688,3.2557,3.2454,3.2409,3.2409,3.2409,3.2409,3.2409,3.2409,3.2293,3.2047,3.2018,3.1845,3.157,3.1584,3.1498,3.1425,3.1396,3.1295,3.1078,3.1064,3.089,3.0559,3.0531,3.0428,3.0151,2.992,2.9798,2.9881,2.9906,2.9749,2.937,2.9355,2.9159,2.8809,2.8795,2.8795,2.8795,2.8722,2.866,2.8563,2.8361,2.8089,2.7759,2.8053,2.8221,2.8235,2.8391,2.8517,2.8531,2.8587,2.8561,2.8479,2.8849,2.8918,2.8738,2.8643,2.8768,2.9103,2.9021,2.9049,2.9286,2.923,2.909,2.9146,2.9076,2.9146,2.9104,2.8866,2.8529,2.8305,2.8234,2.8192,2.8192,2.8234,2.8221,2.8192,2.8221,2.8487,2.8978,2.8852,2.8655,2.8613,2.8389,2.8263,2.8192,2.8234,2.8234,2.8431,2.8263,2.8221,2.8347,2.8305,2.8221,2.8221,2.8221,2.8305,2.8571,2.8655,2.8824,3.5719,3.5196,3.4841,3.4739,3.471,3.4677,3.471,3.4663,3.4619,3.4338,3.3891,3.3633,3.3212,3.2728,3.2603,3.2355,3.2009,3.1638,3.1519,3.1519,3.1505,3.1418,3.1374,3.1374,3.1418,3.1479,3.1479,3.1324,3.1028,3.0985,3.0786,3.0534,3.0591,3.0492,3.0507,3.055,3.028,3.0085,3.0029,2.9846,2.9621,2.9565,2.9627,2.9847,2.9921,2.9653,2.9246,2.9205,2.9015,2.8542,2.8554,2.8528,2.8514,2.8316,2.8035,2.7771,2.7967,2.8081,2.8069,2.824,2.8408,2.8448,2.8437,2.8504,2.8492,2.8701,2.8662,2.8345,2.8605,2.8813,2.8882,2.884,2.8979,2.9258,2.9034,2.8838,2.8824,2.8571,2.8305,2.8318,2.8403,2.8389,2.8305,2.8276,2.8276,2.8221,2.8192,2.8192,2.8192,2.8192,2.8192,2.8192,2.8192,2.8234,2.8276,2.8347,2.8305,2.8263,2.8305,2.8192,2.8192,2.8192,2.8192,2.8192,2.8192,2.8192,2.8192,2.8192,2.8221,2.8192,2.8192,2.8276,2.8361,2.8276,2.8431,3.5866,3.5518,3.5401,3.524,3.5002,3.4657,3.4399,3.4165,3.3883,3.3648,3.3478,3.3347,3.3084,3.2687,3.2352,3.2179,3.2081,3.1931,3.1886,3.1886,3.1886,3.1886,3.1886,3.1886,3.176,3.1637,3.1609,3.1455,3.1189,3.1161,3.1105,3.1021,3.0993,3.0895,3.0741,3.0699,3.0545,3.0208,2.9999,2.9831,2.9733,2.9579,2.9536,2.9629,2.9656,2.9474,2.9111,2.907,2.889,2.8531,2.8517,2.8517,2.8503,2.8405,2.8186,2.7861,2.7904,2.7878,2.7662,2.7867,2.7989,2.8002,2.8179,2.8302,2.8329,2.8424,2.8408,2.8296,2.8308,2.8448,2.8477,2.8479,2.8519,2.8615,2.8529,2.8445,2.8403,2.8276,2.8192,2.8192,2.8192,2.8192,2.8192,2.8192,2.8192,2.8192,2.8192,2.8192,2.8192,2.8192,2.8192,2.8192,2.8192,2.8192,2.8192,2.8234,2.8179,2.8179,2.8192,2.8192,2.8192,2.8192,2.8192,2.8192,2.8192,2.8192,2.8192,2.8192,2.8192,2.8192,2.8192,2.8192,2.8192,2.8192,2.8263,3.5997,3.5792,3.5545,3.5323,3.5023,3.4431,3.4036,3.3776,3.3394,3.313,3.2974,3.2941,3.2628,3.2134,3.1792,3.159,3.156,3.1674,3.1762,3.1762,3.1762,3.1716,3.1716,3.1578,3.1423,3.1172,3.0972,3.0718,3.0542,3.0433,3.0392,3.0379,3.0392,3.0373,3.0342,3.0345,3.0252,3.0081,2.9874,2.9737,2.9626,2.9433,2.9268,2.9228,2.9214,2.9118,2.8938,2.8924,2.8786,2.8469,2.84,2.8359,2.8276,2.8248,2.8085,2.7744,2.7771,2.7743,2.7524,2.771,2.7884,2.7884,2.8058,2.8192,2.8192,2.8192,2.8192,2.8192,2.8192,2.8192,2.8192,2.8221,2.8192,2.8192,2.8192,2.8192,2.8192,2.8192,2.8192,2.8192,2.8192,2.8192,2.8192,2.8192,2.8192,2.8192,2.8192,2.8192,2.8192,2.8192,2.8192,2.8192,2.8192,2.8192,2.8192,2.8192,2.8192,2.8192,2.8192,2.8192,2.8192,2.8192,2.8192,2.8192,2.8192,2.8192,2.8192,2.8192,2.8192,2.8192,2.8192,2.8192,2.8192,2.8192,2.8263,3.608,3.5939,3.5246,3.4952,3.4784,3.4013,3.3605,3.3555,3.3222,3.2733,3.2327,3.2313,3.1732,3.1067,3.0946,3.0674,3.0402,3.0716,3.0889,3.0889,3.0875,3.0862,3.0829,3.0425,3.0214,3.0089,2.9356,2.9044,2.9156,2.897,2.8783,2.8635,2.8758,2.9034,2.9214,2.9309,2.9338,2.9482,2.9507,2.9343,2.9028,2.9078,2.8931,2.8717,2.869,2.8769,2.8823,2.8768,2.8601,2.8251,2.8223,2.8073,2.786,2.782,2.7617,2.7497,2.7603,2.7724,2.7736,2.7991,2.8138,2.8192,2.8205,2.8245,2.8299,2.8259,2.8232,2.8245,2.8205,2.8192,2.8192,2.8192,2.8192,2.8192,2.8192,2.8192,2.8192,2.8192,2.8192,2.8192,2.8192,2.8192,2.8192,2.8192,2.8192,2.8192,2.8192,2.8192,2.8192,2.8192,2.8192,2.8192,2.8192,2.8192,2.8192,2.8192,2.8192,2.8192,2.8192,2.8192,2.8192,2.8192,2.8192,2.8192,2.8192,2.8192,2.8192,2.8192,2.8192,2.8192,2.8192,2.8192,2.8192,2.8192,2.8192,3.5662,3.5352,3.5104,3.4836,3.4555,3.4004,3.3498,3.303,3.2285,3.1707,3.1358,3.0985,3.0652,3.0414,3.0379,3.0271,3.0102,3.0269,3.0299,3.0286,3.0333,3.032,3.0286,3.0144,2.996,2.9755,2.9394,2.9174,2.9123,2.8848,2.8767,2.8729,2.8576,2.8565,2.8725,2.8732,2.8905,2.923,2.9122,2.911,2.9282,2.9108,2.8948,2.8881,2.8855,2.8901,2.8923,2.8576,2.8332,2.8192,2.8192,2.8138,2.8058,2.8045,2.8005,2.7938,2.7991,2.8045,2.8058,2.8138,2.8286,2.8446,2.8457,2.8577,2.8698,2.8564,2.847,2.843,2.8326,2.8192,2.8192,2.8192,2.8205,2.8192,2.8192,2.8192,2.8192,2.8192,2.8192,2.8192,2.8192,2.8192,2.8192,2.8192,2.8192,2.8192,2.8192,2.8192,2.8192,2.8192,2.8192,2.8192,2.8192,2.8192,2.8192,2.8192,2.8192,2.8192,2.8192,2.8192,2.8192,2.8192,2.8192,2.8192,2.8192,2.8192,2.8192,2.8192,2.8192,2.8192,2.8192,2.8192,2.8192,2.8192,2.8192,3.5309,3.5011,3.4812,3.4601,3.4259,3.357,3.2969,3.2509,3.1473,3.0892,3.0702,3.0322,2.9984,2.9889,2.9841,2.9698,2.9567,2.9554,2.9507,2.965,2.9984,3.008,3.008,2.9889,2.9623,2.9292,2.903,2.8893,2.8881,2.8631,2.8482,2.8457,2.8319,2.8336,2.8448,2.8405,2.8582,2.8983,2.8975,2.9099,2.934,2.9371,2.9268,2.9175,2.9205,2.9138,2.8988,2.8657,2.846,2.8353,2.8259,2.8192,2.8192,2.8179,2.8192,2.8192,2.8192,2.8219,2.8326,2.8366,2.8486,2.8698,2.8764,2.8788,2.8921,2.8801,2.8721,2.8724,2.8604,2.847,2.8526,2.8526,2.8473,2.8353,2.8245,2.8192,2.8192,2.8192,2.8192,2.8192,2.8192,2.8192,2.8192,2.8192,2.8192,2.8192,2.8192,2.8192,2.8192,2.8192,2.8192,2.8192,2.8192,2.8192,2.8192,2.8192,2.8192,2.8192,2.8192,2.8192,2.8192,2.8192,2.8192,2.8192,2.8192,2.8192,2.8192,2.8192,2.8192,2.8192,2.8192,2.8192,2.8192,2.8192,2.8192,3.4911,3.4812,3.4313,3.4,3.381,3.2736,3.2244,3.1991,3.1025,3.0539,3.0451,3.0066,2.9748,2.9461,2.9352,2.9136,2.8716,2.8716,2.8764,2.8956,2.9471,2.9841,2.9793,2.9519,2.9124,2.8739,2.8438,2.8329,2.8399,2.8109,2.7836,2.7917,2.7915,2.802,2.826,2.8205,2.8344,2.8772,2.8964,2.906,2.9169,2.956,2.9677,2.9437,2.9455,2.9406,2.9161,2.8985,2.8811,2.8631,2.839,2.8326,2.8259,2.8232,2.8299,2.8312,2.8259,2.8419,2.8564,2.8631,2.8751,2.9018,2.9028,2.9028,2.9108,2.9081,2.9015,2.9015,2.8948,2.8935,2.8935,2.8921,2.8815,2.8644,2.8379,2.8205,2.8192,2.8192,2.8192,2.8192,2.8192,2.8192,2.8192,2.8192,2.8192,2.8192,2.8192,2.8192,2.8192,2.8192,2.8192,2.8192,2.8192,2.8192,2.8192,2.8192,2.8192,2.8192,2.8192,2.8192,2.8192,2.8192,2.8192,2.8192,2.8192,2.8192,2.8192,2.8192,2.8192,2.8192,2.8192,2.8192,2.8192,2.8192,2.8192,3.3964,3.3263,3.3063,3.2812,3.241,3.2031,3.1777,3.1549,3.0863,3.0453,3.018,2.9554,2.9286,2.908,2.8897,2.8716,2.8632,2.8572,2.8572,2.862,2.8812,2.9004,2.8992,2.8908,2.8764,2.8608,2.8488,2.8512,2.85,2.8222,2.8101,2.8089,2.7932,2.7882,2.7927,2.795,2.8023,2.8277,2.8361,2.8516,2.8725,2.915,2.9335,2.9315,2.957,2.9708,2.9571,2.9106,2.8868,2.8908,2.8871,2.8804,2.8721,2.8678,2.8665,2.8665,2.8735,2.8775,2.8855,2.8881,2.9028,2.9325,2.9366,2.9459,2.9659,2.9486,2.9392,2.9325,2.9148,2.9015,2.9015,2.9015,2.8948,2.8885,2.854,2.8232,2.8205,2.8192,2.8192,2.8192,2.8192,2.8192,2.8192,2.8192,2.8192,2.8192,2.8192,2.8192,2.8192,2.8192,2.8192,2.8192,2.8192,2.8192,2.8192,2.8192,2.8192,2.8192,2.8192,2.8205,2.8192,2.8192,2.8192,2.8192,2.8192,2.8192,2.8192,2.8192,2.8192,2.8192,2.8192,2.8192,2.8192,2.8192,2.8192,3.3013,3.2259,3.2259,3.2058,3.1769,3.1567,3.1365,3.1127,3.0552,3.018,2.9934,2.9444,2.9175,2.9151,2.891,2.8741,2.8729,2.8669,2.8572,2.8572,2.862,2.862,2.862,2.8572,2.8572,2.8572,2.8572,2.8572,2.8596,2.8451,2.8391,2.8367,2.8187,2.8162,2.8162,2.8017,2.8002,2.8111,2.81,2.8186,2.8347,2.8706,2.8867,2.8957,2.9195,2.9285,2.9259,2.8891,2.8676,2.8658,2.8509,2.8422,2.8422,2.8435,2.8422,2.8435,2.8552,2.8766,2.8929,2.9087,2.9366,2.9593,2.9673,2.974,2.9847,2.9753,2.9659,2.9646,2.9486,2.9375,2.9379,2.9299,2.9188,2.9179,2.8804,2.8513,2.8406,2.8272,2.8205,2.8192,2.8192,2.8192,2.8192,2.8192,2.8192,2.8192,2.8192,2.8192,2.8192,2.8192,2.8192,2.8192,2.8299,2.8366,2.8417,2.8457,2.8497,2.847,2.8393,2.8366,2.8286,2.8259,2.8232,2.8232,2.8205,2.8205,2.8259,2.8259,2.8192,2.8192,2.8192,2.8192,2.8192,2.8192,2.8192,3.2209,3.1718,3.1718,3.1668,3.1517,3.1113,3.091,3.076,3.0211,2.9914,2.9829,2.9562,2.9453,2.9429,2.9175,2.9031,2.8982,2.8789,2.862,2.8596,2.8572,2.8572,2.8572,2.8572,2.8572,2.8572,2.8572,2.8572,2.856,2.856,2.856,2.8524,2.8524,2.8548,2.85,2.8355,2.8246,2.8171,2.8136,2.81,2.814,2.839,2.8549,2.8518,2.8577,2.8668,2.8565,2.8379,2.8233,2.8132,2.7856,2.7863,2.7806,2.775,2.7762,2.7876,2.8266,2.8507,2.8752,2.9083,2.9442,2.9654,2.9752,2.9869,2.9855,2.9873,2.986,2.986,2.9913,2.9833,2.9806,2.9646,2.9553,2.9472,2.9245,2.8965,2.8711,2.8404,2.8232,2.8219,2.8219,2.8192,2.8192,2.8192,2.8192,2.8192,2.8192,2.8192,2.8192,2.8192,2.8192,2.8192,2.8366,2.8564,2.8684,2.8761,2.8828,2.8841,2.8711,2.8604,2.8457,2.8433,2.8353,2.8339,2.85,2.8513,2.8446,2.8393,2.8339,2.8286,2.8353,2.8286,2.8205,2.8192,2.8192,3.1668,3.1163,3.1163,3.0923,3.0568,3.0416,3.0366,3.0354,3.0204,3.0105,3.0057,2.9827,2.9719,2.9695,2.9441,2.9224,2.9043,2.8922,2.8825,2.8584,2.8572,2.8572,2.8572,2.8572,2.8572,2.8572,2.8572,2.8572,2.8572,2.8572,2.8572,2.8572,2.8572,2.8572,2.856,2.8548,2.8403,2.8222,2.8206,2.8036,2.7937,2.8165,2.8247,2.812,2.8297,2.8455,2.8294,2.7739,2.7349,2.7456,2.7823,2.799,2.8009,2.8066,2.8022,2.8054,2.8258,2.8444,2.8552,2.8674,2.8892,2.9304,2.9362,2.9496,2.9869,2.9869,2.9869,2.9913,2.9913,2.9913,2.99,2.9873,2.9806,2.9726,2.9553,2.9366,2.9232,2.8818,2.8537,2.847,2.8353,2.8192,2.8192,2.8192,2.8192,2.8192,2.8192,2.8192,2.8192,2.8192,2.8192,2.8192,2.847,2.8711,2.8818,2.8935,2.9108,2.9135,2.8988,2.8895,2.8791,2.8684,2.8644,2.8724,2.8871,2.8818,2.8657,2.8738,2.8724,2.8617,2.8484,2.8446,2.8366,2.8286,2.8245,3.1113,3.0619,3.0619,3.0467,3.0214,3.0214,3.0214,3.0214,3.0214,3.0214,3.0189,3.0045,2.9996,2.996,2.9707,2.9441,2.9175,2.8922,2.8753,2.8596,2.8572,2.8572,2.8572,2.8572,2.8572,2.8572,2.8572,2.8572,2.8572,2.8572,2.8572,2.8572,2.8572,2.8572,2.8572,2.8572,2.8548,2.8308,2.7985,2.7759,2.7687,2.745,2.7449,2.7294,2.7381,2.7435,2.7367,2.6987,2.6698,2.6755,2.7051,2.7239,2.7175,2.7163,2.7163,2.7196,2.7649,2.7739,2.783,2.8249,2.8597,2.8835,2.8867,2.9015,2.9285,2.942,2.9541,2.9644,2.9734,2.9913,2.9913,2.9913,2.9913,2.99,2.978,2.9686,2.9593,2.9165,2.8761,2.8751,2.8551,2.843,2.8393,2.8299,2.8192,2.8192,2.8192,2.8192,2.8192,2.8192,2.8192,2.8286,2.8604,2.8845,2.8938,2.9081,2.9362,2.9392,2.9299,2.9245,2.9192,2.9098,2.9032,2.9098,2.9081,2.8988,2.8881,2.8975,2.9028,2.8868,2.8751,2.8617,2.8551,2.8564,2.8511,3.0619,3.0214,3.0214,3.0214,3.0214,3.0214,3.0214,3.0214,3.0214,3.0214,3.0214,3.0214,3.0177,3.0153,2.9972,2.9695,2.932,2.8886,2.8584,2.8584,2.8572,2.8572,2.8572,2.8572,2.8572,2.8572,2.8572,2.8572,2.8572,2.8572,2.8572,2.8572,2.8572,2.8476,2.8476,2.8476,2.8308,2.8116,2.7639,2.7402,2.7308,2.686,2.6615,2.637,2.6127,2.6151,2.6093,2.5917,2.5857,2.5926,2.5653,2.5451,2.5363,2.5525,2.5605,2.5696,2.647,2.6731,2.6912,2.7423,2.7933,2.8204,2.8249,2.8384,2.8565,2.888,2.9047,2.9227,2.942,2.9734,2.9824,2.9869,2.9913,2.9913,2.9913,2.9913,2.9833,2.9459,2.9202,2.9015,2.8858,2.8671,2.8524,2.8404,2.8312,2.8205,2.8205,2.8205,2.8219,2.8219,2.8245,2.8393,2.8711,2.9152,2.9299,2.9352,2.9619,2.9606,2.9526,2.9526,2.9526,2.9499,2.9406,2.9268,2.9242,2.9188,2.9202,2.9295,2.9268,2.9121,2.9015,2.8965,2.8925,2.8868,2.8818,3.0264,3.0214,3.0214,3.0214,3.0214,3.0214,3.0214,3.0214,3.0214,3.0214,3.0214,3.0214,3.0214,3.0189,3.0177,2.9876,2.9344,2.8862,2.8572,2.8572,2.8572,2.8572,2.8572,2.8572,2.8572,2.8572,2.8572,2.8524,2.8572,2.8572,2.8572,2.8572,2.8572,2.838,2.8043,2.7935,2.7791,2.755,2.718,2.7012,2.6942,2.6704,2.6303,2.5813,2.5338,2.5119,2.4934,2.4629,2.4372,2.4325,2.3973,2.38,2.4051,2.4888,2.5365,2.5445,2.5628,2.5834,2.596,2.6062,2.6573,2.7015,2.7335,2.7789,2.8241,2.8603,2.8744,2.8816,2.9028,2.9317,2.9317,2.9599,2.9824,2.9869,2.9913,2.9913,2.9887,2.9735,2.9593,2.9419,2.9152,2.8925,2.8791,2.8644,2.8511,2.8417,2.8419,2.8393,2.8393,2.8379,2.8379,2.8551,2.8818,2.9285,2.97,2.9726,2.9833,2.982,2.9766,2.9766,2.978,2.9833,2.9735,2.9575,2.9562,2.9659,2.9686,2.9673,2.9593,2.9459,2.9379,2.9312,2.9219,2.9081,2.9055,3.0214,3.0214,3.0214,3.0214,3.0214,3.0214,3.0214,3.0214,3.0214,3.0214,3.0214,3.0214,3.0214,3.0177,3.0045,2.9695,2.9212,2.8825,2.8632,2.8572,2.8572,2.8572,2.8572,2.8572,2.838,2.8272,2.8176,2.8332,2.8572,2.8572,2.8428,2.8236,2.8187,2.7935,2.755,2.7442,2.7297,2.7007,2.6573,2.6282,2.6186,2.5895,2.5276,2.4901,2.4565,2.4358,2.431,2.4166,2.4022,2.3954,2.368,2.3486,2.3612,2.391,2.4427,2.4463,2.4684,2.4917,2.5206,2.5392,2.5913,2.6561,2.6814,2.7161,2.7713,2.814,2.8498,2.8691,2.8648,2.8835,2.8835,2.9298,2.951,2.9599,2.9734,2.9869,2.9869,2.9869,2.9775,2.9584,2.9357,2.9158,2.9138,2.8978,2.8791,2.8684,2.8604,2.8564,2.8537,2.8564,2.8577,2.8804,2.9072,2.9419,2.9806,2.9873,2.9913,2.9913,2.9913,2.9913,2.9913,2.99,2.9913,2.9833,2.99,2.9913,2.9887,2.9793,2.9766,2.974,2.9673,2.9579,2.9432,2.9339,2.9282,3.0214,3.0214,3.0214,3.0214,3.0214,3.0214,3.0214,3.0214,3.0214,3.0214,3.0214,3.0214,3.0177,3.0057,2.9767,2.9393,2.8946,2.8741,2.8632,2.8572,2.8572,2.8572,2.8428,2.838,2.8128,2.7742,2.7694,2.7887,2.8091,2.8187,2.7983,2.7791,2.7646,2.7405,2.7019,2.6766,2.6814,2.6331,2.575,2.5227,2.4984,2.4351,2.3766,2.3668,2.3561,2.3443,2.317,2.3111,2.3121,2.3082,2.3013,2.2974,2.3137,2.3057,2.3016,2.3187,2.3592,2.4062,2.4408,2.4916,2.5296,2.5848,2.6431,2.6736,2.7239,2.7808,2.8387,2.8616,2.8635,2.8567,2.8638,2.8919,2.9119,2.9183,2.9382,2.9599,2.951,2.9465,2.942,2.9346,2.9393,2.9349,2.9247,2.9259,2.9072,2.8855,2.8818,2.8831,2.8818,2.8815,2.8881,2.9125,2.9366,2.9606,2.982,2.9887,2.9913,2.9913,2.9913,2.9913,2.9913,2.9913,2.9913,2.9913,2.9913,2.9913,2.9913,2.9913,2.986,2.9847,2.9887,2.9833,2.9673,2.9633,2.9646,3.0214,3.0214,3.0214,3.0214,3.0202,3.0202,3.0202,3.0177,3.0165,3.0214,3.0141,3.0177,3.0033,2.9767,2.9344,2.9103,2.8885,2.8656,2.8476,2.8428,2.8428,2.8236,2.7935,2.7887,2.7598,2.7212,2.7115,2.7201,2.726,2.726,2.7308,2.7212,2.7067,2.6874,2.6294,2.5906,2.5421,2.4973,2.4487,2.4156,2.401,2.3522,2.2974,2.2583,2.2201,2.1906,2.1661,2.1612,2.1514,2.1406,2.129,2.1419,2.1713,2.1802,2.2077,2.2509,2.299,2.3399,2.3639,2.3992,2.4551,2.5094,2.5533,2.6148,2.6958,2.7591,2.8022,2.7927,2.8214,2.8396,2.846,2.8728,2.8869,2.8916,2.8976,2.8919,2.8867,2.9177,2.9119,2.9009,2.8995,2.9152,2.9216,2.9313,2.9339,2.9121,2.9001,2.9041,2.9081,2.9161,2.9202,2.9432,2.9539,2.9766,2.9833,2.99,2.9913,2.9913,2.9913,2.9913,2.9913,2.9913,2.9913,2.9913,2.9913,2.9913,2.9913,2.9913,2.9913,2.9913,2.9913,2.9913,2.9887,2.99,2.9887,3.0214,3.0214,3.0214,3.0117,2.9984,2.9984,2.9888,2.9779,2.9755,2.9755,2.9755,2.9755,2.961,2.9307,2.9091,2.874,2.8402,2.8187,2.7983,2.7839,2.7742,2.7646,2.7453,2.7357,2.7115,2.6632,2.6294,2.5906,2.6089,2.6621,2.6971,2.6584,2.6294,2.5895,2.5469,2.4935,2.4594,2.4146,2.3561,2.2984,2.2583,2.2142,2.175,2.1505,2.1268,2.1022,2.0826,2.0826,2.0826,2.0826,2.0826,2.0875,2.1063,2.1161,2.1308,2.1437,2.2002,2.2577,2.3157,2.3417,2.3974,2.4667,2.5291,2.609,2.7142,2.7735,2.8029,2.8029,2.8083,2.8128,2.8221,2.8458,2.8606,2.8657,2.8682,2.8795,2.8752,2.8742,2.8865,2.8698,2.8576,2.8751,2.8949,2.9049,2.922,2.9464,2.9397,2.9468,2.9566,2.9619,2.9659,2.9713,2.9793,2.9887,2.9887,2.9913,2.9913,2.9913,2.9913,2.9913,2.9913,2.9913,2.9913,2.9913,2.9913,2.9913,2.9913,2.9913,2.9913,2.9913,2.9913,2.9913,2.9913,2.9913,2.99,2.9653,2.9712,3.0016,2.9984,2.9791,2.9731,2.9598,2.9429,2.9231,2.917,2.9134,2.9011,2.8807,2.8629,2.846,2.8112,2.7658,2.7646,2.7453,2.7201,2.7056,2.7056,2.6874,2.6777,2.639,2.5906,2.5324,2.4984,2.507,2.5507,2.5906,2.5723,2.5324,2.4984,2.4535,2.4097,2.3707,2.317,2.2436,2.1857,2.1514,2.1112,2.0826,2.0678,2.0579,2.053,2.0432,2.0382,2.0382,2.0382,2.0333,2.0382,2.053,2.0629,2.0727,2.0915,2.1352,2.1842,2.2526,2.3062,2.3658,2.4448,2.5372,2.6264,2.7287,2.7878,2.8211,2.8259,2.8186,2.8077,2.8052,2.8309,2.8388,2.8538,2.8616,2.8802,2.8904,2.8682,2.8465,2.829,2.819,2.8256,2.8415,2.8622,2.8989,2.9586,2.9779,2.9869,2.99,2.9887,2.9873,2.9847,2.9873,2.9913,2.9913,2.9913,2.9913,2.9953,2.9953,2.9927,2.994,2.9927,2.9913,2.9913,2.9913,2.9913,2.9913,2.9913,2.9913,2.9913,2.9913,2.9913,2.9913,2.9913,2.9913,2.8165,2.8422,2.9364,2.9741,2.9705,2.9538,2.9368,2.9135,2.8788,2.8628,2.8508,2.8035,2.7761,2.7643,2.7518,2.7355,2.7152,2.7152,2.6959,2.6959,2.7019,2.6536,2.6197,2.5712,2.5372,2.4886,2.4448,2.4194,2.4048,2.4048,2.4302,2.4156,2.4205,2.4156,2.3815,2.3277,2.2632,2.2044,2.1357,2.1022,2.0875,2.0678,2.0481,2.0136,2.0038,1.9898,1.9462,1.9553,1.9602,1.9602,1.9651,1.975,2.0038,2.0087,2.0235,2.0481,2.0727,2.1161,2.1701,2.2534,2.3424,2.4253,2.5275,2.6342,2.7201,2.7634,2.7996,2.8452,2.8391,2.8416,2.8415,2.8402,2.8352,2.8386,2.8478,2.8464,2.8462,2.8258,2.8055,2.7867,2.7884,2.7956,2.8099,2.8356,2.8809,2.9369,2.9779,2.9913,2.9913,2.99,2.99,2.99,2.99,2.9913,2.9927,2.9953,3.0034,3.01,3.0127,3.0047,2.998,2.9967,3.002,2.9913,2.9913,2.9913,2.9913,2.9913,2.9913,2.9913,2.9913,2.9913,2.9913,2.9913,2.9913,2.7939,2.8058,2.8305,2.8384,2.8372,2.8278,2.8138,2.7949,2.7743,2.7706,2.7608,2.7407,2.7264,2.7181,2.7147,2.6922,2.6584,2.6245,2.5992,2.5604,2.5324,2.5081,2.4789,2.474,2.4448,2.4156,2.3766,2.3522,2.3463,2.2974,2.2583,2.2632,2.3121,2.3219,2.2925,2.224,2.1554,2.1161,2.0629,2.0333,2.0235,1.9997,1.9799,1.9602,1.9553,1.9503,1.9355,1.9314,1.9314,1.9322,1.933,1.9478,1.9569,1.9618,1.9709,1.9947,2.0185,2.0432,2.0826,2.1701,2.269,2.401,2.5129,2.6197,2.6959,2.7501,2.8031,2.838,2.8572,2.8572,2.8584,2.8524,2.8463,2.8427,2.8367,2.8282,2.8198,2.8113,2.8053,2.8076,2.7907,2.7818,2.7955,2.8137,2.861,2.9138,2.9549,2.994,2.9993,3.002,3.006,3.0074,3.0074,3.0047,3.0047,3.0114,3.0181,3.0247,3.0301,3.0261,3.0207,3.0194,3.0207,3.006,2.9927,2.994,2.994,2.9927,2.9913,2.9913,2.9913,2.9913,2.9913,2.9913,2.994,2.6909,2.6794,2.6561,2.6898,2.7444,2.7424,2.7287,2.709,2.674,2.6379,2.6186,2.6186,2.6186,2.6186,2.6137,2.5954,2.5518,2.5178,2.4827,2.4584,2.4292,2.4,2.3961,2.3863,2.3717,2.3473,2.3023,2.2681,2.2338,2.1701,2.1505,2.1701,2.1995,2.2093,2.1848,2.1112,2.0579,2.0432,2.0087,1.9799,1.975,1.9553,1.9363,1.9355,1.9363,1.9404,1.9379,1.9362,1.9452,1.9427,1.9443,1.9452,1.9411,1.9329,1.9305,1.9429,1.961,1.9849,2.0235,2.1219,2.2495,2.3863,2.474,2.5858,2.6814,2.7453,2.7791,2.8524,2.8572,2.8572,2.8572,2.8548,2.8536,2.8488,2.8488,2.8475,2.8463,2.8391,2.8367,2.8318,2.8125,2.792,2.8047,2.8278,2.8812,2.9286,2.9671,3.0068,3.0341,3.0341,3.0314,3.0314,3.0314,3.0261,3.0221,3.0354,3.0488,3.0501,3.0555,3.0568,3.0541,3.0547,3.0426,3.0266,3.01,3.002,2.9967,2.994,2.9927,2.9913,2.9913,2.9913,2.9913,2.9927,3.002,2.4701,2.4373,2.4268,2.5463,2.7143,2.7181,2.6971,2.6621,2.5906,2.5081,2.4438,2.4341,2.4341,2.4341,2.4584,2.4546,2.4448,2.4205,2.4058,2.3961,2.3658,2.3805,2.3609,2.3268,2.2681,2.2387,2.1995,2.1554,2.1071,2.0915,2.0817,2.0776,2.0973,2.0973,2.0768,2.0284,2.0038,1.9939,1.9553,1.9454,1.9413,1.9355,1.9306,1.9314,1.9297,1.9411,1.9427,1.95,1.9565,1.9646,1.9678,1.963,1.9524,1.9516,1.9451,1.9387,1.9363,1.9643,2.0112,2.1523,2.2719,2.3776,2.4546,2.5459,2.6669,2.726,2.7598,2.8428,2.8572,2.8572,2.8572,2.8572,2.8572,2.8572,2.8572,2.8572,2.8548,2.8536,2.8524,2.8487,2.8343,2.8186,2.8255,2.8452,2.9008,2.9466,2.987,3.0188,3.0445,3.0608,3.0555,3.0528,3.0515,3.0515,3.0515,3.0675,3.0782,3.0795,3.0835,3.0889,3.0862,3.0795,3.0635,3.0453,3.0373,3.0314,3.0127,2.9922,3.0074,3.0181,2.9967,2.9913,2.9913,2.998,3.0127,2.4197,2.4111,2.404,2.4441,2.5138,2.5064,2.5022,2.4973,2.4643,2.4302,2.4058,2.4,2.4,2.4,2.3853,2.3853,2.3863,2.3571,2.3473,2.3365,2.2828,2.2436,2.2289,2.2044,2.1603,2.1366,2.1071,2.1022,2.0875,2.0481,2.0284,2.0235,2.0095,1.9997,2.0087,1.9791,1.9553,1.9503,1.9355,1.9314,1.9314,1.9314,1.9314,1.9314,1.9354,1.9451,1.954,1.9622,1.9743,1.9817,1.9841,1.9784,1.9711,1.9695,1.9662,1.9605,1.9656,2.0058,2.0652,2.1695,2.2463,2.3454,2.4274,2.5199,2.6729,2.7067,2.7646,2.8284,2.8572,2.8572,2.8572,2.8572,2.8572,2.8572,2.8572,2.8572,2.856,2.856,2.8536,2.8584,2.8487,2.8451,2.8451,2.8461,2.8919,2.9337,2.9675,3.0,3.028,3.0584,3.0715,3.0715,3.0715,3.0742,3.0822,3.0982,3.1076,3.1089,3.1183,3.1316,3.1249,3.1102,3.0915,3.0715,3.0662,3.0608,3.0448,3.0341,3.0461,3.0474,3.0247,3.014,3.0194,3.0274,3.0354,2.3316,2.3121,2.2974,2.2877,2.3023,2.3668,2.3912,2.3756,2.3707,2.3512,2.3219,2.3121,2.2974,2.2877,2.2877,2.2886,2.2886,2.2593,2.2348,2.2289,2.1701,2.1456,2.1259,2.0964,2.0826,2.0579,2.0481,2.0432,2.0185,1.989,1.9799,1.9701,1.9454,1.9553,1.9602,1.9454,1.9306,1.9363,1.9314,1.9314,1.9314,1.9314,1.9314,1.9305,1.9402,1.954,1.9638,1.9768,1.9914,1.9938,1.9963,1.9938,1.9906,1.9882,1.9857,1.9817,1.9894,2.0384,2.1076,2.137,2.2332,2.373,2.3995,2.5106,2.6606,2.7067,2.7694,2.8236,2.8548,2.8584,2.8596,2.8596,2.8596,2.8596,2.8572,2.8572,2.8572,2.8572,2.8572,2.862,2.862,2.8572,2.8572,2.8596,2.8751,2.913,2.9469,2.9777,3.0117,3.051,3.0869,3.0976,3.1062,3.1129,3.1209,3.1303,3.1356,3.137,3.1463,3.1557,3.153,3.137,3.1196,3.1036,3.0969,3.0902,3.0795,3.0755,3.0755,3.0688,3.0515,3.0461,3.0501,3.0555,3.0608,2.2044,2.1505,2.1013,2.0924,2.1219,2.2925,2.3463,2.3082,2.3082,2.2534,2.1652,2.1701,2.1603,2.1071,2.0924,2.1071,2.117,2.1071,2.1071,2.1022,2.0875,2.0826,2.0727,2.0629,2.0284,2.0087,1.9997,1.9849,1.9404,1.9454,1.9404,1.9355,1.9355,1.9355,1.9355,1.9355,1.9314,1.9314,1.9314,1.9314,1.9314,1.9314,1.9314,1.9321,1.9451,1.9613,1.976,1.9938,2.0117,2.0214,2.0279,2.0198,2.0125,2.0128,2.0014,1.9882,1.9849,2.0468,2.1239,2.1511,2.231,2.3666,2.4197,2.5367,2.646,2.7227,2.7844,2.8414,2.8813,2.8729,2.8632,2.8669,2.8669,2.8656,2.8584,2.8572,2.8572,2.8572,2.8572,2.8572,2.8572,2.8572,2.8572,2.862,2.862,2.8812,2.9156,2.9608,2.9981,3.0587,3.0965,3.1261,3.1395,3.157,3.1657,3.1543,3.1543,3.1517,3.1557,3.1684,3.1671,3.1597,3.145,3.1303,3.1263,3.1196,3.1129,3.1022,3.0929,3.0849,3.0875,3.0808,3.0849,3.0822,3.0875,2.1161,2.1022,2.0875,2.0826,2.0924,2.1465,2.1612,2.1505,2.1514,2.1268,2.1022,2.1022,2.0866,2.0826,2.0826,2.0776,2.0776,2.0826,2.0826,2.0678,2.0382,2.0284,2.0136,1.9947,1.9701,1.9602,1.9503,1.9503,1.9355,1.9314,1.9314,1.9314,1.9314,1.9314,1.9314,1.9314,1.9314,1.9314,1.9314,1.9314,1.9314,1.9314,1.9314,1.9337,1.9557,1.9719,1.9841,2.0093,2.0255,2.0304,2.0268,2.0271,2.0263,2.0247,2.0198,2.019,2.0277,2.0631,2.1552,2.181,2.2416,2.3673,2.4386,2.5461,2.6595,2.7422,2.8012,2.8639,2.9006,2.9006,2.891,2.8862,2.8789,2.8669,2.8632,2.8572,2.8572,2.8572,2.8572,2.8572,2.8572,2.8572,2.8572,2.8572,2.862,2.862,2.886,2.928,2.9806,3.0379,3.0903,3.1202,3.1534,3.1677,3.1724,3.1671,3.1684,3.1711,3.1724,3.1724,3.1711,3.1684,3.161,3.1557,3.1476,3.1463,3.1476,3.1417,3.1283,3.1417,3.1443,3.1276,3.1183,3.1142,3.1156,2.0481,2.0481,2.0284,2.0185,2.0185,2.0185,2.0194,2.0284,2.0629,2.0718,2.0481,2.0481,2.0382,2.0185,2.0145,2.0136,2.0136,2.0087,2.0145,2.0038,1.989,1.9791,1.9602,1.9454,1.9355,1.9314,1.9314,1.9314,1.9314,1.9314,1.9314,1.9314,1.9314,1.9314,1.9314,1.9314,1.9314,1.9314,1.9314,1.9314,1.9314,1.9322,1.9297,1.9402,1.9662,1.9792,1.9914,2.0198,2.0296,2.0268,2.0268,2.0268,2.032,2.032,2.0312,2.0296,2.0296,2.0852,2.1674,2.195,2.2724,2.3698,2.4623,2.5674,2.6616,2.7464,2.8279,2.9037,2.9197,2.9332,2.92,2.9067,2.8934,2.8753,2.8669,2.8584,2.8572,2.8572,2.8572,2.8572,2.8572,2.8572,2.8572,2.8572,2.8572,2.862,2.862,2.8812,2.9328,2.9949,3.0522,3.1011,3.1392,3.1724,3.1724,3.1724,3.1724,3.1724,3.1724,3.1724,3.1724,3.1711,3.1698,3.1698,3.1698,3.1684,3.1644,3.1684,3.1631,3.1724,3.1724,3.1543,3.1423,3.1423,3.1476,1.9939,1.9939,1.9503,1.9355,1.9314,1.9355,1.9363,1.9404,2.0235,2.0382,1.9997,1.9939,1.9742,1.9553,1.9503,1.9503,1.9553,1.9553,1.9553,1.9355,1.9454,1.9404,1.9404,1.9314,1.9314,1.9314,1.9314,1.9314,1.9314,1.9314,1.9314,1.9314,1.9314,1.9314,1.9314,1.9314,1.9314,1.9314,1.9338,1.9354,1.933,1.9338,1.9354,1.9508,1.9703,1.989,2.0052,2.0206,2.0268,2.0268,2.0268,2.0268,2.0268,2.0268,2.0268,2.0268,2.0268,2.0945,2.1665,2.1977,2.2599,2.3564,2.4667,2.5645,2.651,2.7582,2.8546,2.9359,2.9633,2.9598,2.9465,2.9248,2.9079,2.8849,2.8717,2.862,2.8572,2.8572,2.8572,2.8572,2.8572,2.8572,2.8572,2.8572,2.8572,2.8572,2.862,2.862,2.9004,2.9615,3.014,3.076,3.1297,3.1677,3.1724,3.1724,3.1724,3.1724,3.1724,3.1724,3.1724,3.1724,3.1724,3.1724,3.1724,3.1724,3.1711,3.1724,3.1724,3.1724,3.1724,3.1724,3.1698,3.1657,3.1671,1.9454,1.9454,1.9355,1.9314,1.9314,1.9314,1.9314,1.9306,1.9553,1.9602,1.9503,1.9454,1.9404,1.9306,1.9314,1.9314,1.9314,1.9314,1.9314,1.9306,1.9314,1.9314,1.9314,1.9314,1.9314,1.9314,1.9314,1.9314,1.9338,1.933,1.9322,1.9322,1.9346,1.9363,1.9363,1.9363,1.9371,1.9387,1.9452,1.9444,1.9379,1.9402,1.9492,1.9622,1.9784,2.003,2.0125,2.0231,2.0296,2.0268,2.0268,2.0268,2.0268,2.0268,2.0268,2.0268,2.032,2.0945,2.1613,2.208,2.2547,2.3531,2.4574,2.545,2.6487,2.7676,2.8696,2.9492,2.9948,2.9839,2.9695,2.9453,2.9224,2.9019,2.8741,2.8657,2.8572,2.8572,2.8572,2.8572,2.8572,2.8572,2.8572,2.8572,2.8572,2.8572,2.8572,2.8668,2.8956,2.9423,2.9889,3.0522,3.1284,3.1616,3.1677,3.1724,3.1724,3.1724,3.1724,3.1724,3.1724,3.1724,3.1724,3.1724,3.1724,3.1724,3.1724,3.1724,3.1724,3.1724,3.1724,3.1724,3.1724,3.1698,3.1698,1.9232,1.9306,1.9314,1.9314,1.9314,1.9314,1.9314,1.9314,1.9314,1.9314,1.9314,1.9314,1.9314,1.9314,1.9314,1.9314,1.9314,1.9314,1.9314,1.9314,1.9314,1.9314,1.9314,1.9314,1.9314,1.9314,1.9314,1.933,1.9411,1.9386,1.9394,1.9509,1.9534,1.9525,1.9484,1.9542,1.9484,1.9508,1.9589,1.9565,1.9534,1.9581,1.9695,1.9808,1.993,2.0144,2.019,2.0279,2.0296,2.0268,2.0268,2.0268,2.0268,2.0268,2.0268,2.0268,2.0424,2.0789,2.1613,2.2132,2.2547,2.3583,2.4625,2.5553,2.6313,2.7516,2.871,2.951,3.0028,3.0033,2.9876,2.9658,2.9417,2.92,2.8874,2.8608,2.8572,2.8572,2.8572,2.8572,2.8572,2.8572,2.8572,2.8572,2.8572,2.8572,2.8572,2.8572,2.886,2.9232,2.9698,3.0271,3.1046,3.1569,3.1677,3.1724,3.1724,3.1724,3.1724,3.1724,3.1724,3.1724,3.1724,3.1724,3.1724,3.1724,3.1724,3.1724,3.1724,3.1724,3.1724,3.1724,3.1724,3.1724,3.1724,1.9102,1.9265,1.9297,1.9314,1.9314,1.9314,1.9314,1.9314,1.9314,1.9314,1.9314,1.9314,1.9314,1.9314,1.9314,1.9314,1.9314,1.9314,1.9314,1.9314,1.9314,1.9314,1.9314,1.9314,1.9289,1.9313,1.9379,1.9435,1.9549,1.9557,1.9622,1.9768,1.9792,1.9784,1.9792,1.9784,1.9743,1.9735,1.9776,1.9817,1.9817,1.9825,1.9906,2.0055,2.0152,2.0174,2.0271,2.032,2.0268,2.0268,2.0268,2.0268,2.0268,2.0268,2.0268,2.0268,2.032,2.0945,2.1665,2.2029,2.2755,2.3635,2.4729,2.5604,2.6365,2.744,2.8626,2.9299,2.9808,3.0115,3.002,2.9767,2.9526,2.9296,2.8934,2.8584,2.8572,2.8572,2.8572,2.8572,2.8572,2.8572,2.8572,2.8572,2.8572,2.8572,2.8572,2.8572,2.8716,2.9184,2.9602,3.0175,3.0856,3.1284,3.1629,3.1724,3.1724,3.1724,3.1724,3.1724,3.1724,3.1724,3.1724,3.1724,3.1724,3.1724,3.1724,3.1724,3.1724,3.1724,3.1724,3.1724,3.1724,3.1724,3.1724,1.8874,1.9045,1.924,1.9306,1.9306,1.9306,1.9314,1.9306,1.9297,1.9314,1.9289,1.9306,1.9314,1.9314,1.9314,1.9314,1.9314,1.9314,1.9314,1.9314,1.9314,1.9314,1.9314,1.9314,1.9345,1.9402,1.9459,1.9573,1.9711,1.9735,1.9752,1.9825,1.9817,1.9817,1.9808,1.9817,1.9857,1.9882,1.9963,2.0011,2.0011,2.0011,2.002,2.0109,2.0206,2.0263,2.032,2.0268,2.0268,2.0268,2.0268,2.0268,2.0268,2.0268,2.0268,2.0372,2.032,2.0997,2.1665,2.2029,2.2806,2.4048,2.4986,2.5553,2.6478,2.7656,2.8535,2.8982,2.9503,3.0112,3.0045,2.967,2.9393,2.92,2.891,2.8669,2.8572,2.8572,2.8572,2.8572,2.8572,2.8572,2.8572,2.8572,2.8572,2.8572,2.8572,2.8572,2.862,2.9088,2.9519,3.0093,3.0665,3.1189,3.1616,3.1677,3.1724,3.1724,3.1724,3.1724,3.1724,3.1724,3.1724,3.1724,3.1724,3.1724,3.1724,3.1724,3.1724,3.1724,3.1724,3.1724,3.1724,3.1724,3.1724]},{"header":{"parameterUnit":"m.s-1","parameterCategory":1,"la1":31.0,"la2":29.5877,"lo1":-88.7671,"lo2":-86.6584,"dy":0.0162,"dx":0.0185,"nx":115,"ny":88,"refTime":"2023-09-26T12:00:00:Z","depth":0,"parameterNumber":3,"parameterNumberName":"V-component_of_WINDS"},"data":[0.0,0.0,0.0,0.0,0.0,0.0,0.0,0.0,0.0,0.0,0.0,0.0,0.0,0.0,0.0,0.0,0.0,0.0,0.0,0.0,0.0,0.0,0.0,0.0,0.0,0.0,0.0,0.0,0.0,0.0,0.0,0.0,0.0,0.0,0.0,0.0,0.0,0.0,0.0,0.0,0.0,0.0,0.0,0.0,0.0,0.0,0.0,0.0,0.0,0.0,0.0,0.0,0.0,0.0,0.0,0.0,0.0,0.0,0.0,0.0,0.0,0.0,0.0,0.0,0.0,0.0,0.0,0.0,0.0,0.0,0.0,0.0,0.0,0.0,0.0,0.0,0.0,0.0,0.0,0.0,0.0,0.0,0.0,0.0,0.0,0.0,0.0,0.0,0.0,0.0,0.0,0.0,0.0,0.0,0.0,0.0,0.0,0.0,0.0,0.0,0.0,0.0,0.0,0.0,0.0,0.0,0.0,0.0,0.0,0.0,0.0,0.0,0.0,0.0,0.0,0.0,0.0,0.0,0.0,0.0,0.0,0.0,0.0,0.0,0.0,0.0,0.0,0.0,0.0,0.0,0.0,0.0,0.0,0.0,0.0,0.0,0.0,0.0,0.0,0.0,0.0,0.0,0.0,0.0,0.0,0.0,0.0,0.0,0.0,0.0,0.0,0.0,0.0,0.0,0.0,0.0,0.0,0.0,0.0,0.0,0.0,0.0,0.0,0.0,0.0,0.0,0.0,0.0,0.0,0.0,0.0,0.0,0.0,0.0,0.0,0.0,0.0,0.0,0.0,0.0,0.0,0.0,0.0,0.0,0.0,0.0,0.0,0.0,0.0,0.0,0.0,0.0,0.0,0.0,0.0,0.0,0.0,0.0,0.0,0.0,0.0,0.0,0.0,0.0,0.0,0.0,0.0,0.0,0.0,0.0,0.0,0.0,0.0,0.0,0.0,0.0,0.0,0.0,0.0,0.0,0.0,0.0,0.0,0.0,0.0,0.0,0.0,0.0,0.0,0.0,0.0,0.0,0.0,0.0,0.0,0.0,0.0,0.0,0.0,0.0,0.0,0.0,0.0,0.0,0.0,0.0,0.0,0.0,0.0,0.0,0.0,0.0,0.0,0.0,0.0,0.0,0.0,0.0,0.0,0.0,0.0,0.0,0.0,0.0,0.0,0.0,0.0,0.0,0.0,0.0,0.0,0.0,0.0,0.0,0.0,0.0,0.0,0.0,0.0,0.0,0.0,0.0,0.0,0.0,0.0,0.0,0.0,0.0,0.0,0.0,0.0,0.0,0.0,0.0,0.0,0.0,0.0,0.0,0.0,0.0,0.0,0.0,0.0,0.0,0.0,0.0,0.0,0.0,0.0,0.0,0.0,0.0,0.0,0.0,0.0,0.0,0.0,0.0,0.0,0.0,0.0,0.0,0.0,0.0,0.0,0.0,0.0,0.0,0.0,0.0,0.0,0.0,0.0,0.0,0.0,0.0,0.0,0.0,0.0,0.0,0.0,0.0,0.0,0.0,0.0,0.0,0.0,0.0,0.0,0.0,0.0,0.0,0.0,0.0,0.0,0.0,0.0,0.0,0.0,0.0,0.0,0.0,0.0,0.0,0.0,0.0,0.0,0.0,0.0,0.0,0.0,0.0,0.0,0.0,0.0,0.0,0.0,0.0,0.0,0.0,0.0,0.0,0.0,0.0,0.0,0.0,0.0,0.0,0.0,0.0,0.0,0.0,0.0,0.0,0.0,0.0,0.0,0.0,0.0,0.0,0.0,0.0,0.0,0.0,0.0,0.0,0.0,0.0,0.0,0.0,0.0,0.0,0.0,0.0,0.0,0.0,0.0,0.0,0.0,0.0,0.0,0.0,0.0,0.0,0.0,0.0,0.0,0.0,0.0,0.0,0.0,0.0,0.0,0.0,0.0,0.0,0.0,0.0,0.0,0.0,0.0,0.0,0.0,0.0,0.0,0.0,0.0,0.0,0.0,0.0,0.0,0.0,0.0,0.0,0.0,0.0,0.0,0.0,0.0,0.0,0.0,0.0,0.0,0.0,0.0,0.0,0.0,0.0,0.0,0.0,0.0,0.0,0.0,0.0,0.0,0.0,0.0,0.0,0.0,0.0,0.0,0.0,0.0,0.0,0.0,0.0,0.0,0.0,0.0,0.0,0.0,0.0,0.0,0.0,0.0,0.0,0.0,0.0,0.0,0.0,0.0,0.0,0.0,0.0,0.0,0.0,0.0,0.0,0.0,0.0,0.0,0.0,0.0,0.0,0.0,0.0,0.0,0.0,0.0,0.0,0.0,0.0,0.0,0.0,0.0,0.0,0.0,0.0,0.0,0.0,0.0,0.0,0.0,0.0,0.0,0.0,0.0,0.0,0.0,0.0,0.0,0.0,0.0,0.0,0.0,0.0,0.0,0.0,0.0,0.0,0.0,0.0,0.0,0.0,0.0,0.0,0.0,0.0,0.0,0.0,0.0,0.0,0.0,0.0,0.0,0.0,0.0,0.0,0.0,0.0,0.0,0.0,0.0,0.0,0.0,0.0,0.0,0.0,0.0,0.0,0.0,0.0,0.0,0.0,0.0,0.0,0.0,0.0,0.0,0.0,0.0,0.0,0.0,0.0,0.0,0.0,0.0,0.0,0.0,0.0,0.0,0.0,0.0,0.0,0.0,0.0,0.0,0.0,0.0,0.0,0.0,0.0,0.0,0.0,0.0,0.0,0.0,0.0,0.0,0.0,0.0,0.0,0.0,0.0,0.0,0.0,0.0,0.0,0.0,0.0,0.0,0.0,0.0,0.0,0.0,0.0,0.0,0.0,0.0,0.0,0.0,0.0,0.0,0.0,0.0,0.0,0.0,0.0,0.0,0.0,0.0,0.0,0.0,0.0,0.0,0.0,0.0,0.0,0.0,0.0,0.0,0.0,0.0,0.0,0.0,0.0,0.0,0.0,0.0,0.0,0.0,0.0,0.0,0.0,0.0,0.0,0.0,0.0,0.0,0.0,0.0,0.0,0.0,0.0,0.0,0.0,0.0,0.0,0.0,0.0,0.0,0.0,0.0,0.0,0.0,0.0,0.0,0.0,0.0,0.0,0.0,0.0,0.0,0.0,0.0,0.0,0.0,0.0,0.0,0.0,0.0,0.0,0.0,0.0,0.0,0.0,0.0,0.0,0.0,0.0,0.0,0.0,0.0,0.0,0.0,0.0,0.0,0.0,0.0,0.0,0.0,0.0,0.0,0.0,0.0,0.0,0.0,0.0,0.0,0.0,0.0,0.0,0.0,0.0,0.0,0.0,0.0,0.0,0.0,0.0,0.0,0.0,0.0,0.0,0.0,0.0,0.0,0.0,0.0,0.0,0.0,0.0,0.0,0.0,0.0,0.0,0.0,0.0,0.0,0.0,0.0,0.0,0.0,0.0,0.0,0.0,0.0,0.0,0.0,0.0,0.0,0.0,0.0,0.0,0.0,0.0,0.0,0.0,0.0,0.0,0.0,0.0,0.0,0.0,0.0,0.0,0.0,0.0,0.0,0.0,0.0,0.0,0.0,0.0,0.0,0.0,0.0,0.0,0.0,0.0,0.0,0.0,0.0,0.0,0.0,0.0,0.0,0.0,0.0,0.0,0.0,0.0,0.0,0.0,0.0,0.0,0.0,0.0,0.0,0.0,0.0,0.0,0.0,0.0,0.0,0.0,0.0,0.0,0.0,0.0,0.0,0.0,0.0,0.0,0.0,0.0,0.0,0.0,0.0,0.0,0.0,0.0,0.0,0.0,0.0,0.0,0.0,0.0,0.0,0.0,0.0,0.0,0.0,0.0,0.0,0.0,0.0,0.0,0.0,0.0,0.0,0.0,0.0,0.0,0.0,0.0,0.0,0.0,0.0,0.0,0.0,0.0,0.0,0.0,0.0,0.0,0.0,0.0,0.0,0.0,0.0,0.0,0.0,0.0,0.0,0.0,0.0,0.0,0.0,0.0,0.0,0.0,0.0,0.0,0.0,0.0,0.0,0.0,0.0,0.0,0.0,0.0,0.0,0.0,0.0,0.0,0.0,0.0,0.0,0.0,0.0,0.0,0.0,0.0,0.0,0.0,0.0,0.0,0.0,0.0,0.0,0.0,0.0,0.0,0.0,0.0,0.0,0.0,0.0,0.0,0.0,0.0,0.0,0.0,0.0,0.0,0.0,0.0,0.0,0.0,0.0,0.0,0.0,0.0,0.0,0.0,0.0,0.0,0.0,0.0,0.0,0.0,0.0,0.0,0.0,0.0,2.3859,0.0,0.0,0.0,0.0,0.0,0.0,0.0,0.0,0.0,0.0,0.0,0.0,0.0,0.0,0.0,0.0,0.0,0.0,0.0,0.0,0.0,0.0,0.0,0.0,0.0,0.0,0.0,0.0,0.0,0.0,0.0,0.0,0.0,0.0,0.0,0.0,0.0,0.0,0.0,0.0,0.0,0.0,0.0,0.0,0.0,0.0,0.0,0.0,0.0,0.0,0.0,0.0,0.0,0.0,0.0,0.0,0.0,0.0,0.0,0.0,0.0,0.0,0.0,0.0,0.0,0.0,0.0,0.0,0.0,0.0,0.0,0.0,0.0,0.0,0.0,0.0,0.0,0.0,0.0,0.0,0.0,0.0,0.0,0.0,0.0,0.0,0.0,0.0,0.0,0.0,0.0,0.0,0.0,0.0,0.0,0.0,0.0,0.0,0.0,0.0,0.0,0.0,0.0,0.0,0.0,0.0,0.0,0.0,0.0,0.0,2.5375,2.5748,2.5019,2.4779,2.5168,0.0,0.0,0.0,0.0,0.0,0.0,0.0,0.0,0.0,0.0,0.0,0.0,0.0,0.0,0.0,0.0,0.0,0.0,0.0,0.0,0.0,0.0,0.0,0.0,0.0,0.0,0.0,0.0,0.0,0.0,0.0,0.0,0.0,0.0,0.0,0.0,0.0,0.0,0.0,0.0,0.0,0.0,0.0,0.0,0.0,0.0,0.0,0.0,0.0,0.0,0.0,0.0,0.0,0.0,0.0,0.0,0.0,0.0,0.0,0.0,0.0,0.0,0.0,0.0,0.0,0.0,0.0,0.0,0.0,0.0,0.0,0.0,0.0,0.0,0.0,0.0,0.0,0.0,0.0,0.0,0.0,0.0,0.0,0.0,0.0,0.0,0.0,0.0,0.0,0.0,0.0,0.0,0.0,0.0,0.0,0.0,0.0,0.0,0.0,0.0,0.0,0.0,0.0,0.0,0.0,0.0,0.0,0.0,0.0,0.0,0.0,0.0,2.6444,2.6038,2.636,0.0,0.0,0.0,0.0,0.0,0.0,0.0,0.0,0.0,0.0,0.0,0.0,0.0,0.0,0.0,0.0,0.0,0.0,0.0,0.0,0.0,0.0,0.0,0.0,0.0,0.0,0.0,0.0,0.0,0.0,0.0,0.0,0.0,0.0,0.0,0.0,0.0,0.0,0.0,0.0,0.0,0.0,0.0,0.0,0.0,0.0,0.0,0.0,0.0,0.0,0.0,0.0,0.0,0.0,0.0,0.0,0.0,0.0,0.0,0.0,0.0,0.0,0.0,0.0,0.0,0.0,0.0,0.0,0.0,0.0,0.0,0.0,0.0,0.0,0.0,0.0,0.0,0.0,0.0,0.0,0.0,0.0,0.0,0.0,0.0,0.0,0.0,0.0,0.0,0.0,0.0,0.0,0.0,0.0,0.0,0.0,0.0,0.0,0.0,0.0,0.0,0.0,0.0,0.0,0.0,0.0,0.0,0.0,0.0,0.0,2.7547,2.8276,2.8177,0.0,2.7216,0.0,0.0,0.0,0.0,0.0,0.0,0.0,0.0,0.0,0.0,0.0,0.0,0.0,0.0,0.0,0.0,0.0,0.0,0.0,0.0,0.0,0.0,0.0,0.0,0.0,0.0,0.0,0.0,0.0,0.0,0.0,0.0,0.0,0.0,0.0,0.0,0.0,0.0,0.0,0.0,0.0,0.0,0.0,0.0,0.0,0.0,0.0,0.0,0.0,0.0,0.0,0.0,0.0,0.0,0.0,0.0,0.0,0.0,0.0,0.0,0.0,0.0,0.0,0.0,0.0,0.0,0.0,0.0,0.0,0.0,0.0,0.0,0.0,0.0,0.0,0.0,0.0,0.0,0.0,0.0,0.0,0.0,0.0,0.0,0.0,0.0,0.0,0.0,0.0,0.0,0.0,0.0,0.0,0.0,0.0,0.0,0.0,0.0,0.0,0.0,0.0,0.0,0.0,0.0,0.0,0.0,0.0,0.0,0.0,0.0,2.8044,2.9605,2.9648,2.8896,0.0,0.0,0.0,0.0,0.0,0.0,0.0,0.0,0.0,0.0,0.0,0.0,0.0,0.0,0.0,0.0,0.0,0.0,0.0,0.0,0.0,0.0,0.0,0.0,0.0,0.0,0.0,0.0,0.0,0.0,0.0,0.0,0.0,0.0,0.0,0.0,0.0,0.0,0.0,0.0,0.0,0.0,0.0,0.0,0.0,0.0,0.0,0.0,0.0,0.0,0.0,0.0,0.0,0.0,0.0,0.0,0.0,0.0,0.0,0.0,0.0,0.0,0.0,0.0,0.0,0.0,0.0,0.0,0.0,0.0,0.0,0.0,0.0,0.0,0.0,0.0,0.0,0.0,0.0,0.0,0.0,0.0,0.0,0.0,0.0,0.0,0.0,0.0,0.0,0.0,0.0,0.0,0.0,0.0,0.0,0.0,0.0,0.0,0.0,0.0,0.0,0.0,0.0,0.0,0.0,0.0,0.0,0.0,0.0,0.0,2.7978,2.9019,3.0654,3.082,2.9804,2.7689,0.0,0.0,0.0,0.0,0.0,0.0,0.0,0.0,0.0,0.0,0.0,0.0,0.0,0.0,0.0,0.0,0.0,0.0,0.0,0.0,0.0,0.0,0.0,0.0,0.0,0.0,0.0,0.0,0.0,0.0,0.0,0.0,0.0,0.0,0.0,0.0,0.0,0.0,0.0,0.0,0.0,0.0,0.0,0.0,0.0,0.0,0.0,0.0,0.0,0.0,0.0,0.0,0.0,0.0,0.0,0.0,0.0,0.0,0.0,0.0,0.0,0.0,0.0,0.0,0.0,0.0,0.0,0.0,0.0,0.0,0.0,0.0,0.0,0.0,0.0,0.0,0.0,0.0,0.0,0.0,0.0,0.0,0.0,0.0,0.0,0.0,0.0,0.0,0.0,0.0,0.0,0.0,0.0,0.0,0.0,0.0,0.0,0.0,0.0,0.0,0.0,0.0,0.0,0.0,0.0,0.0,0.0,0.0,2.8343,2.9648,3.0754,3.1515,3.1581,3.0566,0.0,0.0,0.0,0.0,0.0,0.0,0.0,0.0,0.0,0.0,0.0,0.0,0.0,0.0,0.0,0.0,0.0,0.0,0.0,0.0,0.0,0.0,0.0,0.0,0.0,0.0,0.0,0.0,0.0,0.0,0.0,0.0,0.0,0.0,0.0,0.0,0.0,0.0,0.0,0.0,0.0,0.0,0.0,0.0,0.0,0.0,0.0,0.0,0.0,0.0,0.0,0.0,0.0,0.0,0.0,0.0,0.0,0.0,0.0,0.0,0.0,0.0,0.0,0.0,0.0,0.0,0.0,0.0,0.0,0.0,0.0,0.0,0.0,0.0,0.0,0.0,0.0,0.0,0.0,0.0,0.0,0.0,0.0,0.0,0.0,0.0,0.0,0.0,0.0,0.0,0.0,0.0,0.0,0.0,0.0,0.0,0.0,0.0,0.0,0.0,0.0,0.0,0.0,0.0,0.0,0.0,0.0,0.0,0.0,2.8452,3.0686,3.2034,3.2299,3.2299,3.1272,0.0,0.0,0.0,0.0,0.0,0.0,0.0,0.0,0.0,0.0,0.0,0.0,0.0,0.0,0.0,0.0,0.0,0.0,0.0,0.0,0.0,0.0,0.0,0.0,0.0,0.0,0.0,0.0,0.0,0.0,0.0,0.0,0.0,0.0,0.0,0.0,0.0,0.0,0.0,0.0,0.0,0.0,0.0,0.0,0.0,0.0,0.0,0.0,0.0,0.0,0.0,0.0,0.0,0.0,0.0,0.0,0.0,0.0,0.0,0.0,0.0,0.0,0.0,0.0,0.0,0.0,0.0,0.0,0.0,0.0,0.0,0.0,0.0,0.0,0.0,0.0,0.0,0.0,0.0,0.0,0.0,0.0,0.0,0.0,0.0,0.0,0.0,0.0,0.0,0.0,0.0,0.0,0.0,0.0,0.0,0.0,0.0,0.0,0.0,0.0,0.0,0.0,0.0,0.0,0.0,0.0,0.0,0.0,0.0,2.9801,0.0,3.305,3.3072,3.2818,3.1647,0.0,0.0,0.0,0.0,0.0,0.0,0.0,0.0,0.0,0.0,0.0,0.0,0.0,0.0,0.0,0.0,0.0,0.0,0.0,0.0,0.0,0.0,0.0,0.0,0.0,0.0,0.0,0.0,0.0,0.0,0.0,0.0,0.0,0.0,0.0,0.0,0.0,0.0,0.0,0.0,0.0,0.0,0.0,0.0,0.0,0.0,0.0,0.0,0.0,0.0,0.0,0.0,0.0,0.0,0.0,0.0,0.0,0.0,0.0,0.0,0.0,0.0,0.0,0.0,0.0,0.0,0.0,0.0,0.0,0.0,0.0,0.0,0.0,0.0,0.0,0.0,0.0,0.0,0.0,0.0,0.0,0.0,0.0,0.0,0.0,0.0,0.0,0.0,0.0,0.0,0.0,0.0,0.0,0.0,0.0,0.0,0.0,0.0,0.0,0.0,0.0,0.0,0.0,0.0,0.0,0.0,0.0,0.0,2.9834,3.2542,3.3403,3.3834,3.3789,3.3171,3.1702,0.0,0.0,0.0,0.0,0.0,0.0,0.0,0.0,0.0,0.0,0.0,0.0,0.0,0.0,0.0,0.0,0.0,0.0,0.0,0.0,0.0,0.0,0.0,0.0,0.0,0.0,0.0,0.0,0.0,0.0,0.0,0.0,0.0,0.0,0.0,0.0,0.0,0.0,0.0,0.0,0.0,0.0,0.0,0.0,0.0,0.0,0.0,0.0,0.0,0.0,0.0,0.0,0.0,0.0,0.0,0.0,0.0,0.0,0.0,0.0,0.0,0.0,0.0,0.0,0.0,0.0,0.0,0.0,0.0,0.0,0.0,0.0,0.0,0.0,0.0,0.0,0.0,0.0,0.0,0.0,0.0,0.0,0.0,0.0,0.0,0.0,0.0,0.0,0.0,0.0,0.0,0.0,0.0,0.0,0.0,0.0,0.0,0.0,0.0,0.0,0.0,0.0,0.0,0.0,0.0,0.0,0.0,0.0,0.0,3.3403,3.4199,3.4816,3.5247,3.4584,3.316,0.0,0.0,0.0,0.0,0.0,0.0,0.0,0.0,0.0,0.0,0.0,0.0,0.0,0.0,0.0,0.0,0.0,0.0,0.0,0.0,0.0,0.0,0.0,0.0,0.0,0.0,0.0,0.0,0.0,0.0,0.0,0.0,0.0,0.0,0.0,0.0,0.0,0.0,0.0,0.0,0.0,0.0,0.0,0.0,0.0,0.0,0.0,0.0,0.0,0.0,0.0,0.0,0.0,0.0,0.0,0.0,0.0,0.0,0.0,0.0,0.0,0.0,0.0,0.0,0.0,0.0,0.0,0.0,0.0,0.0,0.0,0.0,0.0,0.0,0.0,0.0,0.0,0.0,0.0,0.0,0.0,0.0,0.0,0.0,0.0,0.0,0.0,0.0,0.0,0.0,0.0,0.0,0.0,0.0,0.0,0.0,0.0,0.0,0.0,0.0,0.0,0.0,0.0,0.0,0.0,0.0,0.0,0.0,0.0,3.5559,3.5998,3.6427,3.6879,3.5977,3.4437,3.223,0.0,0.0,0.0,0.0,0.0,0.0,0.0,0.0,0.0,0.0,0.0,0.0,0.0,0.0,0.0,0.0,0.0,0.0,0.0,0.0,0.0,0.0,0.0,0.0,0.0,0.0,0.0,0.0,0.0,0.0,0.0,0.0,0.0,0.0,0.0,0.0,0.0,0.0,0.0,0.0,0.0,0.0,0.0,0.0,0.0,0.0,0.0,0.0,0.0,0.0,0.0,0.0,0.0,0.0,0.0,0.0,0.0,0.0,0.0,0.0,0.0,0.0,0.0,0.0,0.0,0.0,0.0,0.0,0.0,0.0,0.0,0.0,0.0,0.0,0.0,0.0,0.0,0.0,0.0,0.0,0.0,0.0,0.0,0.0,0.0,0.0,0.0,0.0,0.0,0.0,0.0,0.0,0.0,0.0,0.0,0.0,0.0,0.0,0.0,0.0,0.0,0.0,0.0,0.0,0.0,0.0,0.0,0.0,3.8811,3.8851,3.8807,3.8594,3.7364,3.5594,0.0,0.0,0.0,0.0,0.0,0.0,0.0,0.0,0.0,0.0,0.0,0.0,0.0,0.0,0.0,0.0,0.0,0.0,0.0,0.0,0.0,0.0,0.0,0.0,0.0,0.0,0.0,0.0,0.0,0.0,0.0,0.0,0.0,0.0,0.0,0.0,0.0,0.0,0.0,0.0,0.0,0.0,0.0,0.0,0.0,0.0,0.0,0.0,0.0,0.0,0.0,0.0,0.0,0.0,0.0,0.0,0.0,0.0,0.0,0.0,0.0,0.0,0.0,0.0,0.0,0.0,0.0,0.0,0.0,0.0,0.0,0.0,0.0,0.0,0.0,0.0,0.0,0.0,0.0,0.0,0.0,0.0,0.0,0.0,0.0,0.0,0.0,0.0,0.0,0.0,0.0,0.0,0.0,0.0,0.0,0.0,0.0,0.0,0.0,0.0,0.0,0.0,0.0,0.0,0.0,0.0,0.0,0.0,0.0,4.1781,4.356,4.3345,4.107,4.0105,3.8342,0.0,0.0,0.0,0.0,0.0,0.0,0.0,0.0,0.0,0.0,0.0,0.0,0.0,0.0,0.0,0.0,0.0,0.0,0.0,0.0,0.0,0.0,0.0,0.0,0.0,0.0,0.0,0.0,0.0,0.0,0.0,0.0,0.0,0.0,0.0,0.0,0.0,0.0,0.0,0.0,0.0,0.0,0.0,0.0,0.0,0.0,0.0,0.0,0.0,0.0,0.0,0.0,0.0,0.0,0.0,0.0,0.0,0.0,0.0,0.0,0.0,0.0,0.0,0.0,0.0,0.0,0.0,0.0,0.0,0.0,0.0,0.0,0.0,0.0,0.0,0.0,0.0,0.0,0.0,0.0,0.0,0.0,0.0,0.0,0.0,0.0,0.0,0.0,0.0,0.0,0.0,0.0,0.0,0.0,0.0,0.0,0.0,0.0,0.0,0.0,0.0,0.0,0.0,0.0,0.0,0.0,0.0,0.0,4.0879,4.4176,4.6597,4.7081,4.5602,4.3501,4.086,0.0,0.0,0.0,0.0,0.0,0.0,0.0,0.0,0.0,0.0,0.0,0.0,0.0,0.0,0.0,0.0,0.0,0.0,0.0,0.0,0.0,0.0,0.0,0.0,0.0,0.0,0.0,0.0,0.0,0.0,0.0,0.0,0.0,0.0,0.0,0.0,0.0,0.0,0.0,0.0,0.0,0.0,0.0,0.0,0.0,0.0,0.0,0.0,0.0,0.0,0.0,0.0,0.0,0.0,0.0,0.0,0.0,0.0,0.0,0.0,0.0,0.0,0.0,0.0,0.0,0.0,0.0,0.0,0.0,0.0,0.0,0.0,0.0,0.0,0.0,0.0,0.0,0.0,0.0,0.0,0.0,0.0,0.0,0.0,0.0,0.0,0.0,0.0,0.0,0.0,0.0,0.0,0.0,0.0,0.0,0.0,0.0,0.0,0.0,0.0,0.0,0.0,0.0,0.0,0.0,0.0,0.0,0.0,4.2526,4.6329,4.8743,5.0272,5.0818,4.7005,4.3173,0.0,0.0,0.0,0.0,0.0,0.0,0.0,0.0,0.0,0.0,0.0,0.0,0.0,0.0,0.0,0.0,0.0,0.0,0.0,0.0,0.0,0.0,0.0,0.0,0.0,0.0,0.0,0.0,0.0,0.0,0.0,0.0,0.0,0.0,0.0,0.0,0.0,0.0,0.0,0.0,0.0,0.0,0.0,0.0,0.0,0.0,0.0,0.0,0.0,0.0,0.0,0.0,0.0,0.0,0.0,0.0,0.0,0.0,0.0,0.0,0.0,0.0,0.0,0.0,0.0,0.0,0.0,0.0,0.0,0.0,0.0,0.0,0.0,0.0,0.0,0.0,0.0,0.0,0.0,0.0,0.0,0.0,0.0,0.0,0.0,0.0,0.0,0.0,0.0,0.0,0.0,0.0,0.0,0.0,0.0,0.0,0.0,0.0,0.0,0.0,0.0,0.0,0.0,0.0,0.0,0.0,0.0,0.0,4.5807,4.9509,5.1862,5.3108,5.3245,4.8877,4.5286,0.0,0.0,0.0,0.0,0.0,0.0,0.0,0.0,0.0,0.0,0.0,0.0,0.0,0.0,0.0,0.0,0.0,0.0,0.0,0.0,0.0,0.0,0.0,0.0,0.0,0.0,0.0,0.0,0.0,0.0,0.0,0.0,0.0,0.0,0.0,0.0,0.0,0.0,0.0,0.0,0.0,0.0,0.0,0.0,0.0,0.0,0.0,0.0,3.2464,0.0,0.0,0.0,0.0,0.0,0.0,0.0,0.0,0.0,0.0,0.0,0.0,0.0,0.0,0.0,0.0,0.0,0.0,0.0,0.0,0.0,0.0,0.0,0.0,0.0,0.0,0.0,0.0,0.0,0.0,0.0,0.0,0.0,0.0,0.0,0.0,0.0,0.0,0.0,0.0,0.0,0.0,0.0,0.0,0.0,0.0,0.0,0.0,0.0,0.0,0.0,0.0,0.0,0.0,0.0,0.0,0.0,0.0,0.0,4.7104,5.1146,5.3196,5.4395,5.4601,5.1253,4.7719,0.0,0.0,0.0,0.0,0.0,0.0,0.0,0.0,0.0,0.0,0.0,0.0,0.0,0.0,0.0,0.0,0.0,0.0,0.0,0.0,0.0,0.0,0.0,0.0,0.0,0.0,0.0,0.0,0.0,0.0,0.0,0.0,0.0,0.0,0.0,0.0,0.0,0.0,0.0,0.0,0.0,0.0,0.0,0.0,0.0,0.0,0.0,0.0,0.0,0.0,0.0,0.0,0.0,0.0,0.0,0.0,0.0,0.0,0.0,0.0,0.0,0.0,0.0,0.0,0.0,0.0,0.0,0.0,0.0,0.0,0.0,0.0,0.0,0.0,0.0,0.0,0.0,0.0,0.0,0.0,0.0,0.0,0.0,0.0,0.0,0.0,0.0,0.0,0.0,0.0,0.0,0.0,0.0,0.0,0.0,0.0,0.0,0.0,0.0,0.0,0.0,0.0,0.0,0.0,0.0,0.0,0.0,4.4178,4.7981,5.2268,5.4096,5.5213,5.5768,5.3623,5.0144,4.5397,0.0,0.0,0.0,0.0,0.0,0.0,0.0,0.0,0.0,0.0,0.0,0.0,0.0,0.0,0.0,0.0,0.0,0.0,0.0,0.0,0.0,0.0,0.0,0.0,0.0,0.0,0.0,0.0,0.0,0.0,0.0,0.0,0.0,0.0,0.0,0.0,0.0,0.0,2.9682,3.2796,0.0,0.0,0.0,0.0,0.0,0.0,0.0,0.0,3.4319,0.0,0.0,0.0,0.0,0.0,0.0,0.0,0.0,0.0,0.0,0.0,0.0,0.0,0.0,0.0,0.0,0.0,0.0,0.0,0.0,0.0,0.0,0.0,0.0,0.0,0.0,0.0,0.0,0.0,0.0,0.0,0.0,0.0,0.0,0.0,0.0,0.0,0.0,0.0,0.0,0.0,0.0,0.0,0.0,0.0,0.0,0.0,0.0,0.0,0.0,0.0,0.0,0.0,0.0,0.0,0.0,4.2991,4.6708,5.0542,5.4398,5.6012,5.6816,5.6741,5.5167,5.2056,4.7208,0.0,0.0,0.0,0.0,0.0,0.0,0.0,0.0,0.0,0.0,0.0,0.0,0.0,0.0,0.0,0.0,0.0,0.0,0.0,0.0,0.0,0.0,0.0,0.0,0.0,0.0,0.0,0.0,0.0,0.0,0.0,0.0,0.0,0.0,0.0,0.0,0.0,0.0,0.0,3.3723,3.5379,0.0,0.0,0.0,0.0,0.0,0.0,0.0,0.0,3.6261,0.0,0.0,0.0,0.0,0.0,0.0,0.0,0.0,0.0,0.0,0.0,0.0,0.0,0.0,0.0,0.0,0.0,0.0,0.0,0.0,0.0,0.0,0.0,0.0,0.0,0.0,0.0,0.0,0.0,0.0,0.0,0.0,0.0,0.0,0.0,0.0,0.0,0.0,0.0,0.0,0.0,0.0,0.0,0.0,0.0,0.0,0.0,0.0,0.0,0.0,0.0,0.0,0.0,0.0,0.0,4.3568,4.7431,5.1256,5.4974,5.6613,5.7336,5.7126,5.5223,5.2107,0.0,0.0,0.0,0.0,0.0,0.0,0.0,0.0,0.0,0.0,0.0,0.0,0.0,0.0,0.0,0.0,0.0,0.0,0.0,0.0,0.0,0.0,0.0,0.0,0.0,0.0,0.0,0.0,0.0,0.0,0.0,0.0,0.0,0.0,0.0,0.0,0.0,0.0,0.0,0.0,3.6265,3.7698,3.9156,0.0,0.0,0.0,0.0,0.0,0.0,3.8241,3.8009,0.0,0.0,0.0,0.0,0.0,0.0,0.0,0.0,0.0,0.0,0.0,0.0,0.0,0.0,0.0,0.0,0.0,0.0,0.0,0.0,0.0,0.0,0.0,0.0,0.0,0.0,0.0,0.0,0.0,0.0,0.0,0.0,0.0,0.0,0.0,0.0,0.0,0.0,0.0,0.0,0.0,0.0,0.0,0.0,0.0,0.0,0.0,0.0,0.0,0.0,0.0,0.0,0.0,0.0,0.0,4.398,4.786,5.1717,5.5439,5.6946,5.7588,5.7365,5.5046,5.1873,0.0,0.0,0.0,0.0,0.0,0.0,0.0,0.0,0.0,0.0,0.0,0.0,0.0,0.0,0.0,0.0,0.0,0.0,0.0,0.0,0.0,0.0,0.0,0.0,0.0,0.0,0.0,0.0,0.0,0.0,0.0,0.0,0.0,0.0,0.0,0.0,0.0,0.0,0.0,0.0,0.0,4.0072,4.1451,4.1393,0.0,0.0,0.0,0.0,4.0272,4.0139,0.0,0.0,0.0,0.0,0.0,0.0,0.0,0.0,0.0,0.0,0.0,0.0,0.0,0.0,0.0,0.0,0.0,0.0,0.0,0.0,0.0,0.0,0.0,0.0,0.0,0.0,0.0,0.0,0.0,0.0,0.0,0.0,0.0,0.0,0.0,0.0,0.0,0.0,0.0,0.0,0.0,0.0,0.0,0.0,0.0,0.0,0.0,0.0,0.0,0.0,0.0,0.0,0.0,0.0,0.0,0.0,4.5082,4.9074,5.2965,5.6678,5.7739,5.8048,5.7739,5.5513,5.2263,0.0,0.0,0.0,0.0,0.0,0.0,0.0,0.0,0.0,0.0,0.0,0.0,0.0,0.0,0.0,0.0,0.0,0.0,0.0,0.0,0.0,0.0,0.0,0.0,0.0,0.0,0.0,0.0,0.0,0.0,0.0,0.0,0.0,0.0,0.0,0.0,0.0,0.0,0.0,0.0,0.0,4.0967,4.2451,4.3213,4.3695,0.0,0.0,4.3547,4.3561,4.3012,0.0,0.0,0.0,0.0,0.0,0.0,0.0,0.0,0.0,0.0,0.0,0.0,0.0,0.0,0.0,0.0,0.0,0.0,0.0,0.0,0.0,0.0,0.0,0.0,0.0,0.0,0.0,0.0,0.0,0.0,0.0,0.0,0.0,0.0,0.0,0.0,0.0,0.0,0.0,0.0,0.0,0.0,0.0,0.0,0.0,0.0,0.0,0.0,0.0,0.0,0.0,0.0,0.0,0.0,0.0,4.1557,4.6035,4.9703,5.3353,5.7078,5.8088,5.8376,5.8078,5.5675,5.2453,0.0,0.0,0.0,0.0,0.0,0.0,0.0,0.0,0.0,0.0,0.0,0.0,0.0,0.0,0.0,0.0,0.0,0.0,0.0,0.0,0.0,0.0,0.0,0.0,0.0,0.0,0.0,0.0,0.0,0.0,0.0,0.0,0.0,0.0,0.0,0.0,0.0,0.0,0.0,0.0,0.0,0.0,4.4545,4.5455,0.0,0.0,0.0,4.6605,4.6605,0.0,0.0,0.0,0.0,0.0,0.0,0.0,0.0,0.0,0.0,0.0,0.0,0.0,0.0,0.0,0.0,0.0,0.0,0.0,0.0,0.0,0.0,0.0,0.0,0.0,0.0,0.0,0.0,0.0,0.0,0.0,0.0,0.0,0.0,0.0,0.0,0.0,0.0,0.0,0.0,0.0,0.0,0.0,0.0,0.0,0.0,0.0,0.0,0.0,0.0,0.0,0.0,0.0,0.0,0.0,0.0,0.0,4.7003,5.034,5.3924,5.7647,5.8674,5.8873,5.837,5.5971,0.0,0.0,0.0,0.0,0.0,0.0,0.0,0.0,0.0,0.0,0.0,0.0,0.0,0.0,0.0,0.0,0.0,0.0,0.0,0.0,0.0,0.0,0.0,0.0,0.0,0.0,0.0,2.733,0.0,0.0,0.0,0.0,0.0,0.0,0.0,0.0,0.0,0.0,0.0,0.0,0.0,0.0,4.4663,4.6651,4.7936,4.889,0.0,0.0,4.9465,4.9432,4.8507,4.7417,0.0,0.0,0.0,0.0,0.0,0.0,0.0,0.0,0.0,0.0,0.0,0.0,0.0,0.0,0.0,0.0,0.0,0.0,0.0,0.0,0.0,0.0,0.0,0.0,0.0,0.0,0.0,0.0,0.0,0.0,0.0,0.0,0.0,0.0,0.0,0.0,0.0,0.0,0.0,0.0,0.0,0.0,0.0,0.0,0.0,0.0,0.0,0.0,0.0,0.0,0.0,0.0,0.0,0.0,0.0,4.7996,5.1333,5.4994,5.8929,5.9877,5.9773,5.8688,5.644,5.3456,0.0,0.0,0.0,0.0,0.0,0.0,0.0,0.0,0.0,0.0,0.0,0.0,0.0,0.0,0.0,0.0,0.0,0.0,0.0,0.0,0.0,0.0,0.0,0.0,0.0,0.0,0.0,0.0,0.0,0.0,0.0,0.0,0.0,0.0,0.0,0.0,0.0,0.0,0.0,0.0,0.0,4.7045,4.8464,5.0726,5.221,0.0,0.0,5.203,5.203,5.0272,4.8824,4.8599,0.0,0.0,0.0,0.0,0.0,0.0,0.0,0.0,0.0,0.0,0.0,0.0,0.0,0.0,0.0,0.0,0.0,0.0,0.0,0.0,0.0,0.0,0.0,0.0,0.0,0.0,0.0,0.0,0.0,0.0,0.0,0.0,0.0,0.0,0.0,0.0,0.0,0.0,0.0,0.0,0.0,0.0,0.0,0.0,0.0,0.0,0.0,0.0,0.0,0.0,0.0,0.0,0.0,4.398,4.8888,5.2267,5.5672,5.9055,6.0073,6.0026,5.8908,5.7001,5.4082,0.0,0.0,0.0,0.0,0.0,0.0,0.0,0.0,0.0,0.0,0.0,0.0,0.0,0.0,0.0,0.0,0.0,0.0,0.0,0.0,0.0,0.0,0.0,0.0,0.0,0.0,0.0,0.0,3.2094,3.2516,3.3595,0.0,0.0,0.0,0.0,0.0,0.0,0.0,0.0,0.0,0.0,4.9169,5.1047,5.2931,0.0,0.0,5.477,5.4583,5.4106,5.2949,5.1571,5.0147,4.8568,0.0,0.0,0.0,0.0,0.0,0.0,0.0,0.0,0.0,0.0,0.0,0.0,0.0,0.0,0.0,0.0,0.0,0.0,0.0,0.0,0.0,0.0,0.0,0.0,0.0,0.0,0.0,0.0,0.0,0.0,0.0,0.0,0.0,0.0,0.0,0.0,0.0,0.0,0.0,0.0,0.0,0.0,0.0,0.0,0.0,0.0,0.0,0.0,0.0,0.0,0.0,0.0,4.5134,4.9817,5.3181,5.6353,5.925,6.0427,6.0538,5.949,5.7796,5.5111,0.0,0.0,0.0,0.0,0.0,0.0,0.0,0.0,0.0,0.0,0.0,0.0,0.0,0.0,0.0,0.0,0.0,0.0,0.0,0.0,0.0,0.0,0.0,0.0,0.0,0.0,0.0,0.0,3.4175,3.469,3.5261,0.0,0.0,0.0,0.0,0.0,0.0,0.0,0.0,0.0,0.0,5.139,5.3128,5.491,5.6214,5.6729,5.6781,5.6575,5.6027,5.4947,5.361,5.2034,0.0,0.0,0.0,0.0,0.0,0.0,0.0,0.0,0.0,0.0,0.0,0.0,0.0,0.0,0.0,0.0,0.0,0.0,0.0,0.0,0.0,0.0,0.0,0.0,0.0,0.0,0.0,0.0,0.0,0.0,3.1336,0.0,0.0,0.0,0.0,0.0,0.0,0.0,0.0,0.0,0.0,0.0,0.0,0.0,0.0,0.0,0.0,0.0,0.0,0.0,0.0,0.0,0.0,4.6713,5.0843,5.4193,5.7098,5.9552,6.1159,6.1489,6.0544,5.8858,5.6707,5.4008,0.0,0.0,0.0,0.0,0.0,0.0,0.0,0.0,0.0,0.0,0.0,0.0,0.0,0.0,0.0,0.0,0.0,0.0,0.0,0.0,0.0,0.0,0.0,0.0,0.0,0.0,3.5214,3.6661,3.7588,0.0,0.0,0.0,0.0,0.0,0.0,0.0,0.0,0.0,0.0,5.1597,5.3829,5.4454,5.6589,5.804,5.7907,5.7873,5.7839,5.7804,5.5975,5.4476,0.0,0.0,0.0,0.0,0.0,0.0,0.0,0.0,0.0,0.0,0.0,0.0,0.0,0.0,0.0,0.0,0.0,0.0,0.0,0.0,0.0,0.0,0.0,0.0,0.0,0.0,0.0,3.5847,3.6327,0.0,0.0,0.0,0.0,0.0,0.0,0.0,0.0,0.0,0.0,0.0,4.7393,4.7381,0.0,0.0,0.0,0.0,0.0,0.0,0.0,0.0,0.0,0.0,0.0,0.0,4.861,5.1813,5.5541,5.8385,6.0362,6.1448,6.1561,6.0607,5.952,5.7149,5.3414,0.0,0.0,0.0,0.0,0.0,0.0,0.0,0.0,0.0,0.0,0.0,0.0,0.0,0.0,0.0,0.0,0.0,0.0,0.0,0.0,0.0,0.0,0.0,0.0,0.0,3.6412,0.0,0.0,0.0,0.0,0.0,0.0,0.0,0.0,0.0,0.0,0.0,4.9103,5.2164,5.434,5.6088,5.725,5.8609,5.9448,0.0,0.0,0.0,0.0,0.0,0.0,0.0,0.0,0.0,0.0,0.0,0.0,0.0,0.0,5.1204,4.8769,4.8311,4.8249,4.8249,0.0,0.0,0.0,0.0,0.0,0.0,0.0,0.0,0.0,0.0,0.0,0.0,0.0,0.0,4.0849,0.0,4.0424,0.0,0.0,0.0,0.0,0.0,0.0,0.0,0.0,4.8196,5.0023,5.2378,5.2215,5.2383,0.0,5.2134,4.9899,0.0,0.0,0.0,0.0,0.0,0.0,0.0,0.0,5.0508,5.3135,5.653,5.9233,6.1123,6.1738,6.1842,6.1506,6.0142,5.7742,5.4236,5.1796,4.9353,0.0,0.0,0.0,0.0,0.0,0.0,0.0,0.0,0.0,0.0,0.0,0.0,0.0,0.0,0.0,0.0,0.0,0.0,0.0,0.0,0.0,0.0,0.0,3.9099,0.0,0.0,0.0,0.0,0.0,0.0,0.0,0.0,0.0,4.7583,4.9633,5.2193,5.5079,5.6644,5.8058,5.9424,0.0,0.0,0.0,0.0,0.0,0.0,0.0,5.9666,5.8694,5.838,5.8072,5.7541,5.7426,5.7382,5.7382,0.0,0.0,5.2564,5.2129,5.2352,5.2352,5.2919,5.3445,5.3445,5.3955,5.4603,0.0,0.0,0.0,0.0,0.0,0.0,0.0,0.0,4.5558,4.6264,0.0,4.5745,0.0,0.0,0.0,0.0,0.0,4.6341,0.0,0.0,5.2386,5.4421,5.6747,5.7635,5.8075,5.8075,5.7355,5.6145,5.4369,4.9734,0.0,0.0,0.0,0.0,0.0,0.0,5.2425,5.4772,5.727,5.9687,6.1955,6.2064,6.2462,6.3056,6.0775,5.8534,5.655,5.495,5.2912,5.024,4.7724,0.0,0.0,0.0,0.0,0.0,0.0,0.0,0.0,0.0,0.0,0.0,0.0,0.0,0.0,0.0,0.0,0.0,0.0,0.0,0.0,4.1262,0.0,0.0,0.0,0.0,0.0,0.0,0.0,0.0,0.0,0.0,5.1316,5.3252,5.5448,5.7306,0.0,0.0,0.0,0.0,6.2143,6.2868,6.301,6.301,6.2974,6.2462,6.2073,6.2073,0.0,0.0,6.1253,6.1156,6.1086,6.1071,6.0915,5.9729,5.6543,5.6384,5.6721,5.6841,5.7267,5.7736,5.7826,5.8295,5.876,5.4521,0.0,0.0,0.0,0.0,4.953,5.0501,5.1474,5.2059,5.2339,5.2394,5.1422,0.0,0.0,0.0,0.0,0.0,0.0,5.3761,5.5598,5.7429,5.9238,6.1027,6.071,6.0882,6.1371,6.063,5.9497,5.7978,5.6557,5.3482,4.8949,0.0,0.0,0.0,0.0,5.517,5.6559,5.9444,6.1557,6.2802,6.3418,6.3563,6.3214,6.1303,5.9723,5.8583,5.6743,5.4897,5.2996,5.0365,0.0,0.0,0.0,0.0,0.0,0.0,0.0,0.0,0.0,0.0,0.0,0.0,0.0,0.0,0.0,0.0,0.0,0.0,0.0,4.4245,4.4818,4.518,0.0,0.0,0.0,0.0,0.0,0.0,0.0,0.0,0.0,5.7382,5.7562,5.8296,0.0,0.0,6.2116,6.2913,6.3191,6.3376,6.3606,6.3642,0.0,0.0,6.3457,6.3559,6.4111,6.4551,6.4812,6.4797,6.4767,6.4772,6.4736,6.469,6.4307,6.3372,6.1102,5.984,6.0249,6.0909,6.1619,6.2149,6.2842,6.3357,6.2681,5.7972,5.496,5.4021,5.4537,5.5533,5.6337,5.7057,5.7813,5.8129,5.8065,5.6979,5.6055,5.5253,5.4162,0.0,0.0,0.0,5.8454,5.9745,6.1551,6.3235,6.4662,6.4339,6.4404,6.4823,6.4043,6.2859,6.1376,6.1086,5.9036,5.5348,0.0,0.0,5.3146,5.5918,5.78,5.8696,6.1172,6.3019,6.412,6.4301,6.4011,6.3214,6.1887,6.0756,5.9899,5.8394,5.6868,5.5203,5.2614,5.0232,0.0,0.0,0.0,0.0,0.0,0.0,0.0,0.0,0.0,0.0,0.0,3.8102,3.9237,0.0,0.0,0.0,4.4224,4.6349,4.7802,4.818,0.0,0.0,0.0,0.0,0.0,0.0,0.0,5.561,5.8065,6.0181,6.158,6.2112,6.2507,6.3063,6.3451,6.4105,6.5259,0.0,6.5421,6.5745,6.5817,6.5817,6.5817,6.5841,6.6082,6.6626,6.7131,6.742,6.7456,6.7395,6.7328,6.7348,6.7266,6.7255,6.7255,6.533,6.383,6.4028,6.4559,6.5245,6.6027,6.6443,6.6768,6.9839,6.8089,6.3045,6.0721,6.0459,6.1541,6.2085,6.2316,6.3007,6.3618,6.3862,6.2361,6.1685,6.1595,6.0138,0.0,5.9542,6.1285,6.2494,6.325,6.4909,6.6449,6.7785,6.7978,6.809,6.8039,6.7329,6.6207,6.4685,6.3961,6.3128,6.2209,5.9325,5.7406,5.6645,5.8746,6.0267,6.0978,6.2585,6.4156,6.5627,6.4845,6.4048,6.3323,6.2462,6.1575,6.0729,5.9872,5.8664,5.7054,5.4509,5.2437,5.0913,0.0,0.0,0.0,0.0,0.0,0.0,0.0,0.0,0.0,0.0,0.0,0.0,0.0,0.0,0.0,4.7852,0.0,5.0717,5.1477,0.0,0.0,0.0,5.3385,5.4229,5.5875,5.7633,5.9227,0.0,0.0,6.4412,6.6449,6.7315,6.5979,6.5593,6.6016,6.761,6.7662,6.7914,6.8469,6.8685,6.8706,6.8449,6.8667,6.8863,6.9074,6.9337,6.9358,6.9378,6.9359,6.9214,6.925,6.916,6.9137,6.9137,6.9101,6.8886,6.815,6.8131,6.8566,6.9351,6.9398,6.9422,7.3987,7.3164,7.1996,6.9299,6.5889,6.6818,6.7442,6.7758,6.8544,6.8691,6.8307,6.7305,6.5899,6.4183,6.3824,6.3644,6.3731,6.5448,6.6374,6.6605,6.7731,6.8494,6.8841,6.8923,6.8902,6.8902,6.8721,6.809,6.7184,6.6952,6.6134,6.4758,6.3961,6.2585,6.0688,6.1752,6.244,6.2635,6.4215,6.5518,6.6424,6.512,6.4287,6.412,6.2716,6.1906,6.1661,6.0215,5.9209,5.8736,5.6345,5.453,5.3609,5.1104,0.0,0.0,0.0,0.0,0.0,0.0,0.0,0.0,0.0,4.3722,4.5422,0.0,4.7789,0.0,5.1137,5.3399,5.4361,5.514,0.0,0.0,5.6801,5.7684,5.794,5.9943,6.1738,6.2817,6.4519,6.6,6.6965,6.8117,6.895,6.9146,6.8645,6.8376,6.8805,6.8826,6.8868,6.9069,6.9142,6.9085,6.9178,6.9606,7.0051,7.0134,7.0568,7.0951,7.0951,7.1463,7.1793,7.1829,7.2268,7.2613,7.2561,7.2669,7.2561,7.2292,7.129,7.0756,7.2101,7.2357,7.236,7.7051,7.6207,7.6408,7.4923,7.242,7.1812,7.1664,7.1814,7.1922,7.1806,7.1539,7.0795,6.9543,6.7971,6.7935,6.7971,6.8043,6.9333,6.9922,6.9958,7.0884,7.1277,7.1277,7.0915,7.077,7.0749,7.0061,6.9518,6.9068,6.8706,6.8069,6.7199,6.7199,6.6547,6.5229,6.4577,6.4265,6.4301,6.5482,6.6351,6.675,6.5591,6.4772,6.441,6.32,6.2354,6.1992,6.0354,5.9496,5.941,5.7103,5.5548,5.5116,5.2999,5.1621,0.0,0.0,0.0,0.0,0.0,0.0,0.0,0.0,0.0,0.0,0.0,5.1645,5.2561,5.4686,5.6397,5.729,5.8047,5.8673,5.9047,6.0096,6.0968,6.1376,6.3199,6.4844,6.5785,6.7246,6.8578,6.9451,7.0263,7.106,7.1857,7.1567,7.1039,7.0335,7.0206,7.0242,7.0191,7.0242,7.0242,7.0242,7.0589,7.0894,7.0951,7.1531,7.2038,7.2074,7.2674,7.3217,7.3253,7.3615,7.3905,7.3905,7.3905,7.3977,7.4214,7.3593,7.3227,7.3848,7.396,7.4017,7.952,7.8347,7.8512,7.8657,7.8583,7.6279,7.5201,7.5057,7.439,7.4062,7.3996,7.3421,7.2653,7.1805,7.182,7.182,7.1857,7.2529,7.2855,7.2907,7.3579,7.3905,7.3868,7.3181,7.2871,7.2782,7.135,7.0677,7.0677,6.988,6.9445,6.9337,6.9337,6.93,6.9119,6.7127,6.6062,6.6062,6.6641,6.6967,6.6931,6.6062,6.5265,6.4541,6.3685,6.2875,6.2173,6.0616,5.9747,5.9674,5.7593,5.6386,5.6337,5.4829,5.3926,0.0,5.3158,0.0,0.0,0.0,0.0,0.0,0.0,0.0,0.0,5.3951,5.5623,5.7238,5.828,5.9118,5.9817,6.0707,6.1537,6.2237,6.2976,6.3791,6.4628,6.5994,6.7231,6.8205,6.9611,7.0806,7.1531,7.2348,7.3108,7.3615,7.3651,7.3144,7.211,7.182,7.182,7.1805,7.1712,7.1531,7.1386,7.1422,7.1494,7.1675,7.2183,7.2726,7.2818,7.3506,7.405,7.4086,7.4194,7.4267,7.4194,7.4231,7.4484,7.5136,7.5155,7.5069,7.5024,7.4942,7.5057,8.1893,8.1216,8.1253,8.1021,8.0478,7.9375,7.8525,7.791,7.7765,7.7004,7.5843,7.5679,7.4826,7.347,7.3434,7.3434,7.3434,7.3615,7.3651,7.3687,7.3832,7.3905,7.3868,7.3724,7.3687,7.3615,7.271,7.2255,7.2255,7.1458,7.077,7.017,7.017,6.9844,6.9228,0.0,0.0,0.0,6.8017,6.7785,6.7713,6.6351,6.5518,6.5337,6.3939,0.0,6.2925,6.1412,6.0543,6.0543,5.9516,0.0,0.0,0.0,0.0,0.0,0.0,0.0,0.0,0.0,0.0,0.0,5.7791,5.7035,5.6044,5.7457,5.8834,5.9844,6.1353,6.2304,6.2499,6.3788,6.4715,6.491,6.6148,6.7074,6.7321,6.8132,6.9016,6.988,7.0734,7.1603,7.2436,7.3181,7.3724,7.3941,7.3905,7.3796,7.3506,7.3398,7.3398,7.3398,7.2855,7.2239,7.1603,7.1567,7.1857,7.2291,7.2565,7.2963,7.3579,7.4339,7.4846,7.4882,7.5406,7.5804,7.5804,7.5841,7.5804,7.6022,7.6058,7.6058,7.6024,7.5991,7.6046,8.3256,0.0,8.2304,8.1961,0.0,8.0839,8.0241,7.9825,7.9028,7.8231,7.747,7.747,7.7036,7.6239,7.5877,7.5679,7.5643,7.5261,7.508,7.508,7.508,7.508,7.508,7.4665,7.4484,7.4448,7.3687,7.3289,7.3253,7.2855,7.2275,7.1531,7.1531,7.1132,7.0387,7.0351,6.9989,6.9192,6.8793,6.838,6.7966,6.7206,6.6424,6.5591,6.4794,0.0,0.0,0.0,0.0,0.0,0.0,0.0,0.0,6.0114,0.0,6.0088,5.9673,5.9429,5.9429,5.9429,5.9935,6.1104,6.1954,6.1787,6.0129,6.0811,6.1584,6.2415,6.3629,6.4541,6.4975,6.6098,6.6931,6.738,6.809,6.8706,6.9176,6.9865,7.0661,7.1422,7.2219,7.2999,7.3796,7.4194,7.4665,7.5044,7.508,7.508,7.5008,7.4375,7.3905,7.3868,7.3615,7.3181,7.2798,7.2674,7.2798,7.3217,7.3615,7.4013,7.4412,7.5172,7.5696,7.5732,7.6022,7.6292,7.6292,7.6292,7.6292,7.6292,7.6292,7.6292,7.6292,7.6292,7.6292,8.4238,8.3682,8.2994,8.2632,8.245,8.1817,8.1454,8.1183,0.0,0.0,0.0,7.8919,7.881,7.8666,7.8014,7.7724,7.7688,7.7036,7.6637,7.6492,7.6509,7.6437,7.6239,7.5607,7.5317,7.5281,7.4484,7.4122,7.4086,7.3977,7.3543,7.2963,7.2927,7.2565,7.1965,7.1913,7.1313,7.0097,6.9626,6.9083,6.8452,6.8307,6.751,6.6062,6.5881,6.512,6.3671,6.2875,6.2136,6.1498,6.1412,6.1448,6.1448,6.2064,6.2426,6.2426,6.2426,6.2426,6.2426,6.2535,6.3042,6.3975,6.541,6.5482,6.3758,6.3903,6.4323,6.4975,6.5772,6.6496,6.7184,6.7945,6.8669,6.9337,6.9518,6.9952,7.0713,7.1313,7.2001,7.2834,7.3579,7.4339,7.4919,7.5208,7.5534,7.6094,7.6167,7.6292,7.613,7.5225,7.4375,7.4231,7.4158,7.4086,7.3905,7.3796,7.3941,7.4086,7.4629,7.5136,7.5389,7.5841,7.6256,7.622,7.6292,7.6292,7.6292,7.6292,7.6292,7.6292,7.6292,7.6292,7.6292,7.6292,7.6292,8.5238,8.4515,8.4424,8.3953,8.332,8.3193,8.2776,8.2034,8.1128,8.0386,7.9752,7.9752,7.9354,7.8702,7.8593,7.8557,7.8521,7.8412,7.8014,7.7326,7.7326,7.6963,7.6328,7.6167,7.613,7.6075,7.5281,7.4955,7.4882,7.4267,7.3832,7.376,7.3724,7.3651,7.3579,7.3579,7.347,7.3181,7.1241,7.017,7.0061,6.9373,6.8597,6.7692,6.7003,6.6207,6.5265,6.4468,6.3997,6.3889,6.3889,6.3889,6.3889,6.4048,6.407,6.407,6.407,6.407,6.412,6.4722,6.5736,6.717,6.8162,6.7743,6.5555,6.6533,6.7351,6.751,6.8141,6.8721,6.8902,6.9554,7.0097,7.0278,7.0806,7.1494,7.2219,7.2509,7.2891,7.3651,7.4448,7.4955,7.5172,7.5696,7.6111,7.6256,7.6326,7.6309,7.6289,7.6147,7.5696,7.51,7.4919,7.4665,7.4231,7.3905,7.4283,7.4846,7.5044,7.5439,7.5999,7.6217,7.6326,7.6328,7.6326,7.6309,7.6309,7.6292,7.6326,7.6326,7.6326,7.6326,7.6326,7.6326,7.6292,8.5692,8.5293,8.4895,8.446,8.4117,8.3664,8.3284,8.2885,8.207,8.1309,8.0585,8.0531,8.035,7.9969,7.9535,7.9354,7.9318,7.8883,7.8484,7.8159,7.8159,7.7941,7.7615,7.7615,7.7362,7.6944,7.6601,7.6167,7.5768,7.537,7.4955,7.4556,7.4122,7.3905,7.3905,7.3905,7.3905,7.3868,7.24,7.1422,7.0987,7.0242,6.9445,6.8669,6.8286,6.7728,6.6931,6.6569,6.617,6.57,6.6098,6.6351,6.6388,6.675,6.7018,6.6982,6.7018,6.6982,6.7018,6.7344,6.7888,6.8612,6.9409,6.9409,6.8286,6.8452,6.8633,6.8669,6.9373,6.9844,6.988,7.0568,7.1168,7.1603,7.1965,7.2472,7.3253,7.376,7.4158,7.4556,7.5244,7.5732,7.5732,7.6178,7.6462,7.6462,7.6528,7.6558,7.6558,7.6558,7.6383,7.5891,7.5715,7.5623,7.5261,7.5307,7.5522,7.5865,7.5983,7.6178,7.6521,7.6558,7.6558,7.6594,7.6594,7.6558,7.6558,7.6558,7.6558,7.6574,7.6558,7.6558,7.6558,7.6528,7.6429,8.6054,8.5837,8.5221,8.4968,8.4895,8.4117,8.3755,8.3664,8.2921,8.2233,8.1635,8.1255,8.1074,8.1002,8.044,8.0187,8.0114,7.9535,7.9136,7.8992,7.8992,7.8883,7.8702,7.8702,7.8376,7.7833,7.776,7.7434,7.6908,7.669,7.6167,7.5389,7.4754,7.4428,7.4448,7.4448,7.4464,7.4375,7.3667,7.2782,7.1784,7.1205,7.046,6.9554,6.9481,6.9119,6.8343,6.8271,6.7981,6.7438,6.7945,6.8256,6.8307,6.8866,6.9192,6.9192,6.9192,6.9264,6.9461,6.9481,6.9554,6.9735,7.0315,7.0641,7.0604,7.0278,6.988,6.9844,7.0315,7.0713,7.0967,7.1422,7.211,7.2871,7.3011,7.337,7.4151,7.4836,7.5324,7.5505,7.603,7.6409,7.6462,7.6545,7.6663,7.6643,7.6741,7.6822,7.6822,7.6822,7.6672,7.6508,7.6409,7.6389,7.6409,7.6472,7.6554,7.6627,7.6688,7.6717,7.6769,7.6785,7.6822,7.6806,7.6806,7.6769,7.6822,7.6822,7.6769,7.6753,7.6753,7.6769,7.6753,7.6708,7.6561,8.6506,8.5945,8.5801,8.5801,8.5656,8.4914,8.4605,8.4515,8.3736,8.3356,8.312,8.1744,8.1147,8.1074,8.1002,8.0929,8.0929,8.0893,8.0459,7.9825,7.9788,7.9426,7.881,7.8738,7.8666,7.8593,7.8593,7.8521,7.8303,7.7688,7.7016,7.6275,7.6094,7.6058,7.6058,7.6058,7.6058,7.6058,7.5281,7.4122,7.269,7.2545,7.1784,7.0351,7.0315,6.9916,6.9228,6.9083,6.9083,6.9011,6.9047,6.9119,6.9119,6.9192,6.9228,6.9228,6.9228,6.9518,7.0206,7.0278,7.0604,7.1205,7.1401,7.1474,7.151,7.2001,7.2074,7.1546,7.1365,7.1764,7.24,7.2561,7.2975,7.3716,7.3974,7.4381,7.5124,7.5418,7.5805,7.6571,7.6632,7.6737,7.6721,7.6737,7.6769,7.6838,7.6817,7.685,7.685,7.685,7.685,7.6769,7.6753,7.6737,7.6737,7.6753,7.6806,7.6769,7.6785,7.6834,7.685,7.687,7.6838,7.6882,7.6834,7.685,7.687,7.6838,7.6854,7.6866,7.685,7.6801,7.6801,7.6785,7.6672,8.6832,8.6506,8.609,8.5909,8.5837,8.5547,8.5402,8.533,8.4552,8.4225,8.4081,8.3012,8.2251,8.178,8.1309,8.1074,8.1074,8.1074,8.0929,8.0621,8.0604,8.0423,8.0133,8.0097,7.9897,7.9462,7.939,7.9173,7.8738,7.8376,7.8014,7.776,7.7724,7.7507,7.7036,7.7016,7.6782,7.6328,7.5985,7.5261,7.4194,7.3651,7.3108,7.2545,7.2472,7.2074,7.1386,7.1277,7.106,7.0589,7.0568,7.0568,7.0553,7.0553,7.0553,7.0568,7.0646,7.0898,7.1317,7.1769,7.2205,7.2481,7.2917,7.3224,7.3224,7.3551,7.3536,7.3281,7.313,7.328,7.3629,7.3717,7.4024,7.4736,7.4981,7.5357,7.6106,7.6279,7.6473,7.6749,7.6822,7.6838,7.6817,7.6882,7.6977,7.7056,7.7087,7.7071,7.7087,7.7087,7.7087,7.7087,7.7087,7.6993,7.6866,7.6934,7.6982,7.6998,7.704,7.7087,7.7071,7.7087,7.7124,7.7071,7.7056,7.7071,7.7103,7.7087,7.7087,7.7071,7.7071,7.7056,7.6977,7.6998,7.687,8.7375,8.6904,8.6199,8.5909,8.5909,8.5909,8.5909,8.5837,8.5257,8.5041,8.5025,8.4263,8.3611,8.2994,8.1997,8.1417,8.1217,8.1217,8.1234,8.1234,8.1234,8.1234,8.1234,8.1234,8.0944,8.0454,8.0381,7.9946,7.9256,7.9166,7.9075,7.8893,7.8821,7.8567,7.8022,7.7986,7.7551,7.6841,7.6769,7.6389,7.5574,7.4994,7.4454,7.3957,7.3905,7.3631,7.3152,7.3116,7.2858,7.2325,7.2289,7.2289,7.2289,7.2107,7.1837,7.1708,7.1998,7.223,7.2316,7.3082,7.3519,7.3556,7.4082,7.441,7.4447,7.4592,7.477,7.4801,7.491,7.4967,7.4744,7.4738,7.5067,7.5817,7.5974,7.6297,7.6793,7.6897,7.6909,7.6929,7.6998,7.6929,7.6945,7.7077,7.7202,7.7243,7.731,7.7326,7.7326,7.731,7.7273,7.7326,7.7273,7.7217,7.6993,7.704,7.7155,7.7171,7.7212,7.7258,7.7326,7.731,7.731,7.7196,7.7258,7.7273,7.7227,7.7243,7.7273,7.7273,7.7273,7.7243,7.7186,7.7155,7.7092,8.8408,8.6977,8.6235,8.5982,8.5909,8.5964,8.5909,8.5928,8.5819,8.5932,8.59,8.5246,8.4991,8.4844,8.33,8.2138,8.1519,8.1621,8.171,8.171,8.1673,8.1581,8.1598,8.1598,8.1581,8.1474,8.1474,8.1073,8.0308,8.0325,7.9941,7.9284,7.9304,7.9175,7.9086,7.9069,7.8754,7.7992,7.7846,7.7498,7.679,7.6644,7.5697,7.4223,7.3941,7.4091,7.4127,7.4142,7.4133,7.4233,7.4145,7.4197,7.416,7.3525,7.2796,7.2228,7.2738,7.3155,7.3243,7.393,7.4368,7.4353,7.4566,7.4499,7.4712,7.526,7.5651,7.5812,7.6382,7.6429,7.5734,7.5625,7.5864,7.6594,7.6888,7.7003,7.7092,7.7186,7.7243,7.7279,7.7248,7.7212,7.7243,7.7295,7.7295,7.7273,7.7326,7.7326,7.7326,7.7326,7.7326,7.7326,7.7326,7.731,7.7295,7.7227,7.7243,7.7258,7.7243,7.7326,7.7326,7.7326,7.7326,7.7326,7.7326,7.7326,7.7326,7.7326,7.7273,7.7326,7.7326,7.7295,7.7264,7.7295,7.7196,8.877,8.7773,8.7483,8.7085,8.6634,8.673,8.6496,8.6043,8.6155,8.6247,8.6229,8.6029,8.5628,8.5153,8.4695,8.3967,8.3167,8.3183,8.3201,8.3201,8.3201,8.3201,8.3201,8.3201,8.2872,8.2417,8.2345,8.1943,8.125,8.1178,8.1032,8.0813,8.074,8.0485,8.0084,7.9974,7.9573,7.8824,7.8276,7.7839,7.7583,7.7057,7.6445,7.5823,7.577,7.5548,7.5102,7.5118,7.4894,7.4447,7.441,7.441,7.4374,7.4118,7.3909,7.3782,7.4016,7.4193,7.4357,7.5031,7.5486,7.5522,7.5999,7.6203,7.6276,7.6533,7.6747,7.683,7.6992,7.6982,7.6804,7.6679,7.6789,7.7045,7.7202,7.7233,7.7248,7.7295,7.7326,7.7326,7.7326,7.7326,7.7326,7.7326,7.7326,7.7326,7.7326,7.7326,7.7326,7.7326,7.7326,7.7326,7.7326,7.7326,7.7326,7.731,7.7289,7.7289,7.7326,7.7326,7.7326,7.7326,7.7326,7.7326,7.7326,7.7326,7.7326,7.7326,7.7326,7.7326,7.7326,7.7326,7.7326,7.7326,7.7258,8.9096,8.8589,8.8394,8.7978,8.7509,8.7408,8.7102,8.6574,8.6429,8.6447,8.6465,8.6519,8.6262,8.5947,8.6032,8.5774,8.5118,8.4576,8.4251,8.4251,8.4251,8.4268,8.4268,8.432,8.4044,8.3512,8.3253,8.2848,8.2372,8.2079,8.1969,8.1932,8.1969,8.1643,8.1154,8.1027,8.0645,7.9791,7.9243,7.8878,7.8585,7.8073,7.7635,7.74,7.7363,7.6982,7.6131,7.6094,7.5854,7.539,7.5332,7.5222,7.5003,7.493,7.4866,7.4827,7.5025,7.5202,7.5365,7.6004,7.6481,7.6481,7.6959,7.7326,7.7326,7.7326,7.7326,7.7326,7.7326,7.7326,7.7326,7.7273,7.7326,7.7326,7.7326,7.7326,7.7326,7.7326,7.7326,7.7326,7.7326,7.7326,7.7326,7.7326,7.7326,7.7326,7.7326,7.7326,7.7326,7.7326,7.7326,7.7326,7.7326,7.7326,7.7326,7.7326,7.7326,7.7326,7.7326,7.7326,7.7326,7.7326,7.7326,7.7326,7.7326,7.7326,7.7326,7.7326,7.7326,7.7326,7.7326,7.7326,7.7326,7.7326,7.7258,8.9442,8.9373,8.8766,8.8588,8.8445,8.8032,8.7687,8.7414,8.683,8.6682,8.675,8.6714,8.6887,8.7127,8.7087,8.7224,8.6906,8.5551,8.4866,8.4866,8.4829,8.4792,8.4846,8.5033,8.5026,8.4821,8.4209,8.3904,8.3783,8.3103,8.2713,8.2723,8.2639,8.2418,8.2355,8.2196,8.1854,8.1138,8.0796,8.0482,7.989,7.9622,7.9218,7.8631,7.8558,7.8113,7.7218,7.7071,7.7009,7.7096,7.7148,7.687,7.6158,7.6047,7.5747,7.5292,7.5711,7.6041,7.6203,7.6775,7.7179,7.7326,7.7362,7.7472,7.7619,7.7509,7.7436,7.7472,7.7362,7.7326,7.7326,7.7326,7.7326,7.7326,7.7326,7.7326,7.7326,7.7326,7.7326,7.7326,7.7326,7.7326,7.7326,7.7326,7.7326,7.7326,7.7326,7.7326,7.7326,7.7326,7.7326,7.7326,7.7326,7.7326,7.7326,7.7326,7.7326,7.7326,7.7326,7.7326,7.7326,7.7326,7.7326,7.7326,7.7326,7.7326,7.7326,7.7326,7.7326,7.7326,7.7326,7.7326,7.7326,7.7326,7.7326,9.0534,9.0614,9.0416,9.0018,8.9582,8.9458,8.8856,8.7905,8.7807,8.7561,8.7189,8.7197,8.7315,8.7398,8.7452,8.7448,8.7423,8.6828,8.6611,8.6574,8.6557,8.6521,8.6574,8.6623,8.6398,8.5807,8.5064,8.4727,8.4579,8.393,8.3545,8.3434,8.2991,8.2665,8.2692,8.2565,8.2339,8.1975,8.1392,8.094,8.0587,8.011,7.9669,7.9486,7.9412,7.9271,7.893,7.7851,7.7316,7.7326,7.7326,7.7179,7.6959,7.6922,7.6812,7.6628,7.6775,7.6922,7.6959,7.7179,7.7582,7.8023,7.8185,7.8516,7.8846,7.8479,7.8222,7.8112,7.7693,7.7326,7.7326,7.7326,7.7362,7.7326,7.7326,7.7326,7.7326,7.7326,7.7326,7.7326,7.7326,7.7326,7.7326,7.7326,7.7326,7.7326,7.7326,7.7326,7.7326,7.7326,7.7326,7.7326,7.7326,7.7326,7.7326,7.7326,7.7326,7.7326,7.7326,7.7326,7.7326,7.7326,7.7326,7.7326,7.7326,7.7326,7.7326,7.7326,7.7326,7.7326,7.7326,7.7326,7.7326,7.7326,7.7326,9.1091,9.1206,9.1282,9.1028,9.0573,9.0539,8.997,8.9015,8.8723,8.8307,8.7918,8.7595,8.7546,8.7579,8.7595,8.7644,8.773,8.7693,8.7709,8.766,8.7546,8.7514,8.7514,8.7579,8.7422,8.6915,8.6138,8.5731,8.5694,8.4953,8.4509,8.4435,8.4028,8.3775,8.3654,8.338,8.3155,8.285,8.2108,8.1608,8.1438,8.097,8.055,8.0293,8.0241,8.0057,7.9779,7.8736,7.806,7.7766,7.7509,7.7326,7.7326,7.7289,7.7326,7.7326,7.7326,7.7399,7.7693,7.7803,7.8133,7.8846,7.9029,7.9229,7.9596,7.9265,7.9045,7.8919,7.8589,7.8222,7.8243,7.8243,7.8096,7.7766,7.7472,7.7326,7.7326,7.7326,7.7326,7.7326,7.7326,7.7326,7.7326,7.7326,7.7326,7.7326,7.7326,7.7326,7.7326,7.7326,7.7326,7.7326,7.7326,7.7326,7.7326,7.7326,7.7326,7.7326,7.7326,7.7326,7.7326,7.7326,7.7326,7.7326,7.7326,7.7326,7.7326,7.7326,7.7326,7.7326,7.7326,7.7326,7.7326,7.7326,7.7326,9.1244,9.1282,9.1471,9.1546,9.1492,9.1176,9.0896,9.0654,8.9626,8.9008,8.8749,8.8097,8.7792,8.7889,8.7884,8.7874,8.8053,8.8053,8.8037,8.7974,8.7762,8.7595,8.7612,8.7746,8.7837,8.7799,8.7199,8.6864,8.6759,8.6032,8.5669,8.5602,8.5438,8.5444,8.5077,8.4602,8.4102,8.3709,8.294,8.2492,8.237,8.219,8.1815,8.1154,8.1064,8.0791,8.0257,7.9905,7.9428,7.8662,7.8002,7.7693,7.7509,7.7436,7.7619,7.7656,7.7509,7.7949,7.8479,7.8662,7.8993,7.9727,7.989,7.989,8.011,8.0036,7.9853,7.9853,7.9669,7.9633,7.9633,7.9596,7.9302,7.8699,7.7839,7.7362,7.7326,7.7326,7.7326,7.7326,7.7326,7.7326,7.7326,7.7326,7.7326,7.7326,7.7326,7.7326,7.7326,7.7326,7.7326,7.7326,7.7326,7.7326,7.7326,7.7326,7.7326,7.7326,7.7326,7.7326,7.7326,7.7326,7.7326,7.7326,7.7326,7.7326,7.7326,7.7326,7.7326,7.7326,7.7326,7.7326,7.7326,7.7326,7.7326,9.1601,9.1858,9.193,9.202,9.2162,9.2047,9.1639,9.1139,9.092,9.0358,8.9872,8.9134,8.8811,8.8838,8.8281,8.8053,8.8121,8.81,8.81,8.8084,8.8021,8.7958,8.7921,8.799,8.8037,8.8047,8.7839,8.775,8.7712,8.6858,8.6486,8.6449,8.5966,8.5654,8.5475,8.5386,8.4827,8.4207,8.3849,8.326,8.2692,8.246,8.227,8.207,8.1937,8.1762,8.1521,8.1066,8.0404,7.9559,7.9323,7.914,7.9045,7.9061,7.9024,7.9024,7.9082,7.9192,7.9412,7.9486,7.989,8.0571,8.0681,8.0938,8.1489,8.1012,8.0755,8.0571,8.022,7.9853,7.9853,7.9853,7.9669,7.936,7.828,7.7436,7.7362,7.7326,7.7326,7.7326,7.7326,7.7326,7.7326,7.7326,7.7326,7.7326,7.7326,7.7326,7.7326,7.7326,7.7326,7.7326,7.7326,7.7326,7.7326,7.7326,7.7326,7.7326,7.7326,7.7362,7.7326,7.7326,7.7326,7.7326,7.7326,7.7326,7.7326,7.7326,7.7326,7.7326,7.7326,7.7326,7.7326,7.7326,7.7326,9.1948,9.2215,9.2215,9.2285,9.2427,9.2496,9.2234,9.1862,9.1643,9.1355,9.0778,9.0116,8.9793,8.9719,8.8976,8.862,8.8583,8.8233,8.81,8.81,8.8084,8.8084,8.8084,8.81,8.81,8.81,8.81,8.81,8.801,8.7564,8.7378,8.7304,8.6911,8.6672,8.6672,8.6226,8.5862,8.525,8.4595,8.3784,8.3359,8.2781,8.2518,8.2487,8.2444,8.2412,8.2339,8.2013,8.126,8.0231,7.9952,7.9983,7.9983,8.002,7.9983,8.002,7.9936,7.9984,8.0299,8.0325,8.0681,8.1305,8.1525,8.1709,8.2003,8.1746,8.1489,8.1452,8.1012,8.0844,8.0718,8.0498,8.033,8.0167,7.914,7.8206,7.7913,7.7546,7.7362,7.7326,7.7326,7.7326,7.7326,7.7326,7.7326,7.7326,7.7326,7.7326,7.7326,7.7326,7.7326,7.7326,7.7619,7.7803,7.8075,7.8185,7.8295,7.8222,7.7876,7.7803,7.7582,7.7509,7.7436,7.7436,7.7362,7.7362,7.7509,7.7509,7.7326,7.7326,7.7326,7.7326,7.7326,7.7326,7.7326,9.2233,9.2444,9.2444,9.2461,9.2513,9.265,9.2717,9.2603,9.2126,9.1894,9.1634,9.0982,9.0647,9.0573,8.9793,8.9347,8.9198,8.8604,8.8248,8.8174,8.81,8.81,8.81,8.81,8.81,8.81,8.81,8.81,8.8062,8.8062,8.8062,8.7951,8.7951,8.8025,8.7712,8.7267,8.6932,8.6382,8.5324,8.4595,8.4253,8.3633,8.3207,8.297,8.2702,8.267,8.2665,8.2564,8.1994,8.0416,8.0471,8.0634,8.0612,8.059,8.0627,8.0671,8.0659,8.0781,8.1192,8.1282,8.1443,8.2031,8.2162,8.2203,8.2166,8.2076,8.2039,8.2039,8.2186,8.1966,8.1893,8.1452,8.1195,8.0975,8.0351,7.958,7.8883,7.8038,7.7436,7.7399,7.7399,7.7326,7.7326,7.7326,7.7326,7.7326,7.7326,7.7326,7.7326,7.7326,7.7326,7.7326,7.7803,7.8479,7.8809,7.9155,7.9339,7.9376,7.8883,7.8589,7.8185,7.7986,7.7766,7.7729,7.817,7.8206,7.8023,7.7876,7.7729,7.7582,7.7766,7.7582,7.7362,7.7326,7.7326,9.2461,9.2633,9.2633,9.2754,9.2872,9.2922,9.2938,9.2901,9.2786,9.2653,9.2505,9.1799,9.1465,9.139,9.061,8.9942,8.9384,8.9013,8.8716,8.8137,8.81,8.81,8.81,8.81,8.81,8.81,8.81,8.81,8.81,8.81,8.81,8.81,8.81,8.81,8.8062,8.7861,8.7415,8.6858,8.6329,8.5809,8.5348,8.4944,8.4423,8.3889,8.3211,8.2785,8.2758,8.2904,8.2787,8.2505,8.2258,8.216,8.2071,8.2092,8.2108,8.2055,8.2068,8.2169,8.2338,8.2254,8.2302,8.2323,8.2343,8.2295,8.2203,8.2203,8.2203,8.2186,8.2186,8.2186,8.215,8.2076,8.1893,8.1672,8.1195,8.0681,8.0314,7.9176,7.8405,7.8222,7.7766,7.7326,7.7326,7.7326,7.7326,7.7326,7.7326,7.7326,7.7326,7.7326,7.7326,7.7326,7.8222,7.8883,7.9176,7.9633,8.011,8.0183,7.9779,7.9522,7.9103,7.8809,7.8699,7.8919,7.9323,7.9176,7.8736,7.8956,7.8919,7.8626,7.8259,7.8023,7.7803,7.7582,7.7472,9.265,9.2855,9.2855,9.2905,9.2988,9.2988,9.2988,9.2988,9.2988,9.2988,9.2914,9.2468,9.2319,9.2208,9.1428,9.061,8.9793,8.9013,8.8493,8.8174,8.81,8.81,8.81,8.81,8.81,8.81,8.81,8.81,8.81,8.81,8.81,8.81,8.81,8.81,8.81,8.81,8.7861,8.7446,8.7099,8.672,8.6333,8.5916,8.5589,8.5105,8.4585,8.428,8.4384,8.4465,8.4516,8.4375,8.4034,8.3522,8.3173,8.3136,8.3136,8.3084,8.2934,8.2904,8.2874,8.2773,8.2612,8.2571,8.2518,8.2508,8.2412,8.2364,8.2279,8.2284,8.2251,8.2186,8.2186,8.2186,8.2186,8.215,8.1819,8.1562,8.1305,8.0131,7.9155,7.8993,7.8442,7.8112,7.7876,7.7619,7.7326,7.7326,7.7326,7.7326,7.7326,7.7326,7.7326,7.7582,7.8589,7.925,7.9507,8.0036,8.0807,8.0755,8.0498,8.0351,8.0204,7.9947,7.9764,7.9947,8.0036,7.9779,7.9486,7.9743,7.989,7.9449,7.8993,7.8626,7.8442,7.8479,7.8332,9.2855,9.2988,9.2988,9.2988,9.2988,9.2988,9.2988,9.2988,9.2988,9.2988,9.2988,9.2988,9.2876,9.2802,9.2245,9.139,9.0239,8.8901,8.8137,8.8137,8.81,8.81,8.81,8.81,8.81,8.81,8.81,8.81,8.81,8.81,8.81,8.81,8.81,8.8131,8.8131,8.8131,8.8103,8.8,8.766,8.7407,8.7273,8.6839,8.6547,8.6254,8.5961,8.5872,8.5849,8.5943,8.6083,8.6144,8.5573,8.49,8.4274,8.3653,8.3588,8.356,8.3318,8.3194,8.3135,8.3009,8.288,8.2788,8.2773,8.2727,8.2665,8.2555,8.2455,8.2391,8.2364,8.2251,8.2219,8.2203,8.2186,8.2186,8.2186,8.2186,8.1966,8.0938,8.0367,7.9853,7.9286,7.8772,7.8369,7.8038,7.7656,7.7362,7.7362,7.7362,7.7399,7.7399,7.7472,7.7876,7.8883,8.0094,8.0498,8.0645,8.1379,8.1342,8.1122,8.1122,8.1122,8.1048,8.0791,8.055,8.0477,8.033,8.0367,8.0624,8.055,8.0147,7.9853,7.958,7.947,7.9449,7.9176,9.2971,9.2988,9.2988,9.2988,9.2988,9.2988,9.2988,9.2988,9.2988,9.2988,9.2988,9.2988,9.2988,9.2914,9.2876,9.1948,9.0313,8.8827,8.81,8.81,8.81,8.81,8.81,8.81,8.81,8.81,8.81,8.8115,8.81,8.81,8.81,8.81,8.81,8.8162,8.8269,8.8263,8.8308,8.8384,8.8212,8.8182,8.8122,8.8031,8.7744,8.7319,8.6929,8.6708,8.6599,8.6605,8.6596,8.661,8.6627,8.6553,8.5997,8.47,8.3947,8.3882,8.3826,8.3844,8.3765,8.361,8.3326,8.3143,8.3203,8.3052,8.2899,8.2775,8.2892,8.266,8.2544,8.2359,8.2359,8.23,8.2219,8.2203,8.2186,8.2186,8.2113,8.1835,8.1305,8.0828,8.0094,7.947,7.9103,7.8699,7.8332,7.8075,7.7949,7.7876,7.7876,7.7839,7.7839,7.8442,7.9176,8.0461,8.1599,8.1672,8.1966,8.1929,8.1782,8.1782,8.1819,8.1966,8.1835,8.1395,8.1358,8.1489,8.1562,8.1525,8.1305,8.0938,8.0718,8.0534,8.0277,8.0036,7.9963,9.2988,9.2988,9.2988,9.2988,9.2988,9.2988,9.2988,9.2988,9.2988,9.2988,9.2988,9.2988,9.2988,9.2876,9.2468,9.139,8.9904,8.8716,8.8121,8.81,8.81,8.81,8.81,8.81,8.8162,8.8155,8.8186,8.8177,8.81,8.81,8.8146,8.8208,8.8223,8.8263,8.8384,8.8376,8.8421,8.851,8.8642,8.8728,8.8757,8.8842,8.8695,8.8477,8.8205,8.802,8.8033,8.8073,8.8112,8.805,8.78,8.765,8.7171,8.6401,8.5363,8.5312,8.5207,8.514,8.5095,8.504,8.4923,8.4723,8.4561,8.4533,8.4353,8.4253,8.3802,8.3324,8.276,8.2571,8.2571,8.2449,8.2332,8.23,8.2251,8.2203,8.2203,8.2203,8.1946,8.1558,8.0934,8.0383,8.0057,7.9617,7.9103,7.8809,7.8589,7.8479,7.8405,7.8479,7.8516,7.914,7.9874,8.0828,8.1893,8.2076,8.2186,8.2186,8.2186,8.2186,8.2186,8.215,8.2186,8.1966,8.215,8.2186,8.2113,8.1856,8.1782,8.1709,8.1525,8.1269,8.0865,8.0608,8.0587,9.2988,9.2988,9.2988,9.2988,9.2988,9.2988,9.2988,9.2988,9.2988,9.2988,9.2988,9.2988,9.2876,9.2505,9.1613,9.0462,8.9251,8.8455,8.8121,8.81,8.81,8.81,8.8146,8.8162,8.8202,8.8323,8.8339,8.8278,8.8254,8.8223,8.8247,8.8308,8.8354,8.8429,8.8547,8.8583,8.8569,8.8714,8.8884,8.9075,8.9143,8.9318,8.9475,8.9501,8.9489,8.9439,8.939,8.9364,8.9402,8.9251,8.8986,8.8633,8.847,8.7966,8.7613,8.7487,8.7095,8.6764,8.6546,8.636,8.6087,8.5882,8.5949,8.5937,8.5738,8.5267,8.4994,8.4299,8.3756,8.3407,8.3466,8.2955,8.2802,8.2697,8.2543,8.23,8.2332,8.2348,8.2364,8.2017,8.1585,8.1186,8.0766,8.0388,7.9874,7.9412,7.9176,7.9213,7.9176,7.9302,7.9486,8.0021,8.0681,8.1342,8.1929,8.2113,8.2186,8.2186,8.2186,8.2186,8.2186,8.2186,8.2186,8.2186,8.2186,8.2186,8.2186,8.2186,8.2039,8.2003,8.2113,8.1966,8.1525,8.1415,8.1452,9.2988,9.2988,9.2988,9.2988,9.2951,9.2951,9.2951,9.2876,9.2839,9.2988,9.2765,9.2876,9.2431,9.1613,9.0313,8.957,8.9066,8.8524,8.8131,8.8146,8.8146,8.8208,8.8263,8.8278,8.8369,8.8488,8.8518,8.8451,8.8473,8.8473,8.8459,8.8488,8.8533,8.8592,8.8766,8.8879,8.9019,8.9105,8.924,8.9371,8.941,8.954,8.9642,8.9741,8.9877,8.9949,9.0008,9.002,9.0043,9.0029,8.9976,8.9865,8.9795,8.9733,8.9585,8.9035,8.8104,8.6945,8.7083,8.7067,8.6871,8.6797,8.6546,8.6199,8.6154,8.5871,8.5608,8.5475,8.5093,8.4867,8.4599,8.4178,8.3841,8.3535,8.3266,8.2955,8.2808,8.2823,8.2802,8.2634,8.2308,8.1755,8.1234,8.095,8.0608,8.0147,7.9816,7.9926,8.0036,8.0257,8.0367,8.0865,8.1158,8.1782,8.1966,8.215,8.2186,8.2186,8.2186,8.2186,8.2186,8.2186,8.2186,8.2186,8.2186,8.2186,8.2186,8.2186,8.2186,8.2186,8.2186,8.2186,8.2113,8.215,8.2113,9.2988,9.2988,9.2988,9.2691,9.2282,9.2282,9.1985,9.165,9.1576,9.1576,9.1576,9.1576,9.113,9.0366,8.9533,8.9113,8.8729,8.8388,8.8247,8.8293,8.8323,8.8354,8.8414,8.8444,8.8518,8.8664,8.8766,8.8879,8.8785,8.8627,8.8562,8.8679,8.8766,8.8842,8.9006,8.9157,8.9251,8.9333,8.9489,8.9679,8.9741,8.9851,8.9947,9.0006,9.0102,9.0159,9.0205,9.0205,9.0205,9.0205,9.0205,9.0194,9.011,9.0087,9.0052,8.9941,8.9282,8.8695,8.8545,8.8356,8.8125,8.8015,8.7838,8.7726,8.7242,8.6645,8.6264,8.6264,8.5794,8.5615,8.5584,8.5053,8.4879,8.4573,8.4194,8.4073,8.3798,8.3471,8.3387,8.3197,8.2991,8.2476,8.2034,8.175,8.1523,8.1227,8.1044,8.1101,8.1232,8.1379,8.1489,8.1636,8.1856,8.2113,8.2113,8.2186,8.2186,8.2186,8.2186,8.2186,8.2186,8.2186,8.2186,8.2186,8.2186,8.2186,8.2186,8.2186,8.2186,8.2186,8.2186,8.2186,8.2186,8.2186,8.215,9.2635,9.2821,9.2723,9.2282,9.1688,9.1502,9.1093,9.0573,9.0637,9.0616,9.0504,9.0462,8.9994,8.9436,8.9244,8.8821,8.8391,8.8354,8.8414,8.8451,8.8495,8.8495,8.8592,8.8621,8.8737,8.8879,8.9047,8.9143,8.9078,8.8954,8.8879,8.8973,8.9047,8.9143,8.9227,8.9346,8.9451,8.9591,8.9778,8.9961,9.0043,9.0098,9.0205,9.0239,9.0262,9.0273,9.0295,9.0306,9.0306,9.0306,9.0317,9.0306,9.0273,9.025,9.0228,9.0144,8.9801,8.9683,8.9514,8.9377,8.9464,8.9291,8.9033,8.8489,8.822,8.7584,8.7149,8.7133,8.6747,8.6412,8.6174,8.6008,8.5776,8.5602,8.537,8.5308,8.515,8.4647,8.4308,8.4244,8.3948,8.3389,8.2964,8.2686,8.2434,8.2263,8.2235,8.2203,8.215,8.2113,8.2076,8.2003,8.2076,8.2186,8.2186,8.2186,8.2186,8.2296,8.2296,8.2223,8.226,8.2223,8.2186,8.2186,8.2186,8.2186,8.2186,8.2186,8.2186,8.2186,8.2186,8.2186,8.2186,8.2186,8.2186,9.1587,9.2244,9.1907,9.1704,9.1592,9.0907,9.0552,9.034,9.0615,9.0625,9.0417,9.0115,8.975,8.9541,8.8966,8.8608,8.8466,8.8466,8.8525,8.8525,8.8547,8.8693,8.8794,8.8936,8.9033,8.917,8.9291,8.932,8.9359,8.9359,8.9331,8.9371,8.9358,8.9371,8.9462,8.9604,8.9729,8.9875,9.0041,9.0159,9.0194,9.0239,9.0284,9.0362,9.0383,9.0454,9.0589,9.053,9.0519,9.0519,9.0508,9.0487,9.0383,9.0373,9.034,9.0284,9.0228,9.0087,8.9958,8.9753,8.9566,8.9345,8.9061,8.8751,8.8451,8.8316,8.812,8.7892,8.7542,8.7617,8.7452,8.7251,8.6775,8.6558,8.6363,8.6162,8.5998,8.5695,8.5392,8.5289,8.4873,8.4314,8.3978,8.3685,8.2787,8.2507,8.2235,8.2186,8.2186,8.215,8.215,8.215,8.215,8.2186,8.2223,8.2296,8.2517,8.27,8.2774,8.2553,8.237,8.2333,8.248,8.2186,8.2186,8.2186,8.2186,8.2186,8.2186,8.2186,8.2186,8.2186,8.2186,8.2186,8.2186,9.1207,9.1416,9.0808,9.0538,9.05,9.0202,8.9755,8.9323,8.9346,8.9399,8.9429,8.9123,8.9003,8.8906,8.8794,8.8577,8.8679,8.878,8.8814,8.8926,8.9047,8.9116,8.9197,8.9211,8.9291,8.9371,8.9475,8.954,8.9515,8.9642,8.9741,8.9729,8.9604,8.9579,8.9654,8.9827,8.9994,9.0087,9.025,9.0317,9.034,9.0433,9.0476,9.0519,9.053,9.054,9.0572,9.0621,9.0621,9.0659,9.0697,9.0665,9.0606,9.0595,9.0536,9.0443,9.0351,9.0295,9.0205,8.9958,8.9754,8.941,8.9102,8.8794,8.8525,8.8399,8.8232,8.8162,8.81,8.81,8.7973,8.7787,8.7601,8.749,8.7304,8.7044,8.6784,8.6524,8.6338,8.6248,8.5728,8.5141,8.4932,8.4707,8.3682,8.2713,8.2442,8.226,8.2406,8.248,8.259,8.2627,8.2627,8.2553,8.2553,8.2737,8.292,8.3104,8.3251,8.3141,8.2994,8.2957,8.2994,8.259,8.2223,8.226,8.226,8.2223,8.2186,8.2186,8.2186,8.2186,8.2186,8.2186,8.226,9.0661,9.0817,9.0031,8.9727,8.9765,8.9526,8.9078,8.8607,8.8673,8.8699,8.8757,8.8757,8.8757,8.8757,8.8771,8.8865,8.8992,8.9088,8.9146,8.9214,8.9294,8.9373,8.9423,8.9449,8.9488,8.9553,8.9629,8.9716,8.9802,8.9958,9.0006,8.9958,8.9887,8.9863,8.9923,9.0098,9.0262,9.0295,9.0373,9.0476,9.0487,9.053,9.061,9.0572,9.061,9.0801,9.0926,9.109,9.127,9.1395,9.1472,9.127,9.1079,9.0937,9.0822,9.0676,9.0557,9.0465,9.034,9.0113,8.9803,8.9449,8.9211,8.8894,8.8569,8.8414,8.8308,8.8115,8.81,8.81,8.81,8.8025,8.7988,8.7839,8.7839,8.7638,8.7601,8.7378,8.7304,8.7155,8.6561,8.5929,8.5683,8.5442,8.4727,8.3861,8.3643,8.346,8.3361,8.3361,8.3287,8.3287,8.3287,8.3141,8.303,8.3398,8.3765,8.3801,8.3948,8.3985,8.3911,8.3785,8.3454,8.3014,8.27,8.248,8.2333,8.226,8.2223,8.2186,8.2186,8.2186,8.2186,8.2223,8.248,8.983,9.0567,8.9786,8.9536,8.9653,8.8906,8.8562,8.8627,8.8879,8.9116,8.9254,8.928,8.928,8.928,8.9214,8.9265,8.9291,8.9358,8.9397,8.9423,8.9464,8.9425,8.9476,8.9566,8.9716,8.979,8.9887,8.9994,9.0148,9.0144,9.0167,9.0216,9.0171,9.0171,9.0178,9.0328,9.0383,9.0405,9.053,9.0551,9.06,9.0572,9.0583,9.0621,9.0784,9.1079,9.1395,9.1739,9.2045,9.2427,9.258,9.2351,9.1854,9.1816,9.151,9.0965,9.085,9.071,9.0487,9.0081,8.9868,8.9513,8.9265,8.8968,8.8613,8.8473,8.8369,8.8146,8.81,8.81,8.81,8.81,8.81,8.81,8.81,8.81,8.8025,8.7988,8.7787,8.7675,8.723,8.6747,8.6478,8.6125,8.5609,8.5122,8.494,8.4661,8.4362,8.4095,8.3948,8.3875,8.3838,8.3838,8.3838,8.4278,8.4572,8.4609,8.4719,8.4866,8.4792,8.4609,8.4168,8.3528,8.3308,8.3287,8.2774,8.2349,8.2627,8.292,8.2333,8.2186,8.2186,8.237,8.2774,8.9522,8.9788,8.9523,8.9455,8.9506,8.9242,8.9092,8.9105,8.9238,8.9331,8.9397,8.9373,8.9373,8.9373,8.9412,8.9412,8.9449,8.9527,8.9553,8.9541,8.9679,8.9778,8.9814,8.9875,8.9982,9.0079,9.0148,9.0159,9.0194,9.0284,9.0328,9.034,9.0411,9.0433,9.0373,9.0438,9.053,9.054,9.0572,9.0621,9.0621,9.0621,9.0621,9.0621,9.1052,9.151,9.193,9.2312,9.2886,9.3229,9.3344,9.3077,9.2733,9.2656,9.2504,9.2236,9.2225,9.2139,9.1967,9.1687,9.0938,9.0082,8.942,8.9164,8.8635,8.8533,8.8354,8.8193,8.81,8.81,8.81,8.81,8.81,8.81,8.81,8.81,8.8062,8.8062,8.7988,8.7973,8.7675,8.7564,8.74,8.7109,8.6587,8.6116,8.5877,8.5308,8.4919,8.4602,8.4389,8.4389,8.4389,8.4462,8.4682,8.5123,8.538,8.5416,8.5673,8.604,8.5857,8.5453,8.4939,8.4389,8.4242,8.4095,8.3654,8.3361,8.3691,8.3728,8.3104,8.281,8.2957,8.3177,8.3398,8.9553,8.9604,8.9642,8.9667,8.9629,8.9501,8.9436,8.9438,8.9451,8.9502,8.9579,8.9604,8.9642,8.9667,8.9667,8.9704,8.9704,8.9779,8.984,8.9814,8.9958,9.0017,9.0064,9.0133,9.0205,9.0262,9.0284,9.0295,9.0351,9.0416,9.0476,9.0497,9.0551,9.053,9.0519,9.0551,9.0583,9.061,9.0621,9.0621,9.0621,9.0621,9.0621,9.0822,9.1281,9.193,9.2389,9.3,9.3688,9.3803,9.3917,9.3803,9.365,9.3535,9.3421,9.3229,9.3093,9.2907,9.2672,9.2565,9.1695,9.0737,9.0142,8.9393,8.8754,8.8533,8.8339,8.8208,8.8189,8.8137,8.8174,8.8174,8.8174,8.8174,8.81,8.81,8.81,8.81,8.81,8.8084,8.8084,8.81,8.81,8.801,8.7672,8.7217,8.6814,8.6172,8.564,8.5417,8.5247,8.525,8.5343,8.5527,8.5747,8.6004,8.6151,8.6187,8.6444,8.6701,8.6628,8.6187,8.571,8.527,8.5086,8.4903,8.4609,8.4499,8.4499,8.4315,8.3838,8.3691,8.3801,8.3948,8.4095,8.9875,9.0006,9.0121,9.0182,9.0113,8.9654,8.9515,8.9654,8.9654,8.9753,8.997,8.9958,8.9982,9.0148,9.0182,9.0148,9.0125,9.0148,9.0148,9.0159,9.0194,9.0205,9.0228,9.025,9.0328,9.0373,9.0433,9.0465,9.0561,9.0551,9.0561,9.0572,9.0572,9.0572,9.0572,9.0572,9.0621,9.0621,9.0621,9.0621,9.0621,9.0621,9.0621,9.0899,9.151,9.2274,9.2962,9.3803,9.4643,9.5102,9.5407,9.5025,9.4681,9.4441,9.3906,9.3535,9.3382,9.3289,9.3156,9.3174,9.2705,9.1924,9.1301,9.0131,8.9327,8.9056,8.8987,8.8766,8.8678,8.8418,8.8285,8.8233,8.8233,8.8195,8.8137,8.81,8.81,8.81,8.81,8.81,8.81,8.81,8.81,8.8084,8.8084,8.7857,8.7455,8.7221,8.6763,8.6675,8.6541,8.6476,8.6552,8.6738,8.6831,8.6664,8.6664,8.6591,8.6701,8.6904,8.6867,8.6811,8.6407,8.6004,8.5894,8.571,8.5527,8.5233,8.4976,8.4756,8.4829,8.4646,8.4756,8.4682,8.4829,9.0087,9.0159,9.0194,9.0205,9.0182,9.0055,9.002,9.0006,9.0043,9.0102,9.0159,9.0159,9.0156,9.0205,9.0205,9.0216,9.0216,9.0205,9.0205,9.0239,9.0306,9.0328,9.0362,9.0443,9.0497,9.0519,9.054,9.054,9.0572,9.0621,9.0621,9.0621,9.0621,9.0621,9.0621,9.0621,9.0621,9.0621,9.0621,9.0621,9.0621,9.0621,9.0621,9.0975,9.2007,9.2771,9.3344,9.4529,9.5293,9.5522,9.5609,9.5369,9.5331,9.5255,9.5025,9.4987,9.4889,9.4772,9.4527,9.4468,9.4045,9.3213,9.2625,9.1808,9.0876,9.0221,9.004,8.9637,8.9437,8.9273,8.8976,8.8827,8.8604,8.8397,8.8285,8.81,8.81,8.81,8.81,8.81,8.81,8.81,8.81,8.81,8.8084,8.8084,8.8006,8.7826,8.7649,8.7452,8.7268,8.7203,8.7083,8.7031,8.7014,8.6867,8.6904,8.6978,8.7014,8.7014,8.6978,8.6904,8.6848,8.6701,8.6481,8.6444,8.6481,8.617,8.5803,8.617,8.6244,8.593,8.5673,8.5563,8.56,9.0284,9.0284,9.0328,9.0351,9.0351,9.0351,9.0389,9.0328,9.025,9.019,9.0284,9.0284,9.0306,9.0351,9.04,9.0362,9.0362,9.0373,9.04,9.0383,9.0416,9.0438,9.0519,9.0551,9.0572,9.0621,9.0621,9.0621,9.0621,9.0621,9.0621,9.0621,9.0621,9.0621,9.0621,9.0621,9.0621,9.0621,9.0621,9.0621,9.0621,9.0659,9.0784,9.1281,9.2504,9.3115,9.3688,9.5025,9.5484,9.5609,9.5609,9.5609,9.5598,9.5598,9.556,9.5484,9.5484,9.5284,9.506,9.5077,9.4654,9.4173,9.3734,9.3168,9.2252,9.1433,9.0898,9.0371,9.0361,9.0276,8.9867,8.9459,8.905,8.8657,8.8397,8.8137,8.81,8.81,8.81,8.81,8.81,8.81,8.81,8.81,8.81,8.8084,8.8084,8.8021,8.781,8.76,8.7402,8.7271,8.7135,8.7014,8.7014,8.7014,8.7014,8.7014,8.7014,8.7014,8.7014,8.6978,8.6941,8.6941,8.6941,8.6904,8.6794,8.6904,8.6757,8.7014,8.7014,8.6664,8.6334,8.6334,8.6481,9.0405,9.0405,9.054,9.0572,9.0621,9.0572,9.061,9.0561,9.034,9.0306,9.0433,9.0405,9.0449,9.053,9.054,9.054,9.053,9.053,9.053,9.0572,9.0551,9.0561,9.0561,9.0621,9.0621,9.0621,9.0621,9.0621,9.0621,9.0621,9.0621,9.0621,9.0621,9.0621,9.0621,9.0621,9.0621,9.0621,9.0735,9.0812,9.0697,9.0735,9.1052,9.1778,9.2695,9.3573,9.4338,9.5064,9.5609,9.5609,9.5609,9.5609,9.5609,9.5609,9.5609,9.5609,9.5609,9.5463,9.5263,9.5191,9.5045,9.473,9.453,9.4067,9.3218,9.2376,9.1756,9.1375,9.1369,9.1093,9.0685,9.0016,8.9496,8.8954,8.8545,8.8248,8.81,8.81,8.81,8.81,8.81,8.81,8.81,8.81,8.81,8.81,8.8084,8.8084,8.7958,8.7713,8.7534,8.7318,8.7169,8.7031,8.7014,8.7014,8.7014,8.7014,8.7014,8.7014,8.7014,8.7014,8.7014,8.7014,8.7014,8.7014,8.6978,8.7014,8.7014,8.7014,8.7014,8.7014,8.6941,8.6831,8.6867,9.0551,9.0551,9.0572,9.0621,9.0621,9.0621,9.0621,9.0583,9.053,9.0519,9.054,9.0551,9.0561,9.0583,9.0621,9.0621,9.0621,9.0621,9.0621,9.0583,9.0621,9.0621,9.0621,9.0621,9.0621,9.0621,9.0621,9.0621,9.0735,9.0697,9.0659,9.0659,9.0774,9.085,9.085,9.085,9.0888,9.0965,9.127,9.1232,9.0926,9.1281,9.1701,9.2312,9.3077,9.3983,9.4681,9.5178,9.5484,9.5609,9.5609,9.5609,9.5609,9.5609,9.5609,9.5609,9.5598,9.5463,9.5274,9.5167,9.5058,9.4819,9.4594,9.4362,9.3914,9.3245,9.2773,9.2481,9.2171,9.1836,9.139,9.0647,8.9942,8.931,8.862,8.836,8.81,8.81,8.81,8.81,8.81,8.81,8.81,8.81,8.81,8.81,8.81,8.8068,8.7974,8.7778,8.7579,8.7402,8.7132,8.7012,8.7031,8.7014,8.7014,8.7014,8.7014,8.7014,8.7014,8.7014,8.7014,8.7014,8.7014,8.7014,8.7014,8.7014,8.7014,8.7014,8.7014,8.7014,8.7014,8.6941,8.6941,9.0239,9.0583,9.0621,9.0621,9.0621,9.0621,9.0621,9.0621,9.0621,9.0621,9.0621,9.0621,9.0621,9.0621,9.0621,9.0621,9.0621,9.0621,9.0621,9.0621,9.0621,9.0621,9.0621,9.0621,9.0621,9.0621,9.0621,9.0697,9.1079,9.1204,9.1243,9.1538,9.1652,9.1614,9.1663,9.169,9.1663,9.1778,9.216,9.2045,9.1652,9.2121,9.2656,9.3191,9.3764,9.4518,9.4987,9.5407,9.5484,9.5609,9.5609,9.5609,9.5609,9.5609,9.5609,9.5609,9.5576,9.5498,9.5274,9.5155,9.5058,9.4806,9.4581,9.4335,9.4085,9.3455,9.3177,9.2886,9.2761,9.2431,9.1948,9.1279,9.0536,8.9867,8.8864,8.8211,8.81,8.81,8.81,8.81,8.81,8.81,8.81,8.81,8.81,8.81,8.81,8.81,8.8006,8.7842,8.7644,8.7448,8.7217,8.7029,8.7031,8.7014,8.7014,8.7014,8.7014,8.7014,8.7014,8.7014,8.7014,8.7014,8.7014,8.7014,8.7014,8.7014,8.7014,8.7014,8.7014,8.7014,8.7014,8.7014,8.7014,8.9627,9.0392,9.0544,9.0621,9.0621,9.0621,9.0621,9.0621,9.0621,9.0621,9.0621,9.0621,9.0621,9.0621,9.0621,9.0621,9.0621,9.0621,9.0621,9.0621,9.0621,9.0621,9.0621,9.0621,9.0746,9.0861,9.0926,9.1434,9.1969,9.2007,9.2312,9.3,9.3115,9.3077,9.3115,9.3077,9.2886,9.2847,9.3038,9.3229,9.3229,9.3268,9.365,9.4097,9.4556,9.4911,9.5369,9.5598,9.5609,9.5609,9.5609,9.5609,9.5609,9.5609,9.5609,9.5609,9.5598,9.5463,9.5263,9.5179,9.5008,9.4793,9.4554,9.4321,9.407,9.3762,9.3448,9.328,9.3119,9.2856,9.2393,9.1613,9.087,9.0164,8.905,8.8137,8.81,8.81,8.81,8.81,8.81,8.81,8.81,8.81,8.81,8.81,8.81,8.81,8.8053,8.7858,8.7676,8.7481,8.7285,8.7132,8.7049,8.7014,8.7014,8.7014,8.7014,8.7014,8.7014,8.7014,8.7014,8.7014,8.7014,8.7014,8.7014,8.7014,8.7014,8.7014,8.7014,8.7014,8.7014,8.7014,8.7014,8.8797,8.96,9.0277,9.0583,9.0583,9.0583,9.0621,9.0583,9.0544,9.0621,9.0506,9.0583,9.0621,9.0621,9.0621,9.0621,9.0621,9.0621,9.0621,9.0621,9.0621,9.0621,9.0621,9.0621,9.1013,9.1281,9.1548,9.2083,9.2733,9.2847,9.2924,9.3268,9.3229,9.3229,9.3191,9.3229,9.3421,9.3535,9.3917,9.4146,9.4146,9.4146,9.4185,9.4605,9.5064,9.5331,9.5598,9.5609,9.5609,9.5609,9.5609,9.5609,9.5609,9.5609,9.5609,9.5587,9.5598,9.5452,9.5263,9.5179,9.4996,9.4689,9.4486,9.4335,9.4079,9.374,9.3517,9.3338,9.3216,9.3021,9.2468,9.1316,9.0462,8.9867,8.8976,8.8397,8.81,8.81,8.81,8.81,8.81,8.81,8.81,8.81,8.81,8.81,8.81,8.81,8.8084,8.7889,8.7746,8.7551,8.7352,8.7166,8.7012,8.7031,8.7014,8.7014,8.7014,8.7014,8.7014,8.7014,8.7014,8.7014,8.7014,8.7014,8.7014,8.7014,8.7014,8.7014,8.7014,8.7014,8.7014,8.7014,8.7014]}]]